<?xml version="1.0" encoding="UTF-8" standalone="no" ?>
<gpx xmlns="http://www.topografix.com/GPX/1/1" xmlns:xsi="http://www.w3.org/2001/XMLSchema-instance" xsi:schemaLocation="http://www.topografix.com/GPX/1/1 http://www.topografix.com/GPX/1/1/gpx.xsd" version="1.1" creator="VisuGPX - https://www.visugpx.com">
  <metadata>
    <name>Sautron_Autour_8-10km</name>
    <desc><![CDATA[gnerando idor8372687_6691475_6690164_8372687]]></desc>
  </metadata>
  <trk>
    <name><![CDATA[Sautron _boucleNord_10.3km-8372687]]></name>
    <extensions>
      <line xmlns="http://www.topografix.com/GPX/gpx_style/0/2">
        <color>0000FF</color>
        <width>4</width>
      </line>
    </extensions>
    <trkseg>
      <trkpt lat="47.26806" lon="-1.67107">
        <ele>43</ele>
        <time>2023-11-13T11:15:28Z</time>
      </trkpt>
      <trkpt lat="47.26805" lon="-1.67084">
        <ele>43</ele>
        <time>2023-11-13T11:15:49Z</time>
      </trkpt>
      <trkpt lat="47.26812" lon="-1.67064">
        <ele>44</ele>
        <time>2023-11-13T11:16:09Z</time>
      </trkpt>
      <trkpt lat="47.2682" lon="-1.67072">
        <ele>43</ele>
        <time>2023-11-13T11:16:22Z</time>
      </trkpt>
      <trkpt lat="47.26836" lon="-1.67095">
        <ele>42</ele>
        <time>2023-11-13T11:16:52Z</time>
      </trkpt>
      <trkpt lat="47.26866" lon="-1.67128">
        <ele>41</ele>
        <time>2023-11-13T11:17:42Z</time>
      </trkpt>
      <trkpt lat="47.2687" lon="-1.6714">
        <ele>41</ele>
        <time>2023-11-13T11:17:54Z</time>
      </trkpt>
      <trkpt lat="47.26873" lon="-1.67136">
        <ele>41</ele>
        <time>2023-11-13T11:17:59Z</time>
      </trkpt>
      <trkpt lat="47.26894" lon="-1.67125">
        <ele>41</ele>
        <time>2023-11-13T11:18:29Z</time>
      </trkpt>
      <trkpt lat="47.269" lon="-1.67119">
        <ele>41</ele>
        <time>2023-11-13T11:18:39Z</time>
      </trkpt>
      <trkpt lat="47.26912" lon="-1.67044">
        <ele>41</ele>
        <time>2023-11-13T11:19:49Z</time>
      </trkpt>
      <trkpt lat="47.2691" lon="-1.6702">
        <ele>41</ele>
        <time>2023-11-13T11:20:11Z</time>
      </trkpt>
      <trkpt lat="47.2692" lon="-1.66951">
        <ele>41</ele>
        <time>2023-11-13T11:21:14Z</time>
      </trkpt>
      <trkpt lat="47.26926" lon="-1.66939">
        <ele>42</ele>
        <time>2023-11-13T11:21:28Z</time>
      </trkpt>
      <trkpt lat="47.26923" lon="-1.66892">
        <ele>42</ele>
        <time>2023-11-13T11:22:11Z</time>
      </trkpt>
      <trkpt lat="47.2692" lon="-1.66884">
        <ele>42</ele>
        <time>2023-11-13T11:22:19Z</time>
      </trkpt>
      <trkpt lat="47.26914" lon="-1.66875">
        <ele>42</ele>
        <time>2023-11-13T11:22:30Z</time>
      </trkpt>
      <trkpt lat="47.26914" lon="-1.66861">
        <ele>41</ele>
        <time>2023-11-13T11:22:43Z</time>
      </trkpt>
      <trkpt lat="47.26891" lon="-1.66804">
        <ele>42</ele>
        <time>2023-11-13T11:23:43Z</time>
      </trkpt>
      <trkpt lat="47.26878" lon="-1.66802">
        <ele>41</ele>
        <time>2023-11-13T11:24:01Z</time>
      </trkpt>
      <trkpt lat="47.26873" lon="-1.66796">
        <ele>41</ele>
        <time>2023-11-13T11:24:09Z</time>
      </trkpt>
      <trkpt lat="47.26868" lon="-1.66779">
        <ele>41</ele>
        <time>2023-11-13T11:24:26Z</time>
      </trkpt>
      <trkpt lat="47.26857" lon="-1.6677">
        <ele>41</ele>
        <time>2023-11-13T11:24:43Z</time>
      </trkpt>
      <trkpt lat="47.26849" lon="-1.66766">
        <ele>40</ele>
        <time>2023-11-13T11:24:54Z</time>
      </trkpt>
      <trkpt lat="47.26809" lon="-1.66709">
        <ele>43</ele>
        <time>2023-11-13T11:26:08Z</time>
      </trkpt>
      <trkpt lat="47.26796" lon="-1.66686">
        <ele>44</ele>
        <time>2023-11-13T11:26:35Z</time>
      </trkpt>
      <trkpt lat="47.26787" lon="-1.66659">
        <ele>45</ele>
        <time>2023-11-13T11:27:03Z</time>
      </trkpt>
      <trkpt lat="47.26773" lon="-1.66636">
        <ele>44</ele>
        <time>2023-11-13T11:27:31Z</time>
      </trkpt>
      <trkpt lat="47.26759" lon="-1.66603">
        <ele>42</ele>
        <time>2023-11-13T11:28:06Z</time>
      </trkpt>
      <trkpt lat="47.26754" lon="-1.666">
        <ele>42</ele>
        <time>2023-11-13T11:28:13Z</time>
      </trkpt>
      <trkpt lat="47.26733" lon="-1.66609">
        <ele>43</ele>
        <time>2023-11-13T11:28:42Z</time>
      </trkpt>
      <trkpt lat="47.26704" lon="-1.66606">
        <ele>46</ele>
        <time>2023-11-13T11:29:21Z</time>
      </trkpt>
      <trkpt lat="47.26678" lon="-1.66542">
        <ele>45</ele>
        <time>2023-11-13T11:30:29Z</time>
      </trkpt>
      <trkpt lat="47.26659" lon="-1.66462">
        <ele>42</ele>
        <time>2023-11-13T11:31:45Z</time>
      </trkpt>
      <trkpt lat="47.26649" lon="-1.66431">
        <ele>41</ele>
        <time>2023-11-13T11:32:16Z</time>
      </trkpt>
      <trkpt lat="47.26645" lon="-1.66411">
        <ele>40</ele>
        <time>2023-11-13T11:32:35Z</time>
      </trkpt>
      <trkpt lat="47.26641" lon="-1.66402">
        <ele>41</ele>
        <time>2023-11-13T11:32:45Z</time>
      </trkpt>
      <trkpt lat="47.2664" lon="-1.66381">
        <ele>41</ele>
        <time>2023-11-13T11:33:04Z</time>
      </trkpt>
      <trkpt lat="47.26633" lon="-1.66348">
        <ele>40</ele>
        <time>2023-11-13T11:33:35Z</time>
      </trkpt>
      <trkpt lat="47.26628" lon="-1.66332">
        <ele>40</ele>
        <time>2023-11-13T11:33:51Z</time>
      </trkpt>
      <trkpt lat="47.26622" lon="-1.66323">
        <ele>40</ele>
        <time>2023-11-13T11:34:03Z</time>
      </trkpt>
      <trkpt lat="47.26616" lon="-1.66295">
        <ele>40</ele>
        <time>2023-11-13T11:34:29Z</time>
      </trkpt>
      <trkpt lat="47.2661" lon="-1.66279">
        <ele>40</ele>
        <time>2023-11-13T11:34:46Z</time>
      </trkpt>
      <trkpt lat="47.26608" lon="-1.66251">
        <ele>40</ele>
        <time>2023-11-13T11:35:11Z</time>
      </trkpt>
      <trkpt lat="47.26622" lon="-1.66207">
        <ele>41</ele>
        <time>2023-11-13T11:35:55Z</time>
      </trkpt>
      <trkpt lat="47.2662" lon="-1.66178">
        <ele>41</ele>
        <time>2023-11-13T11:36:22Z</time>
      </trkpt>
      <trkpt lat="47.26633" lon="-1.6617">
        <ele>42</ele>
        <time>2023-11-13T11:36:41Z</time>
      </trkpt>
      <trkpt lat="47.26645" lon="-1.66152">
        <ele>43</ele>
        <time>2023-11-13T11:37:03Z</time>
      </trkpt>
      <trkpt lat="47.26638" lon="-1.6613">
        <ele>43</ele>
        <time>2023-11-13T11:37:25Z</time>
      </trkpt>
      <trkpt lat="47.26637" lon="-1.66102">
        <ele>44</ele>
        <time>2023-11-13T11:37:51Z</time>
      </trkpt>
      <trkpt lat="47.26627" lon="-1.66086">
        <ele>43</ele>
        <time>2023-11-13T11:38:11Z</time>
      </trkpt>
      <trkpt lat="47.26589" lon="-1.66056">
        <ele>40</ele>
        <time>2023-11-13T11:39:08Z</time>
      </trkpt>
      <trkpt lat="47.26543" lon="-1.66057">
        <ele>37</ele>
        <time>2023-11-13T11:40:09Z</time>
      </trkpt>
      <trkpt lat="47.26535" lon="-1.6605">
        <ele>36</ele>
        <time>2023-11-13T11:40:22Z</time>
      </trkpt>
      <trkpt lat="47.26523" lon="-1.66018">
        <ele>34</ele>
        <time>2023-11-13T11:40:55Z</time>
      </trkpt>
      <trkpt lat="47.26525" lon="-1.65958">
        <ele>34</ele>
        <time>2023-11-13T11:41:49Z</time>
      </trkpt>
      <trkpt lat="47.26517" lon="-1.65939">
        <ele>33</ele>
        <time>2023-11-13T11:42:10Z</time>
      </trkpt>
      <trkpt lat="47.26515" lon="-1.65896">
        <ele>34</ele>
        <time>2023-11-13T11:42:49Z</time>
      </trkpt>
      <trkpt lat="47.26522" lon="-1.6585">
        <ele>36</ele>
        <time>2023-11-13T11:43:31Z</time>
      </trkpt>
      <trkpt lat="47.26504" lon="-1.65769">
        <ele>42</ele>
        <time>2023-11-13T11:44:49Z</time>
      </trkpt>
      <trkpt lat="47.26515" lon="-1.65745">
        <ele>43</ele>
        <time>2023-11-13T11:45:15Z</time>
      </trkpt>
      <trkpt lat="47.26533" lon="-1.65731">
        <ele>43</ele>
        <time>2023-11-13T11:45:42Z</time>
      </trkpt>
      <trkpt lat="47.2656" lon="-1.6572">
        <ele>43</ele>
        <time>2023-11-13T11:46:19Z</time>
      </trkpt>
      <trkpt lat="47.26581" lon="-1.65715">
        <ele>43</ele>
        <time>2023-11-13T11:46:48Z</time>
      </trkpt>
      <trkpt lat="47.26585" lon="-1.65709">
        <ele>43</ele>
        <time>2023-11-13T11:46:55Z</time>
      </trkpt>
      <trkpt lat="47.26592" lon="-1.65644">
        <ele>45</ele>
        <time>2023-11-13T11:47:55Z</time>
      </trkpt>
      <trkpt lat="47.26591" lon="-1.65606">
        <ele>46</ele>
        <time>2023-11-13T11:48:29Z</time>
      </trkpt>
      <trkpt lat="47.26601" lon="-1.65602">
        <ele>46</ele>
        <time>2023-11-13T11:48:43Z</time>
      </trkpt>
      <trkpt lat="47.26634" lon="-1.65612">
        <ele>45</ele>
        <time>2023-11-13T11:49:28Z</time>
      </trkpt>
      <trkpt lat="47.26659" lon="-1.65622">
        <ele>44</ele>
        <time>2023-11-13T11:50:03Z</time>
      </trkpt>
      <trkpt lat="47.26664" lon="-1.65621">
        <ele>44</ele>
        <time>2023-11-13T11:50:09Z</time>
      </trkpt>
      <trkpt lat="47.26679" lon="-1.65624">
        <ele>43</ele>
        <time>2023-11-13T11:50:30Z</time>
      </trkpt>
      <trkpt lat="47.2669" lon="-1.6563">
        <ele>42</ele>
        <time>2023-11-13T11:50:45Z</time>
      </trkpt>
      <trkpt lat="47.26701" lon="-1.65622">
        <ele>41</ele>
        <time>2023-11-13T11:51:02Z</time>
      </trkpt>
      <trkpt lat="47.26727" lon="-1.6561">
        <ele>39</ele>
        <time>2023-11-13T11:51:38Z</time>
      </trkpt>
      <trkpt lat="47.26749" lon="-1.65587">
        <ele>37</ele>
        <time>2023-11-13T11:52:14Z</time>
      </trkpt>
      <trkpt lat="47.26776" lon="-1.65545">
        <ele>36</ele>
        <time>2023-11-13T11:53:06Z</time>
      </trkpt>
      <trkpt lat="47.26772" lon="-1.65529">
        <ele>37</ele>
        <time>2023-11-13T11:53:22Z</time>
      </trkpt>
      <trkpt lat="47.26769" lon="-1.65479">
        <ele>39</ele>
        <time>2023-11-13T11:54:07Z</time>
      </trkpt>
      <trkpt lat="47.2676" lon="-1.65448">
        <ele>40</ele>
        <time>2023-11-13T11:54:38Z</time>
      </trkpt>
      <trkpt lat="47.26762" lon="-1.65409">
        <ele>40</ele>
        <time>2023-11-13T11:55:13Z</time>
      </trkpt>
      <trkpt lat="47.26759" lon="-1.65382">
        <ele>39</ele>
        <time>2023-11-13T11:55:38Z</time>
      </trkpt>
      <trkpt lat="47.26742" lon="-1.6535">
        <ele>40</ele>
        <time>2023-11-13T11:56:15Z</time>
      </trkpt>
      <trkpt lat="47.26737" lon="-1.65345">
        <ele>41</ele>
        <time>2023-11-13T11:56:23Z</time>
      </trkpt>
      <trkpt lat="47.26744" lon="-1.65333">
        <ele>40</ele>
        <time>2023-11-13T11:56:37Z</time>
      </trkpt>
      <trkpt lat="47.26758" lon="-1.65328">
        <ele>38</ele>
        <time>2023-11-13T11:56:56Z</time>
      </trkpt>
      <trkpt lat="47.26767" lon="-1.6532">
        <ele>37</ele>
        <time>2023-11-13T11:57:10Z</time>
      </trkpt>
      <trkpt lat="47.26772" lon="-1.65285">
        <ele>37</ele>
        <time>2023-11-13T11:57:43Z</time>
      </trkpt>
      <trkpt lat="47.26771" lon="-1.65272">
        <ele>37</ele>
        <time>2023-11-13T11:57:55Z</time>
      </trkpt>
      <trkpt lat="47.26784" lon="-1.65254">
        <ele>36</ele>
        <time>2023-11-13T11:58:18Z</time>
      </trkpt>
      <trkpt lat="47.26785" lon="-1.65247">
        <ele>36</ele>
        <time>2023-11-13T11:58:25Z</time>
      </trkpt>
      <trkpt lat="47.26778" lon="-1.65211">
        <ele>38</ele>
        <time>2023-11-13T11:58:59Z</time>
      </trkpt>
      <trkpt lat="47.26792" lon="-1.65177">
        <ele>38</ele>
        <time>2023-11-13T11:59:35Z</time>
      </trkpt>
      <trkpt lat="47.2684" lon="-1.65106">
        <ele>35</ele>
        <time>2023-11-13T12:01:06Z</time>
      </trkpt>
      <trkpt lat="47.26852" lon="-1.65057">
        <ele>38</ele>
        <time>2023-11-13T12:01:53Z</time>
      </trkpt>
      <trkpt lat="47.26852" lon="-1.65038">
        <ele>38</ele>
        <time>2023-11-13T12:02:10Z</time>
      </trkpt>
      <trkpt lat="47.26862" lon="-1.65009">
        <ele>39</ele>
        <time>2023-11-13T12:02:39Z</time>
      </trkpt>
      <trkpt lat="47.26892" lon="-1.64953">
        <ele>39</ele>
        <time>2023-11-13T12:03:44Z</time>
      </trkpt>
      <trkpt lat="47.26899" lon="-1.6491">
        <ele>39</ele>
        <time>2023-11-13T12:04:24Z</time>
      </trkpt>
      <trkpt lat="47.26923" lon="-1.64839">
        <ele>39</ele>
        <time>2023-11-13T12:05:36Z</time>
      </trkpt>
      <trkpt lat="47.26926" lon="-1.64836">
        <ele>39</ele>
        <time>2023-11-13T12:05:41Z</time>
      </trkpt>
      <trkpt lat="47.26935" lon="-1.64822">
        <ele>39</ele>
        <time>2023-11-13T12:05:58Z</time>
      </trkpt>
      <trkpt lat="47.26945" lon="-1.64818">
        <ele>38</ele>
        <time>2023-11-13T12:06:12Z</time>
      </trkpt>
      <trkpt lat="47.26964" lon="-1.64817">
        <ele>37</ele>
        <time>2023-11-13T12:06:37Z</time>
      </trkpt>
      <trkpt lat="47.26972" lon="-1.64804">
        <ele>36</ele>
        <time>2023-11-13T12:06:53Z</time>
      </trkpt>
      <trkpt lat="47.26971" lon="-1.64799">
        <ele>36</ele>
        <time>2023-11-13T12:06:58Z</time>
      </trkpt>
      <trkpt lat="47.26981" lon="-1.64743">
        <ele>35</ele>
        <time>2023-11-13T12:07:50Z</time>
      </trkpt>
      <trkpt lat="47.26985" lon="-1.6469">
        <ele>36</ele>
        <time>2023-11-13T12:08:39Z</time>
      </trkpt>
      <trkpt lat="47.26995" lon="-1.64651">
        <ele>36</ele>
        <time>2023-11-13T12:09:17Z</time>
      </trkpt>
      <trkpt lat="47.26995" lon="-1.64637">
        <ele>36</ele>
        <time>2023-11-13T12:09:29Z</time>
      </trkpt>
      <trkpt lat="47.26995" lon="-1.6462">
        <ele>36</ele>
        <time>2023-11-13T12:09:45Z</time>
      </trkpt>
      <trkpt lat="47.26986" lon="-1.64568">
        <ele>38</ele>
        <time>2023-11-13T12:10:33Z</time>
      </trkpt>
      <trkpt lat="47.26986" lon="-1.6453">
        <ele>39</ele>
        <time>2023-11-13T12:11:08Z</time>
      </trkpt>
      <trkpt lat="47.27003" lon="-1.64485">
        <ele>38</ele>
        <time>2023-11-13T12:11:54Z</time>
      </trkpt>
      <trkpt lat="47.27" lon="-1.6448">
        <ele>38</ele>
        <time>2023-11-13T12:12:00Z</time>
      </trkpt>
      <trkpt lat="47.27001" lon="-1.64476">
        <ele>39</ele>
        <time>2023-11-13T12:12:04Z</time>
      </trkpt>
      <trkpt lat="47.27011" lon="-1.64454">
        <ele>39</ele>
        <time>2023-11-13T12:12:28Z</time>
      </trkpt>
      <trkpt lat="47.27028" lon="-1.64445">
        <ele>40</ele>
        <time>2023-11-13T12:12:52Z</time>
      </trkpt>
      <trkpt lat="47.27055" lon="-1.64483">
        <ele>40</ele>
        <time>2023-11-13T12:13:42Z</time>
      </trkpt>
      <trkpt lat="47.27078" lon="-1.64512">
        <ele>41</ele>
        <time>2023-11-13T12:14:22Z</time>
      </trkpt>
      <trkpt lat="47.27083" lon="-1.64521">
        <ele>40</ele>
        <time>2023-11-13T12:14:33Z</time>
      </trkpt>
      <trkpt lat="47.27096" lon="-1.64529">
        <ele>41</ele>
        <time>2023-11-13T12:14:52Z</time>
      </trkpt>
      <trkpt lat="47.2711" lon="-1.64547">
        <ele>41</ele>
        <time>2023-11-13T12:15:17Z</time>
      </trkpt>
      <trkpt lat="47.27149" lon="-1.64541">
        <ele>44</ele>
        <time>2023-11-13T12:16:09Z</time>
      </trkpt>
      <trkpt lat="47.27191" lon="-1.64535">
        <ele>46</ele>
        <time>2023-11-13T12:17:05Z</time>
      </trkpt>
      <trkpt lat="47.27212" lon="-1.64538">
        <ele>46</ele>
        <time>2023-11-13T12:17:33Z</time>
      </trkpt>
      <trkpt lat="47.27251" lon="-1.64534">
        <ele>48</ele>
        <time>2023-11-13T12:18:26Z</time>
      </trkpt>
      <trkpt lat="47.27299" lon="-1.64536">
        <ele>50</ele>
        <time>2023-11-13T12:19:30Z</time>
      </trkpt>
      <trkpt lat="47.27337" lon="-1.64534">
        <ele>51</ele>
        <time>2023-11-13T12:20:20Z</time>
      </trkpt>
      <trkpt lat="47.27396" lon="-1.645">
        <ele>53</ele>
        <time>2023-11-13T12:21:45Z</time>
      </trkpt>
      <trkpt lat="47.2742" lon="-1.64493">
        <ele>54</ele>
        <time>2023-11-13T12:22:18Z</time>
      </trkpt>
      <trkpt lat="47.27425" lon="-1.64495">
        <ele>54</ele>
        <time>2023-11-13T12:22:24Z</time>
      </trkpt>
      <trkpt lat="47.27447" lon="-1.64494">
        <ele>55</ele>
        <time>2023-11-13T12:22:54Z</time>
      </trkpt>
      <trkpt lat="47.27455" lon="-1.64493">
        <ele>56</ele>
        <time>2023-11-13T12:23:05Z</time>
      </trkpt>
      <trkpt lat="47.2747" lon="-1.64493">
        <ele>57</ele>
        <time>2023-11-13T12:23:25Z</time>
      </trkpt>
      <trkpt lat="47.27499" lon="-1.64482">
        <ele>58</ele>
        <time>2023-11-13T12:24:05Z</time>
      </trkpt>
      <trkpt lat="47.27519" lon="-1.64467">
        <ele>59</ele>
        <time>2023-11-13T12:24:34Z</time>
      </trkpt>
      <trkpt lat="47.27554" lon="-1.64452">
        <ele>60</ele>
        <time>2023-11-13T12:25:23Z</time>
      </trkpt>
      <trkpt lat="47.27558" lon="-1.64464">
        <ele>60</ele>
        <time>2023-11-13T12:25:35Z</time>
      </trkpt>
      <trkpt lat="47.27563" lon="-1.64497">
        <ele>60</ele>
        <time>2023-11-13T12:26:06Z</time>
      </trkpt>
      <trkpt lat="47.27566" lon="-1.64532">
        <ele>59</ele>
        <time>2023-11-13T12:26:38Z</time>
      </trkpt>
      <trkpt lat="47.27565" lon="-1.64535">
        <ele>59</ele>
        <time>2023-11-13T12:26:41Z</time>
      </trkpt>
      <trkpt lat="47.27563" lon="-1.64562">
        <ele>58</ele>
        <time>2023-11-13T12:27:05Z</time>
      </trkpt>
      <trkpt lat="47.27566" lon="-1.64588">
        <ele>58</ele>
        <time>2023-11-13T12:27:29Z</time>
      </trkpt>
      <trkpt lat="47.27559" lon="-1.64608">
        <ele>58</ele>
        <time>2023-11-13T12:27:50Z</time>
      </trkpt>
      <trkpt lat="47.27556" lon="-1.64636">
        <ele>58</ele>
        <time>2023-11-13T12:28:15Z</time>
      </trkpt>
      <trkpt lat="47.2755" lon="-1.64703">
        <ele>59</ele>
        <time>2023-11-13T12:29:16Z</time>
      </trkpt>
      <trkpt lat="47.2755" lon="-1.64722">
        <ele>60</ele>
        <time>2023-11-13T12:29:34Z</time>
      </trkpt>
      <trkpt lat="47.27546" lon="-1.64751">
        <ele>61</ele>
        <time>2023-11-13T12:30:00Z</time>
      </trkpt>
      <trkpt lat="47.27534" lon="-1.64794">
        <ele>61</ele>
        <time>2023-11-13T12:30:43Z</time>
      </trkpt>
      <trkpt lat="47.27529" lon="-1.64843">
        <ele>62</ele>
        <time>2023-11-13T12:31:27Z</time>
      </trkpt>
      <trkpt lat="47.27535" lon="-1.64902">
        <ele>62</ele>
        <time>2023-11-13T12:32:21Z</time>
      </trkpt>
      <trkpt lat="47.27535" lon="-1.64938">
        <ele>62</ele>
        <time>2023-11-13T12:32:54Z</time>
      </trkpt>
      <trkpt lat="47.27537" lon="-1.64951">
        <ele>62</ele>
        <time>2023-11-13T12:33:06Z</time>
      </trkpt>
      <trkpt lat="47.27536" lon="-1.64997">
        <ele>61</ele>
        <time>2023-11-13T12:33:48Z</time>
      </trkpt>
      <trkpt lat="47.27551" lon="-1.65083">
        <ele>61</ele>
        <time>2023-11-13T12:35:08Z</time>
      </trkpt>
      <trkpt lat="47.2755" lon="-1.65089">
        <ele>61</ele>
        <time>2023-11-13T12:35:14Z</time>
      </trkpt>
      <trkpt lat="47.27557" lon="-1.65112">
        <ele>62</ele>
        <time>2023-11-13T12:35:37Z</time>
      </trkpt>
      <trkpt lat="47.27577" lon="-1.65159">
        <ele>64</ele>
        <time>2023-11-13T12:36:27Z</time>
      </trkpt>
      <trkpt lat="47.27589" lon="-1.65197">
        <ele>64</ele>
        <time>2023-11-13T12:37:05Z</time>
      </trkpt>
      <trkpt lat="47.27603" lon="-1.65227">
        <ele>63</ele>
        <time>2023-11-13T12:37:38Z</time>
      </trkpt>
      <trkpt lat="47.27613" lon="-1.65244">
        <ele>62</ele>
        <time>2023-11-13T12:37:58Z</time>
      </trkpt>
      <trkpt lat="47.27626" lon="-1.65253">
        <ele>62</ele>
        <time>2023-11-13T12:38:17Z</time>
      </trkpt>
      <trkpt lat="47.27633" lon="-1.65252">
        <ele>62</ele>
        <time>2023-11-13T12:38:27Z</time>
      </trkpt>
      <trkpt lat="47.2764" lon="-1.6525">
        <ele>62</ele>
        <time>2023-11-13T12:38:36Z</time>
      </trkpt>
      <trkpt lat="47.27634" lon="-1.65253">
        <ele>62</ele>
        <time>2023-11-13T12:38:45Z</time>
      </trkpt>
      <trkpt lat="47.27632" lon="-1.65253">
        <ele>62</ele>
        <time>2023-11-13T12:38:47Z</time>
      </trkpt>
      <trkpt lat="47.27617" lon="-1.6524">
        <ele>62</ele>
        <time>2023-11-13T12:39:11Z</time>
      </trkpt>
      <trkpt lat="47.27607" lon="-1.65225">
        <ele>63</ele>
        <time>2023-11-13T12:39:30Z</time>
      </trkpt>
      <trkpt lat="47.2761" lon="-1.65233">
        <ele>62</ele>
        <time>2023-11-13T12:39:38Z</time>
      </trkpt>
      <trkpt lat="47.27617" lon="-1.65236">
        <ele>62</ele>
        <time>2023-11-13T12:39:48Z</time>
      </trkpt>
      <trkpt lat="47.27625" lon="-1.65258">
        <ele>62</ele>
        <time>2023-11-13T12:40:10Z</time>
      </trkpt>
      <trkpt lat="47.27645" lon="-1.65321">
        <ele>59</ele>
        <time>2023-11-13T12:41:13Z</time>
      </trkpt>
      <trkpt lat="47.27661" lon="-1.65345">
        <ele>58</ele>
        <time>2023-11-13T12:41:44Z</time>
      </trkpt>
      <trkpt lat="47.27689" lon="-1.65359">
        <ele>58</ele>
        <time>2023-11-13T12:42:23Z</time>
      </trkpt>
      <trkpt lat="47.27704" lon="-1.65418">
        <ele>58</ele>
        <time>2023-11-13T12:43:20Z</time>
      </trkpt>
      <trkpt lat="47.27721" lon="-1.65443">
        <ele>59</ele>
        <time>2023-11-13T12:43:52Z</time>
      </trkpt>
      <trkpt lat="47.27728" lon="-1.65449">
        <ele>60</ele>
        <time>2023-11-13T12:44:03Z</time>
      </trkpt>
      <trkpt lat="47.27745" lon="-1.65452">
        <ele>61</ele>
        <time>2023-11-13T12:44:26Z</time>
      </trkpt>
      <trkpt lat="47.27769" lon="-1.65451">
        <ele>61</ele>
        <time>2023-11-13T12:44:58Z</time>
      </trkpt>
      <trkpt lat="47.27803" lon="-1.65458">
        <ele>60</ele>
        <time>2023-11-13T12:45:44Z</time>
      </trkpt>
      <trkpt lat="47.2782" lon="-1.65456">
        <ele>60</ele>
        <time>2023-11-13T12:46:06Z</time>
      </trkpt>
      <trkpt lat="47.2784" lon="-1.65464">
        <ele>60</ele>
        <time>2023-11-13T12:46:34Z</time>
      </trkpt>
      <trkpt lat="47.27856" lon="-1.65466">
        <ele>60</ele>
        <time>2023-11-13T12:46:56Z</time>
      </trkpt>
      <trkpt lat="47.27879" lon="-1.65479">
        <ele>60</ele>
        <time>2023-11-13T12:47:28Z</time>
      </trkpt>
      <trkpt lat="47.279" lon="-1.65507">
        <ele>61</ele>
        <time>2023-11-13T12:48:06Z</time>
      </trkpt>
      <trkpt lat="47.27905" lon="-1.65525">
        <ele>61</ele>
        <time>2023-11-13T12:48:24Z</time>
      </trkpt>
      <trkpt lat="47.2791" lon="-1.65584">
        <ele>61</ele>
        <time>2023-11-13T12:49:18Z</time>
      </trkpt>
      <trkpt lat="47.27918" lon="-1.65638">
        <ele>62</ele>
        <time>2023-11-13T12:50:08Z</time>
      </trkpt>
      <trkpt lat="47.27919" lon="-1.65665">
        <ele>62</ele>
        <time>2023-11-13T12:50:32Z</time>
      </trkpt>
      <trkpt lat="47.27917" lon="-1.65688">
        <ele>62</ele>
        <time>2023-11-13T12:50:53Z</time>
      </trkpt>
      <trkpt lat="47.27915" lon="-1.65875">
        <ele>64</ele>
        <time>2023-11-13T12:53:42Z</time>
      </trkpt>
      <trkpt lat="47.27927" lon="-1.65951">
        <ele>65</ele>
        <time>2023-11-13T12:54:53Z</time>
      </trkpt>
      <trkpt lat="47.27925" lon="-1.6597">
        <ele>65</ele>
        <time>2023-11-13T12:55:10Z</time>
      </trkpt>
      <trkpt lat="47.27927" lon="-1.65975">
        <ele>65</ele>
        <time>2023-11-13T12:55:16Z</time>
      </trkpt>
      <trkpt lat="47.27923" lon="-1.6601">
        <ele>65</ele>
        <time>2023-11-13T12:55:48Z</time>
      </trkpt>
      <trkpt lat="47.27939" lon="-1.66053">
        <ele>65</ele>
        <time>2023-11-13T12:56:32Z</time>
      </trkpt>
      <trkpt lat="47.27942" lon="-1.66069">
        <ele>65</ele>
        <time>2023-11-13T12:56:47Z</time>
      </trkpt>
      <trkpt lat="47.27949" lon="-1.66084">
        <ele>65</ele>
        <time>2023-11-13T12:57:04Z</time>
      </trkpt>
      <trkpt lat="47.27955" lon="-1.6609">
        <ele>65</ele>
        <time>2023-11-13T12:57:13Z</time>
      </trkpt>
      <trkpt lat="47.27974" lon="-1.66093">
        <ele>64</ele>
        <time>2023-11-13T12:57:39Z</time>
      </trkpt>
      <trkpt lat="47.27988" lon="-1.66093">
        <ele>63</ele>
        <time>2023-11-13T12:57:58Z</time>
      </trkpt>
      <trkpt lat="47.28049" lon="-1.66086">
        <ele>63</ele>
        <time>2023-11-13T12:59:19Z</time>
      </trkpt>
      <trkpt lat="47.281" lon="-1.66086">
        <ele>63</ele>
        <time>2023-11-13T13:00:27Z</time>
      </trkpt>
      <trkpt lat="47.28125" lon="-1.66088">
        <ele>63</ele>
        <time>2023-11-13T13:01:01Z</time>
      </trkpt>
      <trkpt lat="47.2818" lon="-1.66334">
        <ele>62</ele>
        <time>2023-11-13T13:04:55Z</time>
      </trkpt>
      <trkpt lat="47.28183" lon="-1.66366">
        <ele>63</ele>
        <time>2023-11-13T13:05:24Z</time>
      </trkpt>
      <trkpt lat="47.2818" lon="-1.66378">
        <ele>63</ele>
        <time>2023-11-13T13:05:36Z</time>
      </trkpt>
      <trkpt lat="47.2817" lon="-1.66389">
        <ele>63</ele>
        <time>2023-11-13T13:05:53Z</time>
      </trkpt>
      <trkpt lat="47.28153" lon="-1.66401">
        <ele>63</ele>
        <time>2023-11-13T13:06:18Z</time>
      </trkpt>
      <trkpt lat="47.28148" lon="-1.66403">
        <ele>63</ele>
        <time>2023-11-13T13:06:25Z</time>
      </trkpt>
      <trkpt lat="47.28127" lon="-1.66423">
        <ele>62</ele>
        <time>2023-11-13T13:06:58Z</time>
      </trkpt>
      <trkpt lat="47.28081" lon="-1.66455">
        <ele>62</ele>
        <time>2023-11-13T13:08:06Z</time>
      </trkpt>
      <trkpt lat="47.28034" lon="-1.66481">
        <ele>63</ele>
        <time>2023-11-13T13:09:13Z</time>
      </trkpt>
      <trkpt lat="47.27998" lon="-1.66498">
        <ele>64</ele>
        <time>2023-11-13T13:10:03Z</time>
      </trkpt>
      <trkpt lat="47.27994" lon="-1.66502">
        <ele>64</ele>
        <time>2023-11-13T13:10:10Z</time>
      </trkpt>
      <trkpt lat="47.27996" lon="-1.66512">
        <ele>64</ele>
        <time>2023-11-13T13:10:19Z</time>
      </trkpt>
      <trkpt lat="47.28044" lon="-1.66575">
        <ele>63</ele>
        <time>2023-11-13T13:11:45Z</time>
      </trkpt>
      <trkpt lat="47.28061" lon="-1.66591">
        <ele>62</ele>
        <time>2023-11-13T13:12:12Z</time>
      </trkpt>
      <trkpt lat="47.28087" lon="-1.66627">
        <ele>62</ele>
        <time>2023-11-13T13:13:00Z</time>
      </trkpt>
      <trkpt lat="47.28093" lon="-1.66644">
        <ele>63</ele>
        <time>2023-11-13T13:13:17Z</time>
      </trkpt>
      <trkpt lat="47.28093" lon="-1.66669">
        <ele>63</ele>
        <time>2023-11-13T13:13:40Z</time>
      </trkpt>
      <trkpt lat="47.28085" lon="-1.66701">
        <ele>63</ele>
        <time>2023-11-13T13:14:11Z</time>
      </trkpt>
      <trkpt lat="47.28071" lon="-1.66818">
        <ele>62</ele>
        <time>2023-11-13T13:15:58Z</time>
      </trkpt>
      <trkpt lat="47.28062" lon="-1.66867">
        <ele>62</ele>
        <time>2023-11-13T13:16:44Z</time>
      </trkpt>
      <trkpt lat="47.28061" lon="-1.66883">
        <ele>62</ele>
        <time>2023-11-13T13:16:59Z</time>
      </trkpt>
      <trkpt lat="47.28041" lon="-1.66988">
        <ele>62</ele>
        <time>2023-11-13T13:18:37Z</time>
      </trkpt>
      <trkpt lat="47.2802" lon="-1.67085">
        <ele>63</ele>
        <time>2023-11-13T13:20:09Z</time>
      </trkpt>
      <trkpt lat="47.28" lon="-1.67146">
        <ele>62</ele>
        <time>2023-11-13T13:21:11Z</time>
      </trkpt>
      <trkpt lat="47.27978" lon="-1.67233">
        <ele>62</ele>
        <time>2023-11-13T13:22:35Z</time>
      </trkpt>
      <trkpt lat="47.27961" lon="-1.6728">
        <ele>62</ele>
        <time>2023-11-13T13:23:23Z</time>
      </trkpt>
      <trkpt lat="47.2793" lon="-1.67391">
        <ele>62</ele>
        <time>2023-11-13T13:25:12Z</time>
      </trkpt>
      <trkpt lat="47.2792" lon="-1.6742">
        <ele>62</ele>
        <time>2023-11-13T13:25:41Z</time>
      </trkpt>
      <trkpt lat="47.27922" lon="-1.67431">
        <ele>61</ele>
        <time>2023-11-13T13:25:52Z</time>
      </trkpt>
      <trkpt lat="47.27927" lon="-1.67433">
        <ele>61</ele>
        <time>2023-11-13T13:25:58Z</time>
      </trkpt>
      <trkpt lat="47.27937" lon="-1.67441">
        <ele>60</ele>
        <time>2023-11-13T13:26:14Z</time>
      </trkpt>
      <trkpt lat="47.27964" lon="-1.67447">
        <ele>60</ele>
        <time>2023-11-13T13:26:50Z</time>
      </trkpt>
      <trkpt lat="47.28007" lon="-1.67473">
        <ele>59</ele>
        <time>2023-11-13T13:27:52Z</time>
      </trkpt>
      <trkpt lat="47.28009" lon="-1.67516">
        <ele>58</ele>
        <time>2023-11-13T13:28:31Z</time>
      </trkpt>
      <trkpt lat="47.28006" lon="-1.67539">
        <ele>59</ele>
        <time>2023-11-13T13:28:52Z</time>
      </trkpt>
      <trkpt lat="47.27993" lon="-1.67713">
        <ele>58</ele>
        <time>2023-11-13T13:31:31Z</time>
      </trkpt>
      <trkpt lat="47.27977" lon="-1.67745">
        <ele>57</ele>
        <time>2023-11-13T13:32:07Z</time>
      </trkpt>
      <trkpt lat="47.27929" lon="-1.6775">
        <ele>57</ele>
        <time>2023-11-13T13:33:11Z</time>
      </trkpt>
      <trkpt lat="47.27873" lon="-1.67778">
        <ele>59</ele>
        <time>2023-11-13T13:34:30Z</time>
      </trkpt>
      <trkpt lat="47.27849" lon="-1.67771">
        <ele>60</ele>
        <time>2023-11-13T13:35:03Z</time>
      </trkpt>
      <trkpt lat="47.27824" lon="-1.67773">
        <ele>61</ele>
        <time>2023-11-13T13:35:36Z</time>
      </trkpt>
      <trkpt lat="47.2781" lon="-1.6778">
        <ele>61</ele>
        <time>2023-11-13T13:35:56Z</time>
      </trkpt>
      <trkpt lat="47.27791" lon="-1.67807">
        <ele>60</ele>
        <time>2023-11-13T13:36:31Z</time>
      </trkpt>
      <trkpt lat="47.27761" lon="-1.67836">
        <ele>60</ele>
        <time>2023-11-13T13:37:19Z</time>
      </trkpt>
      <trkpt lat="47.27707" lon="-1.67905">
        <ele>60</ele>
        <time>2023-11-13T13:38:54Z</time>
      </trkpt>
      <trkpt lat="47.27636" lon="-1.68017">
        <ele>62</ele>
        <time>2023-11-13T13:41:13Z</time>
      </trkpt>
      <trkpt lat="47.27625" lon="-1.68046">
        <ele>61</ele>
        <time>2023-11-13T13:41:43Z</time>
      </trkpt>
      <trkpt lat="47.27623" lon="-1.68029">
        <ele>62</ele>
        <time>2023-11-13T13:41:59Z</time>
      </trkpt>
      <trkpt lat="47.27576" lon="-1.68022">
        <ele>62</ele>
        <time>2023-11-13T13:43:02Z</time>
      </trkpt>
      <trkpt lat="47.27562" lon="-1.68023">
        <ele>62</ele>
        <time>2023-11-13T13:43:20Z</time>
      </trkpt>
      <trkpt lat="47.27552" lon="-1.68041">
        <ele>62</ele>
        <time>2023-11-13T13:43:41Z</time>
      </trkpt>
      <trkpt lat="47.27538" lon="-1.68043">
        <ele>62</ele>
        <time>2023-11-13T13:44:00Z</time>
      </trkpt>
      <trkpt lat="47.27529" lon="-1.68075">
        <ele>61</ele>
        <time>2023-11-13T13:44:32Z</time>
      </trkpt>
      <trkpt lat="47.27518" lon="-1.6814">
        <ele>60</ele>
        <time>2023-11-13T13:45:32Z</time>
      </trkpt>
      <trkpt lat="47.27509" lon="-1.68213">
        <ele>60</ele>
        <time>2023-11-13T13:46:39Z</time>
      </trkpt>
      <trkpt lat="47.27507" lon="-1.68247">
        <ele>59</ele>
        <time>2023-11-13T13:47:10Z</time>
      </trkpt>
      <trkpt lat="47.2751" lon="-1.68288">
        <ele>58</ele>
        <time>2023-11-13T13:47:48Z</time>
      </trkpt>
      <trkpt lat="47.27505" lon="-1.68347">
        <ele>57</ele>
        <time>2023-11-13T13:48:41Z</time>
      </trkpt>
      <trkpt lat="47.27498" lon="-1.68361">
        <ele>56</ele>
        <time>2023-11-13T13:48:57Z</time>
      </trkpt>
      <trkpt lat="47.27496" lon="-1.68368">
        <ele>55</ele>
        <time>2023-11-13T13:49:04Z</time>
      </trkpt>
      <trkpt lat="47.27489" lon="-1.68377">
        <ele>54</ele>
        <time>2023-11-13T13:49:16Z</time>
      </trkpt>
      <trkpt lat="47.27464" lon="-1.68413">
        <ele>49</ele>
        <time>2023-11-13T13:50:03Z</time>
      </trkpt>
      <trkpt lat="47.27472" lon="-1.68435">
        <ele>49</ele>
        <time>2023-11-13T13:50:26Z</time>
      </trkpt>
      <trkpt lat="47.2747" lon="-1.68457">
        <ele>48</ele>
        <time>2023-11-13T13:50:46Z</time>
      </trkpt>
      <trkpt lat="47.27471" lon="-1.68488">
        <ele>48</ele>
        <time>2023-11-13T13:51:14Z</time>
      </trkpt>
      <trkpt lat="47.27463" lon="-1.68503">
        <ele>47</ele>
        <time>2023-11-13T13:51:31Z</time>
      </trkpt>
      <trkpt lat="47.27454" lon="-1.68509">
        <ele>46</ele>
        <time>2023-11-13T13:51:44Z</time>
      </trkpt>
      <trkpt lat="47.27445" lon="-1.68522">
        <ele>46</ele>
        <time>2023-11-13T13:52:01Z</time>
      </trkpt>
      <trkpt lat="47.27454" lon="-1.68532">
        <ele>48</ele>
        <time>2023-11-13T13:52:16Z</time>
      </trkpt>
      <trkpt lat="47.27432" lon="-1.68555">
        <ele>49</ele>
        <time>2023-11-13T13:52:52Z</time>
      </trkpt>
      <trkpt lat="47.27423" lon="-1.68568">
        <ele>50</ele>
        <time>2023-11-13T13:53:09Z</time>
      </trkpt>
      <trkpt lat="47.2741" lon="-1.6857">
        <ele>50</ele>
        <time>2023-11-13T13:53:26Z</time>
      </trkpt>
      <trkpt lat="47.274" lon="-1.68582">
        <ele>51</ele>
        <time>2023-11-13T13:53:44Z</time>
      </trkpt>
      <trkpt lat="47.27396" lon="-1.68597">
        <ele>52</ele>
        <time>2023-11-13T13:53:58Z</time>
      </trkpt>
      <trkpt lat="47.27376" lon="-1.6862">
        <ele>53</ele>
        <time>2023-11-13T13:54:32Z</time>
      </trkpt>
      <trkpt lat="47.27337" lon="-1.6868">
        <ele>55</ele>
        <time>2023-11-13T13:55:47Z</time>
      </trkpt>
      <trkpt lat="47.27318" lon="-1.68701">
        <ele>57</ele>
        <time>2023-11-13T13:56:19Z</time>
      </trkpt>
      <trkpt lat="47.27297" lon="-1.68712">
        <ele>58</ele>
        <time>2023-11-13T13:56:49Z</time>
      </trkpt>
      <trkpt lat="47.27276" lon="-1.68725">
        <ele>59</ele>
        <time>2023-11-13T13:57:19Z</time>
      </trkpt>
      <trkpt lat="47.27258" lon="-1.68742">
        <ele>61</ele>
        <time>2023-11-13T13:57:48Z</time>
      </trkpt>
      <trkpt lat="47.2722" lon="-1.68791">
        <ele>64</ele>
        <time>2023-11-13T13:58:55Z</time>
      </trkpt>
      <trkpt lat="47.27202" lon="-1.68823">
        <ele>65</ele>
        <time>2023-11-13T13:59:33Z</time>
      </trkpt>
      <trkpt lat="47.27195" lon="-1.68828">
        <ele>66</ele>
        <time>2023-11-13T13:59:43Z</time>
      </trkpt>
      <trkpt lat="47.27182" lon="-1.68852">
        <ele>67</ele>
        <time>2023-11-13T14:00:11Z</time>
      </trkpt>
      <trkpt lat="47.27175" lon="-1.6887">
        <ele>67</ele>
        <time>2023-11-13T14:00:30Z</time>
      </trkpt>
      <trkpt lat="47.2716" lon="-1.6886">
        <ele>67</ele>
        <time>2023-11-13T14:00:52Z</time>
      </trkpt>
      <trkpt lat="47.27132" lon="-1.68824">
        <ele>67</ele>
        <time>2023-11-13T14:01:41Z</time>
      </trkpt>
      <trkpt lat="47.27081" lon="-1.68776">
        <ele>66</ele>
        <time>2023-11-13T14:03:02Z</time>
      </trkpt>
      <trkpt lat="47.27091" lon="-1.68751">
        <ele>66</ele>
        <time>2023-11-13T14:03:28Z</time>
      </trkpt>
      <trkpt lat="47.27107" lon="-1.68732">
        <ele>66</ele>
        <time>2023-11-13T14:03:56Z</time>
      </trkpt>
      <trkpt lat="47.27115" lon="-1.68699">
        <ele>65</ele>
        <time>2023-11-13T14:04:27Z</time>
      </trkpt>
      <trkpt lat="47.27099" lon="-1.68673">
        <ele>65</ele>
        <time>2023-11-13T14:04:59Z</time>
      </trkpt>
      <trkpt lat="47.27094" lon="-1.68658">
        <ele>65</ele>
        <time>2023-11-13T14:05:14Z</time>
      </trkpt>
      <trkpt lat="47.27085" lon="-1.68651">
        <ele>65</ele>
        <time>2023-11-13T14:05:28Z</time>
      </trkpt>
      <trkpt lat="47.27072" lon="-1.68631">
        <ele>65</ele>
        <time>2023-11-13T14:05:53Z</time>
      </trkpt>
      <trkpt lat="47.27079" lon="-1.68606">
        <ele>64</ele>
        <time>2023-11-13T14:06:18Z</time>
      </trkpt>
      <trkpt lat="47.27103" lon="-1.68556">
        <ele>61</ele>
        <time>2023-11-13T14:07:13Z</time>
      </trkpt>
      <trkpt lat="47.27101" lon="-1.68521">
        <ele>59</ele>
        <time>2023-11-13T14:07:45Z</time>
      </trkpt>
      <trkpt lat="47.27119" lon="-1.68509">
        <ele>58</ele>
        <time>2023-11-13T14:08:11Z</time>
      </trkpt>
      <trkpt lat="47.27135" lon="-1.68506">
        <ele>58</ele>
        <time>2023-11-13T14:08:33Z</time>
      </trkpt>
      <trkpt lat="47.27151" lon="-1.68499">
        <ele>57</ele>
        <time>2023-11-13T14:08:55Z</time>
      </trkpt>
      <trkpt lat="47.27162" lon="-1.685">
        <ele>57</ele>
        <time>2023-11-13T14:09:10Z</time>
      </trkpt>
      <trkpt lat="47.27176" lon="-1.68491">
        <ele>56</ele>
        <time>2023-11-13T14:09:30Z</time>
      </trkpt>
      <trkpt lat="47.27189" lon="-1.68477">
        <ele>56</ele>
        <time>2023-11-13T14:09:52Z</time>
      </trkpt>
      <trkpt lat="47.27217" lon="-1.6843">
        <ele>55</ele>
        <time>2023-11-13T14:10:48Z</time>
      </trkpt>
      <trkpt lat="47.27202" lon="-1.6841">
        <ele>54</ele>
        <time>2023-11-13T14:11:15Z</time>
      </trkpt>
      <trkpt lat="47.27197" lon="-1.68407">
        <ele>54</ele>
        <time>2023-11-13T14:11:22Z</time>
      </trkpt>
      <trkpt lat="47.27179" lon="-1.68362">
        <ele>52</ele>
        <time>2023-11-13T14:12:10Z</time>
      </trkpt>
      <trkpt lat="47.27177" lon="-1.68352">
        <ele>51</ele>
        <time>2023-11-13T14:12:19Z</time>
      </trkpt>
      <trkpt lat="47.2716" lon="-1.68313">
        <ele>49</ele>
        <time>2023-11-13T14:13:01Z</time>
      </trkpt>
      <trkpt lat="47.27146" lon="-1.68271">
        <ele>47</ele>
        <time>2023-11-13T14:13:43Z</time>
      </trkpt>
      <trkpt lat="47.27135" lon="-1.6825">
        <ele>46</ele>
        <time>2023-11-13T14:14:07Z</time>
      </trkpt>
      <trkpt lat="47.27131" lon="-1.68249">
        <ele>46</ele>
        <time>2023-11-13T14:14:13Z</time>
      </trkpt>
      <trkpt lat="47.2711" lon="-1.68221">
        <ele>46</ele>
        <time>2023-11-13T14:14:51Z</time>
      </trkpt>
      <trkpt lat="47.2709" lon="-1.68197">
        <ele>46</ele>
        <time>2023-11-13T14:15:25Z</time>
      </trkpt>
      <trkpt lat="47.27087" lon="-1.6819">
        <ele>46</ele>
        <time>2023-11-13T14:15:33Z</time>
      </trkpt>
      <trkpt lat="47.27076" lon="-1.68176">
        <ele>47</ele>
        <time>2023-11-13T14:15:52Z</time>
      </trkpt>
      <trkpt lat="47.27086" lon="-1.6815">
        <ele>45</ele>
        <time>2023-11-13T14:16:19Z</time>
      </trkpt>
      <trkpt lat="47.27089" lon="-1.6813">
        <ele>44</ele>
        <time>2023-11-13T14:16:38Z</time>
      </trkpt>
      <trkpt lat="47.27083" lon="-1.68112">
        <ele>43</ele>
        <time>2023-11-13T14:16:56Z</time>
      </trkpt>
      <trkpt lat="47.27076" lon="-1.68105">
        <ele>45</ele>
        <time>2023-11-13T14:17:07Z</time>
      </trkpt>
      <trkpt lat="47.27064" lon="-1.68084">
        <ele>46</ele>
        <time>2023-11-13T14:17:32Z</time>
      </trkpt>
      <trkpt lat="47.2704" lon="-1.68029">
        <ele>51</ele>
        <time>2023-11-13T14:18:31Z</time>
      </trkpt>
      <trkpt lat="47.27047" lon="-1.67976">
        <ele>49</ele>
        <time>2023-11-13T14:19:20Z</time>
      </trkpt>
      <trkpt lat="47.27046" lon="-1.67948">
        <ele>50</ele>
        <time>2023-11-13T14:19:45Z</time>
      </trkpt>
      <trkpt lat="47.27057" lon="-1.67926">
        <ele>48</ele>
        <time>2023-11-13T14:20:10Z</time>
      </trkpt>
      <trkpt lat="47.27068" lon="-1.67888">
        <ele>47</ele>
        <time>2023-11-13T14:20:48Z</time>
      </trkpt>
      <trkpt lat="47.2708" lon="-1.67862">
        <ele>45</ele>
        <time>2023-11-13T14:21:16Z</time>
      </trkpt>
      <trkpt lat="47.27084" lon="-1.67834">
        <ele>45</ele>
        <time>2023-11-13T14:21:42Z</time>
      </trkpt>
      <trkpt lat="47.27099" lon="-1.67787">
        <ele>47</ele>
        <time>2023-11-13T14:22:29Z</time>
      </trkpt>
      <trkpt lat="47.271" lon="-1.67762">
        <ele>48</ele>
        <time>2023-11-13T14:22:52Z</time>
      </trkpt>
      <trkpt lat="47.2712" lon="-1.67709">
        <ele>47</ele>
        <time>2023-11-13T14:23:47Z</time>
      </trkpt>
      <trkpt lat="47.27113" lon="-1.6764">
        <ele>47</ele>
        <time>2023-11-13T14:24:50Z</time>
      </trkpt>
      <trkpt lat="47.27106" lon="-1.67625">
        <ele>46</ele>
        <time>2023-11-13T14:25:06Z</time>
      </trkpt>
      <trkpt lat="47.27104" lon="-1.6761">
        <ele>45</ele>
        <time>2023-11-13T14:25:20Z</time>
      </trkpt>
      <trkpt lat="47.2708" lon="-1.6754">
        <ele>43</ele>
        <time>2023-11-13T14:26:31Z</time>
      </trkpt>
      <trkpt lat="47.27084" lon="-1.67524">
        <ele>42</ele>
        <time>2023-11-13T14:26:46Z</time>
      </trkpt>
      <trkpt lat="47.2708" lon="-1.67502">
        <ele>41</ele>
        <time>2023-11-13T14:27:07Z</time>
      </trkpt>
      <trkpt lat="47.2708" lon="-1.67477">
        <ele>41</ele>
        <time>2023-11-13T14:27:30Z</time>
      </trkpt>
      <trkpt lat="47.27082" lon="-1.67472">
        <ele>41</ele>
        <time>2023-11-13T14:27:35Z</time>
      </trkpt>
      <trkpt lat="47.27082" lon="-1.6744">
        <ele>41</ele>
        <time>2023-11-13T14:28:04Z</time>
      </trkpt>
      <trkpt lat="47.27078" lon="-1.67427">
        <ele>41</ele>
        <time>2023-11-13T14:28:17Z</time>
      </trkpt>
      <trkpt lat="47.2708" lon="-1.67365">
        <ele>39</ele>
        <time>2023-11-13T14:29:13Z</time>
      </trkpt>
      <trkpt lat="47.27083" lon="-1.67358">
        <ele>39</ele>
        <time>2023-11-13T14:29:21Z</time>
      </trkpt>
      <trkpt lat="47.27092" lon="-1.6735">
        <ele>39</ele>
        <time>2023-11-13T14:29:35Z</time>
      </trkpt>
      <trkpt lat="47.27115" lon="-1.6736">
        <ele>41</ele>
        <time>2023-11-13T14:30:07Z</time>
      </trkpt>
      <trkpt lat="47.27122" lon="-1.67354">
        <ele>41</ele>
        <time>2023-11-13T14:30:17Z</time>
      </trkpt>
      <trkpt lat="47.27128" lon="-1.6733">
        <ele>41</ele>
        <time>2023-11-13T14:30:41Z</time>
      </trkpt>
      <trkpt lat="47.27143" lon="-1.6729">
        <ele>43</ele>
        <time>2023-11-13T14:31:22Z</time>
      </trkpt>
      <trkpt lat="47.27142" lon="-1.67262">
        <ele>44</ele>
        <time>2023-11-13T14:31:47Z</time>
      </trkpt>
      <trkpt lat="47.27141" lon="-1.67259">
        <ele>44</ele>
        <time>2023-11-13T14:31:50Z</time>
      </trkpt>
      <trkpt lat="47.27134" lon="-1.67226">
        <ele>46</ele>
        <time>2023-11-13T14:32:22Z</time>
      </trkpt>
      <trkpt lat="47.27116" lon="-1.67197">
        <ele>47</ele>
        <time>2023-11-13T14:32:57Z</time>
      </trkpt>
      <trkpt lat="47.27101" lon="-1.67181">
        <ele>47</ele>
        <time>2023-11-13T14:33:22Z</time>
      </trkpt>
      <trkpt lat="47.27082" lon="-1.67179">
        <ele>45</ele>
        <time>2023-11-13T14:33:47Z</time>
      </trkpt>
      <trkpt lat="47.27067" lon="-1.67171">
        <ele>46</ele>
        <time>2023-11-13T14:34:09Z</time>
      </trkpt>
      <trkpt lat="47.27009" lon="-1.6717">
        <ele>42</ele>
        <time>2023-11-13T14:35:26Z</time>
      </trkpt>
      <trkpt lat="47.26995" lon="-1.67177">
        <ele>41</ele>
        <time>2023-11-13T14:35:46Z</time>
      </trkpt>
      <trkpt lat="47.26958" lon="-1.67184">
        <ele>41</ele>
        <time>2023-11-13T14:36:36Z</time>
      </trkpt>
      <trkpt lat="47.26928" lon="-1.67194">
        <ele>41</ele>
        <time>2023-11-13T14:37:17Z</time>
      </trkpt>
      <trkpt lat="47.26901" lon="-1.67193">
        <ele>41</ele>
        <time>2023-11-13T14:37:53Z</time>
      </trkpt>
      <trkpt lat="47.26868" lon="-1.67164">
        <ele>40</ele>
        <time>2023-11-13T14:38:44Z</time>
      </trkpt>
      <trkpt lat="47.26858" lon="-1.67148">
        <ele>40</ele>
        <time>2023-11-13T14:39:04Z</time>
      </trkpt>
      <trkpt lat="47.26833" lon="-1.67141">
        <ele>40</ele>
        <time>2023-11-13T14:39:38Z</time>
      </trkpt>
      <trkpt lat="47.26802" lon="-1.67141">
        <ele>42</ele>
        <time>2023-11-13T14:40:19Z</time>
      </trkpt>
      <trkpt lat="47.26793" lon="-1.67133">
        <ele>43</ele>
        <time>2023-11-13T14:40:33Z</time>
      </trkpt>
      <trkpt lat="47.26805" lon="-1.67124">
        <ele>43</ele>
        <time>2023-11-13T14:40:51Z</time>
      </trkpt>
    </trkseg>
  </trk>
  <trk>
    <name><![CDATA[Sautron_HubonniereGouletsLandes_8.5km-6691475]]></name>
    <extensions>
      <line xmlns="http://www.topografix.com/GPX/gpx_style/0/2">
        <color>00FF00</color>
        <width>4</width>
      </line>
    </extensions>
    <trkseg>
      <trkpt lat="47.2685" lon="-1.6714">
        <ele>40</ele>
        <time>2023-11-13T11:15:16Z</time>
      </trkpt>
      <trkpt lat="47.26894" lon="-1.67141">
        <ele>41</ele>
        <time>2023-11-13T11:16:15Z</time>
      </trkpt>
      <trkpt lat="47.26931" lon="-1.66912">
        <ele>43</ele>
        <time>2023-11-13T11:19:48Z</time>
      </trkpt>
      <trkpt lat="47.26905" lon="-1.66814">
        <ele>42</ele>
        <time>2023-11-13T11:21:23Z</time>
      </trkpt>
      <trkpt lat="47.26828" lon="-1.66751">
        <ele>39</ele>
        <time>2023-11-13T11:23:21Z</time>
      </trkpt>
      <trkpt lat="47.26757" lon="-1.66601">
        <ele>42</ele>
        <time>2023-11-13T11:26:06Z</time>
      </trkpt>
      <trkpt lat="47.26745" lon="-1.666">
        <ele>42</ele>
        <time>2023-11-13T11:26:22Z</time>
      </trkpt>
      <trkpt lat="47.2672" lon="-1.66622">
        <ele>45</ele>
        <time>2023-11-13T11:27:01Z</time>
      </trkpt>
      <trkpt lat="47.26691" lon="-1.66594">
        <ele>46</ele>
        <time>2023-11-13T11:27:47Z</time>
      </trkpt>
      <trkpt lat="47.2667" lon="-1.66546">
        <ele>46</ele>
        <time>2023-11-13T11:28:39Z</time>
      </trkpt>
      <trkpt lat="47.26673" lon="-1.66533">
        <ele>45</ele>
        <time>2023-11-13T11:28:52Z</time>
      </trkpt>
      <trkpt lat="47.26602" lon="-1.66244">
        <ele>40</ele>
        <time>2023-11-13T11:33:30Z</time>
      </trkpt>
      <trkpt lat="47.26623" lon="-1.66167">
        <ele>41</ele>
        <time>2023-11-13T11:34:45Z</time>
      </trkpt>
      <trkpt lat="47.26651" lon="-1.66132">
        <ele>44</ele>
        <time>2023-11-13T11:35:34Z</time>
      </trkpt>
      <trkpt lat="47.26618" lon="-1.66063">
        <ele>43</ele>
        <time>2023-11-13T11:36:51Z</time>
      </trkpt>
      <trkpt lat="47.26539" lon="-1.66046">
        <ele>36</ele>
        <time>2023-11-13T11:38:37Z</time>
      </trkpt>
      <trkpt lat="47.26518" lon="-1.65964">
        <ele>33</ele>
        <time>2023-11-13T11:39:56Z</time>
      </trkpt>
      <trkpt lat="47.26519" lon="-1.65858">
        <ele>36</ele>
        <time>2023-11-13T11:41:32Z</time>
      </trkpt>
      <trkpt lat="47.26495" lon="-1.65798">
        <ele>40</ele>
        <time>2023-11-13T11:42:36Z</time>
      </trkpt>
      <trkpt lat="47.26513" lon="-1.65725">
        <ele>44</ele>
        <time>2023-11-13T11:43:46Z</time>
      </trkpt>
      <trkpt lat="47.26586" lon="-1.65701">
        <ele>43</ele>
        <time>2023-11-13T11:45:26Z</time>
      </trkpt>
      <trkpt lat="47.26586" lon="-1.65602">
        <ele>46</ele>
        <time>2023-11-13T11:46:55Z</time>
      </trkpt>
      <trkpt lat="47.26631" lon="-1.65601">
        <ele>46</ele>
        <time>2023-11-13T11:47:55Z</time>
      </trkpt>
      <trkpt lat="47.26678" lon="-1.65613">
        <ele>43</ele>
        <time>2023-11-13T11:48:59Z</time>
      </trkpt>
      <trkpt lat="47.2673" lon="-1.65607">
        <ele>38</ele>
        <time>2023-11-13T11:50:09Z</time>
      </trkpt>
      <trkpt lat="47.26765" lon="-1.65558">
        <ele>37</ele>
        <time>2023-11-13T11:51:13Z</time>
      </trkpt>
      <trkpt lat="47.26844" lon="-1.65528">
        <ele>32</ele>
        <time>2023-11-13T11:53:02Z</time>
      </trkpt>
      <trkpt lat="47.26887" lon="-1.65592">
        <ele>37</ele>
        <time>2023-11-13T11:54:23Z</time>
      </trkpt>
      <trkpt lat="47.2695" lon="-1.6561">
        <ele>43</ele>
        <time>2023-11-13T11:55:49Z</time>
      </trkpt>
      <trkpt lat="47.27046" lon="-1.65647">
        <ele>48</ele>
        <time>2023-11-13T11:58:02Z</time>
      </trkpt>
      <trkpt lat="47.27109" lon="-1.65633">
        <ele>50</ele>
        <time>2023-11-13T11:59:27Z</time>
      </trkpt>
      <trkpt lat="47.27224" lon="-1.65631">
        <ele>53</ele>
        <time>2023-11-13T12:02:00Z</time>
      </trkpt>
      <trkpt lat="47.27289" lon="-1.65689">
        <ele>54</ele>
        <time>2023-11-13T12:03:41Z</time>
      </trkpt>
      <trkpt lat="47.27378" lon="-1.65844">
        <ele>59</ele>
        <time>2023-11-13T12:06:45Z</time>
      </trkpt>
      <trkpt lat="47.27458" lon="-1.65935">
        <ele>65</ele>
        <time>2023-11-13T12:09:00Z</time>
      </trkpt>
      <trkpt lat="47.27518" lon="-1.65893">
        <ele>66</ele>
        <time>2023-11-13T12:10:29Z</time>
      </trkpt>
      <trkpt lat="47.27609" lon="-1.65849">
        <ele>65</ele>
        <time>2023-11-13T12:12:37Z</time>
      </trkpt>
      <trkpt lat="47.27699" lon="-1.65892">
        <ele>65</ele>
        <time>2023-11-13T12:14:43Z</time>
      </trkpt>
      <trkpt lat="47.27818" lon="-1.6595">
        <ele>65</ele>
        <time>2023-11-13T12:17:30Z</time>
      </trkpt>
      <trkpt lat="47.27924" lon="-1.66007">
        <ele>65</ele>
        <time>2023-11-13T12:20:01Z</time>
      </trkpt>
      <trkpt lat="47.27952" lon="-1.66085">
        <ele>65</ele>
        <time>2023-11-13T12:21:21Z</time>
      </trkpt>
      <trkpt lat="47.28128" lon="-1.66084">
        <ele>64</ele>
        <time>2023-11-13T12:25:15Z</time>
      </trkpt>
      <trkpt lat="47.28186" lon="-1.66382">
        <ele>63</ele>
        <time>2023-11-13T12:29:56Z</time>
      </trkpt>
      <trkpt lat="47.27989" lon="-1.66504">
        <ele>64</ele>
        <time>2023-11-13T12:34:41Z</time>
      </trkpt>
      <trkpt lat="47.28098" lon="-1.66648">
        <ele>62</ele>
        <time>2023-11-13T12:37:57Z</time>
      </trkpt>
      <trkpt lat="47.2804" lon="-1.66937">
        <ele>62</ele>
        <time>2023-11-13T12:42:29Z</time>
      </trkpt>
      <trkpt lat="47.2799" lon="-1.67176">
        <ele>62</ele>
        <time>2023-11-13T12:46:16Z</time>
      </trkpt>
      <trkpt lat="47.27923" lon="-1.67419">
        <ele>62</ele>
        <time>2023-11-13T12:50:13Z</time>
      </trkpt>
      <trkpt lat="47.2801" lon="-1.67473">
        <ele>59</ele>
        <time>2023-11-13T12:52:19Z</time>
      </trkpt>
      <trkpt lat="47.27991" lon="-1.67744">
        <ele>57</ele>
        <time>2023-11-13T12:56:26Z</time>
      </trkpt>
      <trkpt lat="47.27869" lon="-1.67773">
        <ele>59</ele>
        <time>2023-11-13T12:59:11Z</time>
      </trkpt>
      <trkpt lat="47.27827" lon="-1.67767">
        <ele>61</ele>
        <time>2023-11-13T13:00:07Z</time>
      </trkpt>
      <trkpt lat="47.27721" lon="-1.67888">
        <ele>59</ele>
        <time>2023-11-13T13:03:06Z</time>
      </trkpt>
      <trkpt lat="47.2763" lon="-1.68015">
        <ele>62</ele>
        <time>2023-11-13T13:05:53Z</time>
      </trkpt>
      <trkpt lat="47.2763" lon="-1.68108">
        <ele>61</ele>
        <time>2023-11-13T13:07:17Z</time>
      </trkpt>
      <trkpt lat="47.27629" lon="-1.68165">
        <ele>62</ele>
        <time>2023-11-13T13:08:09Z</time>
      </trkpt>
      <trkpt lat="47.27673" lon="-1.68289">
        <ele>62</ele>
        <time>2023-11-13T13:10:16Z</time>
      </trkpt>
      <trkpt lat="47.27673" lon="-1.68427">
        <ele>60</ele>
        <time>2023-11-13T13:12:21Z</time>
      </trkpt>
      <trkpt lat="47.2769" lon="-1.68482">
        <ele>60</ele>
        <time>2023-11-13T13:13:15Z</time>
      </trkpt>
      <trkpt lat="47.2774" lon="-1.68538">
        <ele>55</ele>
        <time>2023-11-13T13:14:39Z</time>
      </trkpt>
      <trkpt lat="47.27744" lon="-1.68601">
        <ele>51</ele>
        <time>2023-11-13T13:15:37Z</time>
      </trkpt>
      <trkpt lat="47.27671" lon="-1.68644">
        <ele>53</ele>
        <time>2023-11-13T13:17:21Z</time>
      </trkpt>
      <trkpt lat="47.27615" lon="-1.68652">
        <ele>52</ele>
        <time>2023-11-13T13:18:37Z</time>
      </trkpt>
      <trkpt lat="47.27585" lon="-1.68634">
        <ele>52</ele>
        <time>2023-11-13T13:19:20Z</time>
      </trkpt>
      <trkpt lat="47.27538" lon="-1.68578">
        <ele>52</ele>
        <time>2023-11-13T13:20:40Z</time>
      </trkpt>
      <trkpt lat="47.2747" lon="-1.68485">
        <ele>48</ele>
        <time>2023-11-13T13:22:44Z</time>
      </trkpt>
      <trkpt lat="47.27357" lon="-1.68643">
        <ele>54</ele>
        <time>2023-11-13T13:26:12Z</time>
      </trkpt>
      <trkpt lat="47.27323" lon="-1.68694">
        <ele>56</ele>
        <time>2023-11-13T13:27:17Z</time>
      </trkpt>
      <trkpt lat="47.27255" lon="-1.6874">
        <ele>61</ele>
        <time>2023-11-13T13:28:57Z</time>
      </trkpt>
      <trkpt lat="47.27214" lon="-1.68799">
        <ele>64</ele>
        <time>2023-11-13T13:30:13Z</time>
      </trkpt>
      <trkpt lat="47.2717" lon="-1.68873">
        <ele>67</ele>
        <time>2023-11-13T13:31:42Z</time>
      </trkpt>
      <trkpt lat="47.27157" lon="-1.68867">
        <ele>67</ele>
        <time>2023-11-13T13:32:00Z</time>
      </trkpt>
      <trkpt lat="47.27119" lon="-1.68811">
        <ele>67</ele>
        <time>2023-11-13T13:33:12Z</time>
      </trkpt>
      <trkpt lat="47.27078" lon="-1.68776">
        <ele>66</ele>
        <time>2023-11-13T13:34:15Z</time>
      </trkpt>
      <trkpt lat="47.27114" lon="-1.68704">
        <ele>65</ele>
        <time>2023-11-13T13:35:36Z</time>
      </trkpt>
      <trkpt lat="47.27074" lon="-1.68621">
        <ele>64</ele>
        <time>2023-11-13T13:37:08Z</time>
      </trkpt>
      <trkpt lat="47.27099" lon="-1.68553">
        <ele>61</ele>
        <time>2023-11-13T13:38:19Z</time>
      </trkpt>
      <trkpt lat="47.27098" lon="-1.68513">
        <ele>59</ele>
        <time>2023-11-13T13:38:55Z</time>
      </trkpt>
      <trkpt lat="47.27168" lon="-1.685">
        <ele>57</ele>
        <time>2023-11-13T13:40:29Z</time>
      </trkpt>
      <trkpt lat="47.27211" lon="-1.68429">
        <ele>55</ele>
        <time>2023-11-13T13:41:55Z</time>
      </trkpt>
      <trkpt lat="47.27139" lon="-1.68277">
        <ele>47</ele>
        <time>2023-11-13T13:44:43Z</time>
      </trkpt>
      <trkpt lat="47.27068" lon="-1.68175">
        <ele>49</ele>
        <time>2023-11-13T13:46:55Z</time>
      </trkpt>
      <trkpt lat="47.27078" lon="-1.68138">
        <ele>46</ele>
        <time>2023-11-13T13:47:31Z</time>
      </trkpt>
      <trkpt lat="47.27031" lon="-1.68027">
        <ele>53</ele>
        <time>2023-11-13T13:49:30Z</time>
      </trkpt>
      <trkpt lat="47.27039" lon="-1.67914">
        <ele>52</ele>
        <time>2023-11-13T13:51:13Z</time>
      </trkpt>
      <trkpt lat="47.27103" lon="-1.67742">
        <ele>49</ele>
        <time>2023-11-13T13:54:10Z</time>
      </trkpt>
      <trkpt lat="47.27101" lon="-1.67638">
        <ele>47</ele>
        <time>2023-11-13T13:55:44Z</time>
      </trkpt>
      <trkpt lat="47.2707" lon="-1.67475">
        <ele>42</ele>
        <time>2023-11-13T13:58:18Z</time>
      </trkpt>
      <trkpt lat="47.27071" lon="-1.67353">
        <ele>39</ele>
        <time>2023-11-13T14:00:08Z</time>
      </trkpt>
      <trkpt lat="47.27116" lon="-1.67354">
        <ele>41</ele>
        <time>2023-11-13T14:01:08Z</time>
      </trkpt>
      <trkpt lat="47.27136" lon="-1.67252">
        <ele>44</ele>
        <time>2023-11-13T14:02:44Z</time>
      </trkpt>
      <trkpt lat="47.27104" lon="-1.67193">
        <ele>46</ele>
        <time>2023-11-13T14:03:53Z</time>
      </trkpt>
      <trkpt lat="47.27053" lon="-1.67182">
        <ele>44</ele>
        <time>2023-11-13T14:05:02Z</time>
      </trkpt>
      <trkpt lat="47.26987" lon="-1.67183">
        <ele>41</ele>
        <time>2023-11-13T14:06:30Z</time>
      </trkpt>
      <trkpt lat="47.26926" lon="-1.67199">
        <ele>41</ele>
        <time>2023-11-13T14:07:52Z</time>
      </trkpt>
    </trkseg>
  </trk>
  <trk>
    <name><![CDATA[Sautron_SautronEst_8.3km-6690164]]></name>
    <extensions>
      <line xmlns="http://www.topografix.com/GPX/gpx_style/0/2">
        <color>FF0000</color>
        <width>4</width>
      </line>
    </extensions>
    <trkseg>
      <trkpt lat="47.26811" lon="-1.67101">
        <ele>43</ele>
        <time>2023-11-13T11:15:02Z</time>
      </trkpt>
      <trkpt lat="47.268" lon="-1.67135">
        <ele>43</ele>
        <time>2023-11-13T11:15:36Z</time>
      </trkpt>
      <trkpt lat="47.26742" lon="-1.67146">
        <ele>47</ele>
        <time>2023-11-13T11:16:54Z</time>
      </trkpt>
      <trkpt lat="47.26686" lon="-1.67211">
        <ele>53</ele>
        <time>2023-11-13T11:18:29Z</time>
      </trkpt>
      <trkpt lat="47.26639" lon="-1.67154">
        <ele>55</ele>
        <time>2023-11-13T11:19:51Z</time>
      </trkpt>
      <trkpt lat="47.26595" lon="-1.67105">
        <ele>58</ele>
        <time>2023-11-13T11:21:04Z</time>
      </trkpt>
      <trkpt lat="47.26505" lon="-1.67178">
        <ele>64</ele>
        <time>2023-11-13T11:23:21Z</time>
      </trkpt>
      <trkpt lat="47.26451" lon="-1.6732">
        <ele>67</ele>
        <time>2023-11-13T11:25:49Z</time>
      </trkpt>
      <trkpt lat="47.26422" lon="-1.67375">
        <ele>66</ele>
        <time>2023-11-13T11:26:52Z</time>
      </trkpt>
      <trkpt lat="47.26374" lon="-1.67352">
        <ele>67</ele>
        <time>2023-11-13T11:27:59Z</time>
      </trkpt>
      <trkpt lat="47.26315" lon="-1.67296">
        <ele>67</ele>
        <time>2023-11-13T11:29:33Z</time>
      </trkpt>
      <trkpt lat="47.26282" lon="-1.67305">
        <ele>67</ele>
        <time>2023-11-13T11:30:17Z</time>
      </trkpt>
      <trkpt lat="47.26273" lon="-1.67246">
        <ele>67</ele>
        <time>2023-11-13T11:31:12Z</time>
      </trkpt>
      <trkpt lat="47.26242" lon="-1.67256">
        <ele>67</ele>
        <time>2023-11-13T11:31:55Z</time>
      </trkpt>
      <trkpt lat="47.26236" lon="-1.67236">
        <ele>67</ele>
        <time>2023-11-13T11:32:14Z</time>
      </trkpt>
      <trkpt lat="47.26135" lon="-1.67287">
        <ele>65</ele>
        <time>2023-11-13T11:34:37Z</time>
      </trkpt>
      <trkpt lat="47.26133" lon="-1.673">
        <ele>65</ele>
        <time>2023-11-13T11:34:49Z</time>
      </trkpt>
      <trkpt lat="47.2609" lon="-1.67319">
        <ele>63</ele>
        <time>2023-11-13T11:35:49Z</time>
      </trkpt>
      <trkpt lat="47.26082" lon="-1.67314">
        <ele>63</ele>
        <time>2023-11-13T11:36:00Z</time>
      </trkpt>
      <trkpt lat="47.25989" lon="-1.67343">
        <ele>59</ele>
        <time>2023-11-13T11:38:07Z</time>
      </trkpt>
      <trkpt lat="47.2591" lon="-1.67367">
        <ele>56</ele>
        <time>2023-11-13T11:39:55Z</time>
      </trkpt>
      <trkpt lat="47.25746" lon="-1.67406">
        <ele>49</ele>
        <time>2023-11-13T11:43:37Z</time>
      </trkpt>
      <trkpt lat="47.2569" lon="-1.67336">
        <ele>50</ele>
        <time>2023-11-13T11:45:15Z</time>
      </trkpt>
      <trkpt lat="47.25666" lon="-1.67309">
        <ele>51</ele>
        <time>2023-11-13T11:45:55Z</time>
      </trkpt>
      <trkpt lat="47.25675" lon="-1.67259">
        <ele>52</ele>
        <time>2023-11-13T11:46:42Z</time>
      </trkpt>
      <trkpt lat="47.25627" lon="-1.67272">
        <ele>52</ele>
        <time>2023-11-13T11:47:47Z</time>
      </trkpt>
      <trkpt lat="47.25581" lon="-1.67283">
        <ele>51</ele>
        <time>2023-11-13T11:48:49Z</time>
      </trkpt>
      <trkpt lat="47.25514" lon="-1.67301">
        <ele>49</ele>
        <time>2023-11-13T11:50:20Z</time>
      </trkpt>
      <trkpt lat="47.25468" lon="-1.67314">
        <ele>47</ele>
        <time>2023-11-13T11:51:22Z</time>
      </trkpt>
      <trkpt lat="47.25446" lon="-1.67336">
        <ele>46</ele>
        <time>2023-11-13T11:51:58Z</time>
      </trkpt>
      <trkpt lat="47.25433" lon="-1.67341">
        <ele>45</ele>
        <time>2023-11-13T11:52:16Z</time>
      </trkpt>
      <trkpt lat="47.25427" lon="-1.67337">
        <ele>45</ele>
        <time>2023-11-13T11:52:25Z</time>
      </trkpt>
      <trkpt lat="47.25418" lon="-1.67313">
        <ele>45</ele>
        <time>2023-11-13T11:52:49Z</time>
      </trkpt>
      <trkpt lat="47.25404" lon="-1.67013">
        <ele>48</ele>
        <time>2023-11-13T11:57:22Z</time>
      </trkpt>
      <trkpt lat="47.25397" lon="-1.66897">
        <ele>47</ele>
        <time>2023-11-13T11:59:07Z</time>
      </trkpt>
      <trkpt lat="47.25401" lon="-1.66887">
        <ele>47</ele>
        <time>2023-11-13T11:59:18Z</time>
      </trkpt>
      <trkpt lat="47.25414" lon="-1.66882">
        <ele>47</ele>
        <time>2023-11-13T11:59:36Z</time>
      </trkpt>
      <trkpt lat="47.25418" lon="-1.66866">
        <ele>46</ele>
        <time>2023-11-13T11:59:51Z</time>
      </trkpt>
      <trkpt lat="47.25384" lon="-1.66862">
        <ele>46</ele>
        <time>2023-11-13T12:00:37Z</time>
      </trkpt>
      <trkpt lat="47.25367" lon="-1.66857">
        <ele>45</ele>
        <time>2023-11-13T12:01:00Z</time>
      </trkpt>
      <trkpt lat="47.25336" lon="-1.66854">
        <ele>45</ele>
        <time>2023-11-13T12:01:41Z</time>
      </trkpt>
      <trkpt lat="47.25334" lon="-1.66642">
        <ele>42</ele>
        <time>2023-11-13T12:04:53Z</time>
      </trkpt>
      <trkpt lat="47.25327" lon="-1.66512">
        <ele>42</ele>
        <time>2023-11-13T12:06:52Z</time>
      </trkpt>
      <trkpt lat="47.2543" lon="-1.6648">
        <ele>46</ele>
        <time>2023-11-13T12:09:12Z</time>
      </trkpt>
      <trkpt lat="47.25467" lon="-1.66434">
        <ele>47</ele>
        <time>2023-11-13T12:10:17Z</time>
      </trkpt>
      <trkpt lat="47.25478" lon="-1.66412">
        <ele>48</ele>
        <time>2023-11-13T12:10:41Z</time>
      </trkpt>
      <trkpt lat="47.2549" lon="-1.66402">
        <ele>48</ele>
        <time>2023-11-13T12:11:00Z</time>
      </trkpt>
      <trkpt lat="47.25489" lon="-1.66388">
        <ele>48</ele>
        <time>2023-11-13T12:11:12Z</time>
      </trkpt>
      <trkpt lat="47.25479" lon="-1.66381">
        <ele>48</ele>
        <time>2023-11-13T12:11:27Z</time>
      </trkpt>
      <trkpt lat="47.25417" lon="-1.66266">
        <ele>47</ele>
        <time>2023-11-13T12:13:40Z</time>
      </trkpt>
      <trkpt lat="47.25369" lon="-1.66186">
        <ele>46</ele>
        <time>2023-11-13T12:15:17Z</time>
      </trkpt>
      <trkpt lat="47.25358" lon="-1.66153">
        <ele>46</ele>
        <time>2023-11-13T12:15:50Z</time>
      </trkpt>
      <trkpt lat="47.25362" lon="-1.66003">
        <ele>46</ele>
        <time>2023-11-13T12:18:06Z</time>
      </trkpt>
      <trkpt lat="47.25363" lon="-1.65908">
        <ele>47</ele>
        <time>2023-11-13T12:19:32Z</time>
      </trkpt>
      <trkpt lat="47.25372" lon="-1.65807">
        <ele>46</ele>
        <time>2023-11-13T12:21:05Z</time>
      </trkpt>
      <trkpt lat="47.25389" lon="-1.65767">
        <ele>46</ele>
        <time>2023-11-13T12:21:47Z</time>
      </trkpt>
      <trkpt lat="47.254" lon="-1.65792">
        <ele>46</ele>
        <time>2023-11-13T12:22:14Z</time>
      </trkpt>
      <trkpt lat="47.25423" lon="-1.65824">
        <ele>45</ele>
        <time>2023-11-13T12:22:57Z</time>
      </trkpt>
      <trkpt lat="47.25451" lon="-1.65835">
        <ele>46</ele>
        <time>2023-11-13T12:23:35Z</time>
      </trkpt>
      <trkpt lat="47.25533" lon="-1.65851">
        <ele>50</ele>
        <time>2023-11-13T12:25:26Z</time>
      </trkpt>
      <trkpt lat="47.25519" lon="-1.65845">
        <ele>49</ele>
        <time>2023-11-13T12:25:45Z</time>
      </trkpt>
      <trkpt lat="47.25548" lon="-1.65863">
        <ele>51</ele>
        <time>2023-11-13T12:26:27Z</time>
      </trkpt>
      <trkpt lat="47.25601" lon="-1.65916">
        <ele>54</ele>
        <time>2023-11-13T12:27:53Z</time>
      </trkpt>
      <trkpt lat="47.25688" lon="-1.66007">
        <ele>56</ele>
        <time>2023-11-13T12:30:15Z</time>
      </trkpt>
      <trkpt lat="47.25781" lon="-1.65819">
        <ele>60</ele>
        <time>2023-11-13T12:33:46Z</time>
      </trkpt>
      <trkpt lat="47.25875" lon="-1.65634">
        <ele>63</ele>
        <time>2023-11-13T12:37:15Z</time>
      </trkpt>
      <trkpt lat="47.25928" lon="-1.65518">
        <ele>64</ele>
        <time>2023-11-13T12:39:22Z</time>
      </trkpt>
      <trkpt lat="47.25948" lon="-1.65473">
        <ele>65</ele>
        <time>2023-11-13T12:40:10Z</time>
      </trkpt>
      <trkpt lat="47.2595" lon="-1.65456">
        <ele>65</ele>
        <time>2023-11-13T12:40:26Z</time>
      </trkpt>
      <trkpt lat="47.26025" lon="-1.65454">
        <ele>67</ele>
        <time>2023-11-13T12:42:06Z</time>
      </trkpt>
      <trkpt lat="47.26033" lon="-1.65444">
        <ele>67</ele>
        <time>2023-11-13T12:42:20Z</time>
      </trkpt>
      <trkpt lat="47.25995" lon="-1.65354">
        <ele>66</ele>
        <time>2023-11-13T12:43:56Z</time>
      </trkpt>
      <trkpt lat="47.26031" lon="-1.65292">
        <ele>66</ele>
        <time>2023-11-13T12:45:10Z</time>
      </trkpt>
      <trkpt lat="47.26135" lon="-1.6525">
        <ele>66</ele>
        <time>2023-11-13T12:47:34Z</time>
      </trkpt>
      <trkpt lat="47.26209" lon="-1.65226">
        <ele>66</ele>
        <time>2023-11-13T12:49:15Z</time>
      </trkpt>
      <trkpt lat="47.2622" lon="-1.65233">
        <ele>66</ele>
        <time>2023-11-13T12:49:31Z</time>
      </trkpt>
      <trkpt lat="47.26256" lon="-1.65236">
        <ele>66</ele>
        <time>2023-11-13T12:50:19Z</time>
      </trkpt>
      <trkpt lat="47.26339" lon="-1.65222">
        <ele>64</ele>
        <time>2023-11-13T12:52:11Z</time>
      </trkpt>
      <trkpt lat="47.26466" lon="-1.65236">
        <ele>60</ele>
        <time>2023-11-13T12:55:00Z</time>
      </trkpt>
      <trkpt lat="47.26578" lon="-1.65254">
        <ele>58</ele>
        <time>2023-11-13T12:57:31Z</time>
      </trkpt>
      <trkpt lat="47.26606" lon="-1.65278">
        <ele>55</ele>
        <time>2023-11-13T12:58:14Z</time>
      </trkpt>
      <trkpt lat="47.26691" lon="-1.65326">
        <ele>46</ele>
        <time>2023-11-13T13:00:16Z</time>
      </trkpt>
      <trkpt lat="47.26741" lon="-1.65354">
        <ele>40</ele>
        <time>2023-11-13T13:01:27Z</time>
      </trkpt>
      <trkpt lat="47.26757" lon="-1.6539">
        <ele>40</ele>
        <time>2023-11-13T13:02:06Z</time>
      </trkpt>
      <trkpt lat="47.26768" lon="-1.65516">
        <ele>38</ele>
        <time>2023-11-13T13:04:01Z</time>
      </trkpt>
      <trkpt lat="47.2678" lon="-1.65541">
        <ele>36</ele>
        <time>2023-11-13T13:04:29Z</time>
      </trkpt>
      <trkpt lat="47.26795" lon="-1.65547">
        <ele>35</ele>
        <time>2023-11-13T13:04:49Z</time>
      </trkpt>
      <trkpt lat="47.2682" lon="-1.6554">
        <ele>32</ele>
        <time>2023-11-13T13:05:23Z</time>
      </trkpt>
      <trkpt lat="47.26846" lon="-1.65545">
        <ele>32</ele>
        <time>2023-11-13T13:05:58Z</time>
      </trkpt>
      <trkpt lat="47.26912" lon="-1.65614">
        <ele>40</ele>
        <time>2023-11-13T13:07:46Z</time>
      </trkpt>
      <trkpt lat="47.27014" lon="-1.65648">
        <ele>47</ele>
        <time>2023-11-13T13:10:06Z</time>
      </trkpt>
      <trkpt lat="47.27066" lon="-1.65656">
        <ele>49</ele>
        <time>2023-11-13T13:11:16Z</time>
      </trkpt>
      <trkpt lat="47.27132" lon="-1.65638">
        <ele>51</ele>
        <time>2023-11-13T13:12:45Z</time>
      </trkpt>
      <trkpt lat="47.27242" lon="-1.65636">
        <ele>53</ele>
        <time>2023-11-13T13:15:12Z</time>
      </trkpt>
      <trkpt lat="47.27447" lon="-1.65937">
        <ele>65</ele>
        <time>2023-11-13T13:21:38Z</time>
      </trkpt>
      <trkpt lat="47.27355" lon="-1.66183">
        <ele>62</ele>
        <time>2023-11-13T13:25:52Z</time>
      </trkpt>
      <trkpt lat="47.27317" lon="-1.66365">
        <ele>63</ele>
        <time>2023-11-13T13:28:45Z</time>
      </trkpt>
      <trkpt lat="47.27309" lon="-1.6664">
        <ele>61</ele>
        <time>2023-11-13T13:32:54Z</time>
      </trkpt>
      <trkpt lat="47.27197" lon="-1.66624">
        <ele>61</ele>
        <time>2023-11-13T13:35:24Z</time>
      </trkpt>
      <trkpt lat="47.27033" lon="-1.66508">
        <ele>57</ele>
        <time>2023-11-13T13:39:27Z</time>
      </trkpt>
      <trkpt lat="47.26912" lon="-1.66512">
        <ele>54</ele>
        <time>2023-11-13T13:42:09Z</time>
      </trkpt>
      <trkpt lat="47.26898" lon="-1.66467">
        <ele>54</ele>
        <time>2023-11-13T13:42:53Z</time>
      </trkpt>
      <trkpt lat="47.26897" lon="-1.66412">
        <ele>55</ele>
        <time>2023-11-13T13:43:43Z</time>
      </trkpt>
      <trkpt lat="47.26878" lon="-1.66381">
        <ele>55</ele>
        <time>2023-11-13T13:44:21Z</time>
      </trkpt>
      <trkpt lat="47.26846" lon="-1.66363">
        <ele>54</ele>
        <time>2023-11-13T13:45:07Z</time>
      </trkpt>
      <trkpt lat="47.26821" lon="-1.66355">
        <ele>53</ele>
        <time>2023-11-13T13:45:41Z</time>
      </trkpt>
      <trkpt lat="47.26811" lon="-1.66367">
        <ele>53</ele>
        <time>2023-11-13T13:45:58Z</time>
      </trkpt>
      <trkpt lat="47.26792" lon="-1.66377">
        <ele>51</ele>
        <time>2023-11-13T13:46:25Z</time>
      </trkpt>
      <trkpt lat="47.26774" lon="-1.66388">
        <ele>50</ele>
        <time>2023-11-13T13:46:51Z</time>
      </trkpt>
      <trkpt lat="47.26758" lon="-1.66395">
        <ele>48</ele>
        <time>2023-11-13T13:47:13Z</time>
      </trkpt>
      <trkpt lat="47.26749" lon="-1.66409">
        <ele>46</ele>
        <time>2023-11-13T13:47:31Z</time>
      </trkpt>
      <trkpt lat="47.26742" lon="-1.66439">
        <ele>44</ele>
        <time>2023-11-13T13:47:59Z</time>
      </trkpt>
      <trkpt lat="47.26752" lon="-1.66526">
        <ele>42</ele>
        <time>2023-11-13T13:49:19Z</time>
      </trkpt>
      <trkpt lat="47.26761" lon="-1.66557">
        <ele>42</ele>
        <time>2023-11-13T13:49:50Z</time>
      </trkpt>
      <trkpt lat="47.26754" lon="-1.66598">
        <ele>42</ele>
        <time>2023-11-13T13:50:28Z</time>
      </trkpt>
      <trkpt lat="47.26835" lon="-1.66756">
        <ele>39</ele>
        <time>2023-11-13T13:53:27Z</time>
      </trkpt>
      <trkpt lat="47.269" lon="-1.66805">
        <ele>42</ele>
        <time>2023-11-13T13:55:05Z</time>
      </trkpt>
      <trkpt lat="47.26931" lon="-1.66908">
        <ele>43</ele>
        <time>2023-11-13T13:56:47Z</time>
      </trkpt>
      <trkpt lat="47.26922" lon="-1.66975">
        <ele>41</ele>
        <time>2023-11-13T13:57:49Z</time>
      </trkpt>
      <trkpt lat="47.26896" lon="-1.67127">
        <ele>41</ele>
        <time>2023-11-13T14:00:11Z</time>
      </trkpt>
      <trkpt lat="47.26869" lon="-1.67145">
        <ele>40</ele>
        <time>2023-11-13T14:00:50Z</time>
      </trkpt>
      <trkpt lat="47.26841" lon="-1.67107">
        <ele>41</ele>
        <time>2023-11-13T14:01:41Z</time>
      </trkpt>
      <trkpt lat="47.26819" lon="-1.67116">
        <ele>42</ele>
        <time>2023-11-13T14:02:12Z</time>
      </trkpt>
    </trkseg>
  </trk>
  <trk>
    <name><![CDATA[Sautron _boucleNord_10.3km-8372687]]></name>
    <extensions>
      <line xmlns="http://www.topografix.com/GPX/gpx_style/0/2">
        <color>00FFFF</color>
        <width>4</width>
      </line>
    </extensions>
    <trkseg>
      <trkpt lat="47.26806" lon="-1.67107">
        <ele>43</ele>
        <time>2023-11-13T18:53:45Z</time>
      </trkpt>
      <trkpt lat="47.26805" lon="-1.67084">
        <ele>43</ele>
        <time>2023-11-13T18:54:06Z</time>
      </trkpt>
      <trkpt lat="47.26812" lon="-1.67064">
        <ele>44</ele>
        <time>2023-11-13T18:54:26Z</time>
      </trkpt>
      <trkpt lat="47.2682" lon="-1.67072">
        <ele>43</ele>
        <time>2023-11-13T18:54:39Z</time>
      </trkpt>
      <trkpt lat="47.26836" lon="-1.67095">
        <ele>42</ele>
        <time>2023-11-13T18:55:09Z</time>
      </trkpt>
      <trkpt lat="47.26866" lon="-1.67128">
        <ele>41</ele>
        <time>2023-11-13T18:55:59Z</time>
      </trkpt>
      <trkpt lat="47.2687" lon="-1.6714">
        <ele>41</ele>
        <time>2023-11-13T18:56:11Z</time>
      </trkpt>
      <trkpt lat="47.26873" lon="-1.67136">
        <ele>41</ele>
        <time>2023-11-13T18:56:16Z</time>
      </trkpt>
      <trkpt lat="47.26894" lon="-1.67125">
        <ele>41</ele>
        <time>2023-11-13T18:56:46Z</time>
      </trkpt>
      <trkpt lat="47.269" lon="-1.67119">
        <ele>41</ele>
        <time>2023-11-13T18:56:56Z</time>
      </trkpt>
      <trkpt lat="47.26912" lon="-1.67044">
        <ele>41</ele>
        <time>2023-11-13T18:58:06Z</time>
      </trkpt>
      <trkpt lat="47.2691" lon="-1.6702">
        <ele>41</ele>
        <time>2023-11-13T18:58:28Z</time>
      </trkpt>
      <trkpt lat="47.2692" lon="-1.66951">
        <ele>41</ele>
        <time>2023-11-13T18:59:31Z</time>
      </trkpt>
      <trkpt lat="47.26926" lon="-1.66939">
        <ele>42</ele>
        <time>2023-11-13T18:59:45Z</time>
      </trkpt>
      <trkpt lat="47.26923" lon="-1.66892">
        <ele>42</ele>
        <time>2023-11-13T19:00:28Z</time>
      </trkpt>
      <trkpt lat="47.2692" lon="-1.66884">
        <ele>42</ele>
        <time>2023-11-13T19:00:36Z</time>
      </trkpt>
      <trkpt lat="47.26914" lon="-1.66875">
        <ele>42</ele>
        <time>2023-11-13T19:00:47Z</time>
      </trkpt>
      <trkpt lat="47.26914" lon="-1.66861">
        <ele>41</ele>
        <time>2023-11-13T19:01:00Z</time>
      </trkpt>
      <trkpt lat="47.26891" lon="-1.66804">
        <ele>42</ele>
        <time>2023-11-13T19:02:00Z</time>
      </trkpt>
      <trkpt lat="47.26878" lon="-1.66802">
        <ele>41</ele>
        <time>2023-11-13T19:02:18Z</time>
      </trkpt>
      <trkpt lat="47.26873" lon="-1.66796">
        <ele>41</ele>
        <time>2023-11-13T19:02:26Z</time>
      </trkpt>
      <trkpt lat="47.26868" lon="-1.66779">
        <ele>41</ele>
        <time>2023-11-13T19:02:43Z</time>
      </trkpt>
      <trkpt lat="47.26857" lon="-1.6677">
        <ele>41</ele>
        <time>2023-11-13T19:03:00Z</time>
      </trkpt>
      <trkpt lat="47.26849" lon="-1.66766">
        <ele>40</ele>
        <time>2023-11-13T19:03:11Z</time>
      </trkpt>
      <trkpt lat="47.26809" lon="-1.66709">
        <ele>43</ele>
        <time>2023-11-13T19:04:25Z</time>
      </trkpt>
      <trkpt lat="47.26796" lon="-1.66686">
        <ele>44</ele>
        <time>2023-11-13T19:04:52Z</time>
      </trkpt>
      <trkpt lat="47.26787" lon="-1.66659">
        <ele>45</ele>
        <time>2023-11-13T19:05:20Z</time>
      </trkpt>
      <trkpt lat="47.26773" lon="-1.66636">
        <ele>44</ele>
        <time>2023-11-13T19:05:48Z</time>
      </trkpt>
      <trkpt lat="47.26759" lon="-1.66603">
        <ele>42</ele>
        <time>2023-11-13T19:06:23Z</time>
      </trkpt>
      <trkpt lat="47.26754" lon="-1.666">
        <ele>42</ele>
        <time>2023-11-13T19:06:30Z</time>
      </trkpt>
      <trkpt lat="47.26733" lon="-1.66609">
        <ele>43</ele>
        <time>2023-11-13T19:06:59Z</time>
      </trkpt>
      <trkpt lat="47.26704" lon="-1.66606">
        <ele>46</ele>
        <time>2023-11-13T19:07:38Z</time>
      </trkpt>
      <trkpt lat="47.26678" lon="-1.66542">
        <ele>45</ele>
        <time>2023-11-13T19:08:46Z</time>
      </trkpt>
      <trkpt lat="47.26659" lon="-1.66462">
        <ele>42</ele>
        <time>2023-11-13T19:10:02Z</time>
      </trkpt>
      <trkpt lat="47.26649" lon="-1.66431">
        <ele>41</ele>
        <time>2023-11-13T19:10:33Z</time>
      </trkpt>
      <trkpt lat="47.26645" lon="-1.66411">
        <ele>40</ele>
        <time>2023-11-13T19:10:52Z</time>
      </trkpt>
      <trkpt lat="47.26641" lon="-1.66402">
        <ele>41</ele>
        <time>2023-11-13T19:11:02Z</time>
      </trkpt>
      <trkpt lat="47.2664" lon="-1.66381">
        <ele>41</ele>
        <time>2023-11-13T19:11:21Z</time>
      </trkpt>
      <trkpt lat="47.26633" lon="-1.66348">
        <ele>40</ele>
        <time>2023-11-13T19:11:52Z</time>
      </trkpt>
      <trkpt lat="47.26628" lon="-1.66332">
        <ele>40</ele>
        <time>2023-11-13T19:12:08Z</time>
      </trkpt>
      <trkpt lat="47.26622" lon="-1.66323">
        <ele>40</ele>
        <time>2023-11-13T19:12:20Z</time>
      </trkpt>
      <trkpt lat="47.26616" lon="-1.66295">
        <ele>40</ele>
        <time>2023-11-13T19:12:46Z</time>
      </trkpt>
      <trkpt lat="47.2661" lon="-1.66279">
        <ele>40</ele>
        <time>2023-11-13T19:13:03Z</time>
      </trkpt>
      <trkpt lat="47.26608" lon="-1.66251">
        <ele>40</ele>
        <time>2023-11-13T19:13:28Z</time>
      </trkpt>
      <trkpt lat="47.26622" lon="-1.66207">
        <ele>41</ele>
        <time>2023-11-13T19:14:12Z</time>
      </trkpt>
      <trkpt lat="47.2662" lon="-1.66178">
        <ele>41</ele>
        <time>2023-11-13T19:14:39Z</time>
      </trkpt>
      <trkpt lat="47.26633" lon="-1.6617">
        <ele>42</ele>
        <time>2023-11-13T19:14:58Z</time>
      </trkpt>
      <trkpt lat="47.26645" lon="-1.66152">
        <ele>43</ele>
        <time>2023-11-13T19:15:20Z</time>
      </trkpt>
      <trkpt lat="47.26638" lon="-1.6613">
        <ele>43</ele>
        <time>2023-11-13T19:15:42Z</time>
      </trkpt>
      <trkpt lat="47.26637" lon="-1.66102">
        <ele>44</ele>
        <time>2023-11-13T19:16:08Z</time>
      </trkpt>
      <trkpt lat="47.26627" lon="-1.66086">
        <ele>43</ele>
        <time>2023-11-13T19:16:28Z</time>
      </trkpt>
      <trkpt lat="47.26589" lon="-1.66056">
        <ele>40</ele>
        <time>2023-11-13T19:17:25Z</time>
      </trkpt>
      <trkpt lat="47.26543" lon="-1.66057">
        <ele>37</ele>
        <time>2023-11-13T19:18:26Z</time>
      </trkpt>
      <trkpt lat="47.26535" lon="-1.6605">
        <ele>36</ele>
        <time>2023-11-13T19:18:39Z</time>
      </trkpt>
      <trkpt lat="47.26523" lon="-1.66018">
        <ele>34</ele>
        <time>2023-11-13T19:19:12Z</time>
      </trkpt>
      <trkpt lat="47.26525" lon="-1.65958">
        <ele>34</ele>
        <time>2023-11-13T19:20:06Z</time>
      </trkpt>
      <trkpt lat="47.26517" lon="-1.65939">
        <ele>33</ele>
        <time>2023-11-13T19:20:27Z</time>
      </trkpt>
      <trkpt lat="47.26515" lon="-1.65896">
        <ele>34</ele>
        <time>2023-11-13T19:21:06Z</time>
      </trkpt>
      <trkpt lat="47.26522" lon="-1.6585">
        <ele>36</ele>
        <time>2023-11-13T19:21:48Z</time>
      </trkpt>
      <trkpt lat="47.26504" lon="-1.65769">
        <ele>42</ele>
        <time>2023-11-13T19:23:06Z</time>
      </trkpt>
      <trkpt lat="47.26515" lon="-1.65745">
        <ele>43</ele>
        <time>2023-11-13T19:23:32Z</time>
      </trkpt>
      <trkpt lat="47.26533" lon="-1.65731">
        <ele>43</ele>
        <time>2023-11-13T19:23:59Z</time>
      </trkpt>
      <trkpt lat="47.2656" lon="-1.6572">
        <ele>43</ele>
        <time>2023-11-13T19:24:36Z</time>
      </trkpt>
      <trkpt lat="47.26581" lon="-1.65715">
        <ele>43</ele>
        <time>2023-11-13T19:25:05Z</time>
      </trkpt>
      <trkpt lat="47.26585" lon="-1.65709">
        <ele>43</ele>
        <time>2023-11-13T19:25:12Z</time>
      </trkpt>
      <trkpt lat="47.26592" lon="-1.65644">
        <ele>45</ele>
        <time>2023-11-13T19:26:12Z</time>
      </trkpt>
      <trkpt lat="47.26591" lon="-1.65606">
        <ele>46</ele>
        <time>2023-11-13T19:26:46Z</time>
      </trkpt>
      <trkpt lat="47.26601" lon="-1.65602">
        <ele>46</ele>
        <time>2023-11-13T19:27:00Z</time>
      </trkpt>
      <trkpt lat="47.26634" lon="-1.65612">
        <ele>45</ele>
        <time>2023-11-13T19:27:45Z</time>
      </trkpt>
      <trkpt lat="47.26659" lon="-1.65622">
        <ele>44</ele>
        <time>2023-11-13T19:28:20Z</time>
      </trkpt>
      <trkpt lat="47.26664" lon="-1.65621">
        <ele>44</ele>
        <time>2023-11-13T19:28:26Z</time>
      </trkpt>
      <trkpt lat="47.26679" lon="-1.65624">
        <ele>43</ele>
        <time>2023-11-13T19:28:47Z</time>
      </trkpt>
      <trkpt lat="47.2669" lon="-1.6563">
        <ele>42</ele>
        <time>2023-11-13T19:29:02Z</time>
      </trkpt>
      <trkpt lat="47.26701" lon="-1.65622">
        <ele>41</ele>
        <time>2023-11-13T19:29:19Z</time>
      </trkpt>
      <trkpt lat="47.26727" lon="-1.6561">
        <ele>39</ele>
        <time>2023-11-13T19:29:55Z</time>
      </trkpt>
      <trkpt lat="47.26749" lon="-1.65587">
        <ele>37</ele>
        <time>2023-11-13T19:30:31Z</time>
      </trkpt>
      <trkpt lat="47.26776" lon="-1.65545">
        <ele>36</ele>
        <time>2023-11-13T19:31:23Z</time>
      </trkpt>
      <trkpt lat="47.26772" lon="-1.65529">
        <ele>37</ele>
        <time>2023-11-13T19:31:39Z</time>
      </trkpt>
      <trkpt lat="47.26769" lon="-1.65479">
        <ele>39</ele>
        <time>2023-11-13T19:32:24Z</time>
      </trkpt>
      <trkpt lat="47.2676" lon="-1.65448">
        <ele>40</ele>
        <time>2023-11-13T19:32:55Z</time>
      </trkpt>
      <trkpt lat="47.26762" lon="-1.65409">
        <ele>40</ele>
        <time>2023-11-13T19:33:30Z</time>
      </trkpt>
      <trkpt lat="47.26759" lon="-1.65382">
        <ele>39</ele>
        <time>2023-11-13T19:33:55Z</time>
      </trkpt>
      <trkpt lat="47.26742" lon="-1.6535">
        <ele>40</ele>
        <time>2023-11-13T19:34:32Z</time>
      </trkpt>
      <trkpt lat="47.26737" lon="-1.65345">
        <ele>41</ele>
        <time>2023-11-13T19:34:40Z</time>
      </trkpt>
      <trkpt lat="47.26744" lon="-1.65333">
        <ele>40</ele>
        <time>2023-11-13T19:34:54Z</time>
      </trkpt>
      <trkpt lat="47.26758" lon="-1.65328">
        <ele>38</ele>
        <time>2023-11-13T19:35:13Z</time>
      </trkpt>
      <trkpt lat="47.26767" lon="-1.6532">
        <ele>37</ele>
        <time>2023-11-13T19:35:27Z</time>
      </trkpt>
      <trkpt lat="47.26772" lon="-1.65285">
        <ele>37</ele>
        <time>2023-11-13T19:36:00Z</time>
      </trkpt>
      <trkpt lat="47.26771" lon="-1.65272">
        <ele>37</ele>
        <time>2023-11-13T19:36:12Z</time>
      </trkpt>
      <trkpt lat="47.26784" lon="-1.65254">
        <ele>36</ele>
        <time>2023-11-13T19:36:35Z</time>
      </trkpt>
      <trkpt lat="47.26785" lon="-1.65247">
        <ele>36</ele>
        <time>2023-11-13T19:36:42Z</time>
      </trkpt>
      <trkpt lat="47.26778" lon="-1.65211">
        <ele>38</ele>
        <time>2023-11-13T19:37:16Z</time>
      </trkpt>
      <trkpt lat="47.26792" lon="-1.65177">
        <ele>38</ele>
        <time>2023-11-13T19:37:52Z</time>
      </trkpt>
      <trkpt lat="47.2684" lon="-1.65106">
        <ele>35</ele>
        <time>2023-11-13T19:39:23Z</time>
      </trkpt>
      <trkpt lat="47.26852" lon="-1.65057">
        <ele>38</ele>
        <time>2023-11-13T19:40:10Z</time>
      </trkpt>
      <trkpt lat="47.26852" lon="-1.65038">
        <ele>38</ele>
        <time>2023-11-13T19:40:27Z</time>
      </trkpt>
      <trkpt lat="47.26862" lon="-1.65009">
        <ele>39</ele>
        <time>2023-11-13T19:40:56Z</time>
      </trkpt>
      <trkpt lat="47.26892" lon="-1.64953">
        <ele>39</ele>
        <time>2023-11-13T19:42:01Z</time>
      </trkpt>
      <trkpt lat="47.26899" lon="-1.6491">
        <ele>39</ele>
        <time>2023-11-13T19:42:41Z</time>
      </trkpt>
      <trkpt lat="47.26923" lon="-1.64839">
        <ele>39</ele>
        <time>2023-11-13T19:43:53Z</time>
      </trkpt>
      <trkpt lat="47.26926" lon="-1.64836">
        <ele>39</ele>
        <time>2023-11-13T19:43:58Z</time>
      </trkpt>
      <trkpt lat="47.26935" lon="-1.64822">
        <ele>39</ele>
        <time>2023-11-13T19:44:15Z</time>
      </trkpt>
      <trkpt lat="47.26945" lon="-1.64818">
        <ele>38</ele>
        <time>2023-11-13T19:44:29Z</time>
      </trkpt>
      <trkpt lat="47.26964" lon="-1.64817">
        <ele>37</ele>
        <time>2023-11-13T19:44:54Z</time>
      </trkpt>
      <trkpt lat="47.26972" lon="-1.64804">
        <ele>36</ele>
        <time>2023-11-13T19:45:10Z</time>
      </trkpt>
      <trkpt lat="47.26971" lon="-1.64799">
        <ele>36</ele>
        <time>2023-11-13T19:45:15Z</time>
      </trkpt>
      <trkpt lat="47.26981" lon="-1.64743">
        <ele>35</ele>
        <time>2023-11-13T19:46:07Z</time>
      </trkpt>
      <trkpt lat="47.26985" lon="-1.6469">
        <ele>36</ele>
        <time>2023-11-13T19:46:56Z</time>
      </trkpt>
      <trkpt lat="47.26995" lon="-1.64651">
        <ele>36</ele>
        <time>2023-11-13T19:47:34Z</time>
      </trkpt>
      <trkpt lat="47.26995" lon="-1.64637">
        <ele>36</ele>
        <time>2023-11-13T19:47:46Z</time>
      </trkpt>
      <trkpt lat="47.26995" lon="-1.6462">
        <ele>36</ele>
        <time>2023-11-13T19:48:02Z</time>
      </trkpt>
      <trkpt lat="47.26986" lon="-1.64568">
        <ele>38</ele>
        <time>2023-11-13T19:48:50Z</time>
      </trkpt>
      <trkpt lat="47.26986" lon="-1.6453">
        <ele>39</ele>
        <time>2023-11-13T19:49:25Z</time>
      </trkpt>
      <trkpt lat="47.27003" lon="-1.64485">
        <ele>38</ele>
        <time>2023-11-13T19:50:11Z</time>
      </trkpt>
      <trkpt lat="47.27" lon="-1.6448">
        <ele>38</ele>
        <time>2023-11-13T19:50:17Z</time>
      </trkpt>
      <trkpt lat="47.27001" lon="-1.64476">
        <ele>39</ele>
        <time>2023-11-13T19:50:21Z</time>
      </trkpt>
      <trkpt lat="47.27011" lon="-1.64454">
        <ele>39</ele>
        <time>2023-11-13T19:50:45Z</time>
      </trkpt>
      <trkpt lat="47.27028" lon="-1.64445">
        <ele>40</ele>
        <time>2023-11-13T19:51:09Z</time>
      </trkpt>
      <trkpt lat="47.27055" lon="-1.64483">
        <ele>40</ele>
        <time>2023-11-13T19:51:59Z</time>
      </trkpt>
      <trkpt lat="47.27078" lon="-1.64512">
        <ele>41</ele>
        <time>2023-11-13T19:52:39Z</time>
      </trkpt>
      <trkpt lat="47.27083" lon="-1.64521">
        <ele>40</ele>
        <time>2023-11-13T19:52:50Z</time>
      </trkpt>
      <trkpt lat="47.27096" lon="-1.64529">
        <ele>41</ele>
        <time>2023-11-13T19:53:09Z</time>
      </trkpt>
      <trkpt lat="47.2711" lon="-1.64547">
        <ele>41</ele>
        <time>2023-11-13T19:53:34Z</time>
      </trkpt>
      <trkpt lat="47.27149" lon="-1.64541">
        <ele>44</ele>
        <time>2023-11-13T19:54:26Z</time>
      </trkpt>
      <trkpt lat="47.27191" lon="-1.64535">
        <ele>46</ele>
        <time>2023-11-13T19:55:22Z</time>
      </trkpt>
      <trkpt lat="47.27212" lon="-1.64538">
        <ele>46</ele>
        <time>2023-11-13T19:55:50Z</time>
      </trkpt>
      <trkpt lat="47.27251" lon="-1.64534">
        <ele>48</ele>
        <time>2023-11-13T19:56:43Z</time>
      </trkpt>
      <trkpt lat="47.27299" lon="-1.64536">
        <ele>50</ele>
        <time>2023-11-13T19:57:47Z</time>
      </trkpt>
      <trkpt lat="47.27337" lon="-1.64534">
        <ele>51</ele>
        <time>2023-11-13T19:58:37Z</time>
      </trkpt>
      <trkpt lat="47.27396" lon="-1.645">
        <ele>53</ele>
        <time>2023-11-13T20:00:02Z</time>
      </trkpt>
      <trkpt lat="47.2742" lon="-1.64493">
        <ele>54</ele>
        <time>2023-11-13T20:00:35Z</time>
      </trkpt>
      <trkpt lat="47.27425" lon="-1.64495">
        <ele>54</ele>
        <time>2023-11-13T20:00:41Z</time>
      </trkpt>
      <trkpt lat="47.27447" lon="-1.64494">
        <ele>55</ele>
        <time>2023-11-13T20:01:11Z</time>
      </trkpt>
      <trkpt lat="47.27455" lon="-1.64493">
        <ele>56</ele>
        <time>2023-11-13T20:01:22Z</time>
      </trkpt>
      <trkpt lat="47.2747" lon="-1.64493">
        <ele>57</ele>
        <time>2023-11-13T20:01:42Z</time>
      </trkpt>
      <trkpt lat="47.27499" lon="-1.64482">
        <ele>58</ele>
        <time>2023-11-13T20:02:22Z</time>
      </trkpt>
      <trkpt lat="47.27519" lon="-1.64467">
        <ele>59</ele>
        <time>2023-11-13T20:02:51Z</time>
      </trkpt>
      <trkpt lat="47.27554" lon="-1.64452">
        <ele>60</ele>
        <time>2023-11-13T20:03:40Z</time>
      </trkpt>
      <trkpt lat="47.27558" lon="-1.64464">
        <ele>60</ele>
        <time>2023-11-13T20:03:52Z</time>
      </trkpt>
      <trkpt lat="47.27563" lon="-1.64497">
        <ele>60</ele>
        <time>2023-11-13T20:04:23Z</time>
      </trkpt>
      <trkpt lat="47.27566" lon="-1.64532">
        <ele>59</ele>
        <time>2023-11-13T20:04:55Z</time>
      </trkpt>
      <trkpt lat="47.27565" lon="-1.64535">
        <ele>59</ele>
        <time>2023-11-13T20:04:58Z</time>
      </trkpt>
      <trkpt lat="47.27563" lon="-1.64562">
        <ele>58</ele>
        <time>2023-11-13T20:05:22Z</time>
      </trkpt>
      <trkpt lat="47.27566" lon="-1.64588">
        <ele>58</ele>
        <time>2023-11-13T20:05:46Z</time>
      </trkpt>
      <trkpt lat="47.27559" lon="-1.64608">
        <ele>58</ele>
        <time>2023-11-13T20:06:07Z</time>
      </trkpt>
      <trkpt lat="47.27556" lon="-1.64636">
        <ele>58</ele>
        <time>2023-11-13T20:06:32Z</time>
      </trkpt>
      <trkpt lat="47.2755" lon="-1.64703">
        <ele>59</ele>
        <time>2023-11-13T20:07:33Z</time>
      </trkpt>
      <trkpt lat="47.2755" lon="-1.64722">
        <ele>60</ele>
        <time>2023-11-13T20:07:51Z</time>
      </trkpt>
      <trkpt lat="47.27546" lon="-1.64751">
        <ele>61</ele>
        <time>2023-11-13T20:08:17Z</time>
      </trkpt>
      <trkpt lat="47.27534" lon="-1.64794">
        <ele>61</ele>
        <time>2023-11-13T20:09:00Z</time>
      </trkpt>
      <trkpt lat="47.27529" lon="-1.64843">
        <ele>62</ele>
        <time>2023-11-13T20:09:44Z</time>
      </trkpt>
      <trkpt lat="47.27535" lon="-1.64902">
        <ele>62</ele>
        <time>2023-11-13T20:10:38Z</time>
      </trkpt>
      <trkpt lat="47.27535" lon="-1.64938">
        <ele>62</ele>
        <time>2023-11-13T20:11:11Z</time>
      </trkpt>
      <trkpt lat="47.27537" lon="-1.64951">
        <ele>62</ele>
        <time>2023-11-13T20:11:23Z</time>
      </trkpt>
      <trkpt lat="47.27536" lon="-1.64997">
        <ele>61</ele>
        <time>2023-11-13T20:12:05Z</time>
      </trkpt>
      <trkpt lat="47.27551" lon="-1.65083">
        <ele>61</ele>
        <time>2023-11-13T20:13:25Z</time>
      </trkpt>
      <trkpt lat="47.2755" lon="-1.65089">
        <ele>61</ele>
        <time>2023-11-13T20:13:31Z</time>
      </trkpt>
      <trkpt lat="47.27557" lon="-1.65112">
        <ele>62</ele>
        <time>2023-11-13T20:13:54Z</time>
      </trkpt>
      <trkpt lat="47.27577" lon="-1.65159">
        <ele>64</ele>
        <time>2023-11-13T20:14:44Z</time>
      </trkpt>
      <trkpt lat="47.27589" lon="-1.65197">
        <ele>64</ele>
        <time>2023-11-13T20:15:22Z</time>
      </trkpt>
      <trkpt lat="47.27603" lon="-1.65227">
        <ele>63</ele>
        <time>2023-11-13T20:15:55Z</time>
      </trkpt>
      <trkpt lat="47.27613" lon="-1.65244">
        <ele>62</ele>
        <time>2023-11-13T20:16:15Z</time>
      </trkpt>
      <trkpt lat="47.27626" lon="-1.65253">
        <ele>62</ele>
        <time>2023-11-13T20:16:34Z</time>
      </trkpt>
      <trkpt lat="47.27633" lon="-1.65252">
        <ele>62</ele>
        <time>2023-11-13T20:16:44Z</time>
      </trkpt>
      <trkpt lat="47.2764" lon="-1.6525">
        <ele>62</ele>
        <time>2023-11-13T20:16:53Z</time>
      </trkpt>
      <trkpt lat="47.27634" lon="-1.65253">
        <ele>62</ele>
        <time>2023-11-13T20:17:02Z</time>
      </trkpt>
      <trkpt lat="47.27632" lon="-1.65253">
        <ele>62</ele>
        <time>2023-11-13T20:17:04Z</time>
      </trkpt>
      <trkpt lat="47.27617" lon="-1.6524">
        <ele>62</ele>
        <time>2023-11-13T20:17:28Z</time>
      </trkpt>
      <trkpt lat="47.27607" lon="-1.65225">
        <ele>63</ele>
        <time>2023-11-13T20:17:47Z</time>
      </trkpt>
      <trkpt lat="47.2761" lon="-1.65233">
        <ele>62</ele>
        <time>2023-11-13T20:17:55Z</time>
      </trkpt>
      <trkpt lat="47.27617" lon="-1.65236">
        <ele>62</ele>
        <time>2023-11-13T20:18:05Z</time>
      </trkpt>
      <trkpt lat="47.27625" lon="-1.65258">
        <ele>62</ele>
        <time>2023-11-13T20:18:27Z</time>
      </trkpt>
      <trkpt lat="47.27645" lon="-1.65321">
        <ele>59</ele>
        <time>2023-11-13T20:19:30Z</time>
      </trkpt>
      <trkpt lat="47.27661" lon="-1.65345">
        <ele>58</ele>
        <time>2023-11-13T20:20:01Z</time>
      </trkpt>
      <trkpt lat="47.27689" lon="-1.65359">
        <ele>58</ele>
        <time>2023-11-13T20:20:40Z</time>
      </trkpt>
      <trkpt lat="47.27704" lon="-1.65418">
        <ele>58</ele>
        <time>2023-11-13T20:21:37Z</time>
      </trkpt>
      <trkpt lat="47.27721" lon="-1.65443">
        <ele>59</ele>
        <time>2023-11-13T20:22:09Z</time>
      </trkpt>
      <trkpt lat="47.27728" lon="-1.65449">
        <ele>60</ele>
        <time>2023-11-13T20:22:20Z</time>
      </trkpt>
      <trkpt lat="47.27745" lon="-1.65452">
        <ele>61</ele>
        <time>2023-11-13T20:22:43Z</time>
      </trkpt>
      <trkpt lat="47.27769" lon="-1.65451">
        <ele>61</ele>
        <time>2023-11-13T20:23:15Z</time>
      </trkpt>
      <trkpt lat="47.27803" lon="-1.65458">
        <ele>60</ele>
        <time>2023-11-13T20:24:01Z</time>
      </trkpt>
      <trkpt lat="47.2782" lon="-1.65456">
        <ele>60</ele>
        <time>2023-11-13T20:24:23Z</time>
      </trkpt>
      <trkpt lat="47.2784" lon="-1.65464">
        <ele>60</ele>
        <time>2023-11-13T20:24:51Z</time>
      </trkpt>
      <trkpt lat="47.27856" lon="-1.65466">
        <ele>60</ele>
        <time>2023-11-13T20:25:13Z</time>
      </trkpt>
      <trkpt lat="47.27879" lon="-1.65479">
        <ele>60</ele>
        <time>2023-11-13T20:25:45Z</time>
      </trkpt>
      <trkpt lat="47.279" lon="-1.65507">
        <ele>61</ele>
        <time>2023-11-13T20:26:23Z</time>
      </trkpt>
      <trkpt lat="47.27905" lon="-1.65525">
        <ele>61</ele>
        <time>2023-11-13T20:26:41Z</time>
      </trkpt>
      <trkpt lat="47.2791" lon="-1.65584">
        <ele>61</ele>
        <time>2023-11-13T20:27:35Z</time>
      </trkpt>
      <trkpt lat="47.27918" lon="-1.65638">
        <ele>62</ele>
        <time>2023-11-13T20:28:25Z</time>
      </trkpt>
      <trkpt lat="47.27919" lon="-1.65665">
        <ele>62</ele>
        <time>2023-11-13T20:28:49Z</time>
      </trkpt>
      <trkpt lat="47.27917" lon="-1.65688">
        <ele>62</ele>
        <time>2023-11-13T20:29:10Z</time>
      </trkpt>
      <trkpt lat="47.27915" lon="-1.65875">
        <ele>64</ele>
        <time>2023-11-13T20:31:59Z</time>
      </trkpt>
      <trkpt lat="47.27927" lon="-1.65951">
        <ele>65</ele>
        <time>2023-11-13T20:33:10Z</time>
      </trkpt>
      <trkpt lat="47.27925" lon="-1.6597">
        <ele>65</ele>
        <time>2023-11-13T20:33:27Z</time>
      </trkpt>
      <trkpt lat="47.27927" lon="-1.65975">
        <ele>65</ele>
        <time>2023-11-13T20:33:33Z</time>
      </trkpt>
      <trkpt lat="47.27923" lon="-1.6601">
        <ele>65</ele>
        <time>2023-11-13T20:34:05Z</time>
      </trkpt>
      <trkpt lat="47.27939" lon="-1.66053">
        <ele>65</ele>
        <time>2023-11-13T20:34:49Z</time>
      </trkpt>
      <trkpt lat="47.27942" lon="-1.66069">
        <ele>65</ele>
        <time>2023-11-13T20:35:04Z</time>
      </trkpt>
      <trkpt lat="47.27949" lon="-1.66084">
        <ele>65</ele>
        <time>2023-11-13T20:35:21Z</time>
      </trkpt>
      <trkpt lat="47.27955" lon="-1.6609">
        <ele>65</ele>
        <time>2023-11-13T20:35:30Z</time>
      </trkpt>
      <trkpt lat="47.27974" lon="-1.66093">
        <ele>64</ele>
        <time>2023-11-13T20:35:56Z</time>
      </trkpt>
      <trkpt lat="47.27988" lon="-1.66093">
        <ele>63</ele>
        <time>2023-11-13T20:36:15Z</time>
      </trkpt>
      <trkpt lat="47.28049" lon="-1.66086">
        <ele>63</ele>
        <time>2023-11-13T20:37:36Z</time>
      </trkpt>
      <trkpt lat="47.281" lon="-1.66086">
        <ele>63</ele>
        <time>2023-11-13T20:38:44Z</time>
      </trkpt>
      <trkpt lat="47.28125" lon="-1.66088">
        <ele>63</ele>
        <time>2023-11-13T20:39:18Z</time>
      </trkpt>
      <trkpt lat="47.2818" lon="-1.66334">
        <ele>62</ele>
        <time>2023-11-13T20:43:12Z</time>
      </trkpt>
      <trkpt lat="47.28183" lon="-1.66366">
        <ele>63</ele>
        <time>2023-11-13T20:43:41Z</time>
      </trkpt>
      <trkpt lat="47.2818" lon="-1.66378">
        <ele>63</ele>
        <time>2023-11-13T20:43:53Z</time>
      </trkpt>
      <trkpt lat="47.2817" lon="-1.66389">
        <ele>63</ele>
        <time>2023-11-13T20:44:10Z</time>
      </trkpt>
      <trkpt lat="47.28153" lon="-1.66401">
        <ele>63</ele>
        <time>2023-11-13T20:44:35Z</time>
      </trkpt>
      <trkpt lat="47.28148" lon="-1.66403">
        <ele>63</ele>
        <time>2023-11-13T20:44:42Z</time>
      </trkpt>
      <trkpt lat="47.28127" lon="-1.66423">
        <ele>62</ele>
        <time>2023-11-13T20:45:15Z</time>
      </trkpt>
      <trkpt lat="47.28081" lon="-1.66455">
        <ele>62</ele>
        <time>2023-11-13T20:46:23Z</time>
      </trkpt>
      <trkpt lat="47.28034" lon="-1.66481">
        <ele>63</ele>
        <time>2023-11-13T20:47:30Z</time>
      </trkpt>
      <trkpt lat="47.27998" lon="-1.66498">
        <ele>64</ele>
        <time>2023-11-13T20:48:20Z</time>
      </trkpt>
      <trkpt lat="47.27994" lon="-1.66502">
        <ele>64</ele>
        <time>2023-11-13T20:48:27Z</time>
      </trkpt>
      <trkpt lat="47.27996" lon="-1.66512">
        <ele>64</ele>
        <time>2023-11-13T20:48:36Z</time>
      </trkpt>
      <trkpt lat="47.28044" lon="-1.66575">
        <ele>63</ele>
        <time>2023-11-13T20:50:02Z</time>
      </trkpt>
      <trkpt lat="47.28061" lon="-1.66591">
        <ele>62</ele>
        <time>2023-11-13T20:50:29Z</time>
      </trkpt>
      <trkpt lat="47.28087" lon="-1.66627">
        <ele>62</ele>
        <time>2023-11-13T20:51:17Z</time>
      </trkpt>
      <trkpt lat="47.28093" lon="-1.66644">
        <ele>63</ele>
        <time>2023-11-13T20:51:34Z</time>
      </trkpt>
      <trkpt lat="47.28093" lon="-1.66669">
        <ele>63</ele>
        <time>2023-11-13T20:51:57Z</time>
      </trkpt>
      <trkpt lat="47.28085" lon="-1.66701">
        <ele>63</ele>
        <time>2023-11-13T20:52:28Z</time>
      </trkpt>
      <trkpt lat="47.28071" lon="-1.66818">
        <ele>62</ele>
        <time>2023-11-13T20:54:15Z</time>
      </trkpt>
      <trkpt lat="47.28062" lon="-1.66867">
        <ele>62</ele>
        <time>2023-11-13T20:55:01Z</time>
      </trkpt>
      <trkpt lat="47.28061" lon="-1.66883">
        <ele>62</ele>
        <time>2023-11-13T20:55:16Z</time>
      </trkpt>
      <trkpt lat="47.28041" lon="-1.66988">
        <ele>62</ele>
        <time>2023-11-13T20:56:54Z</time>
      </trkpt>
      <trkpt lat="47.2802" lon="-1.67085">
        <ele>63</ele>
        <time>2023-11-13T20:58:26Z</time>
      </trkpt>
      <trkpt lat="47.28" lon="-1.67146">
        <ele>62</ele>
        <time>2023-11-13T20:59:28Z</time>
      </trkpt>
      <trkpt lat="47.27978" lon="-1.67233">
        <ele>62</ele>
        <time>2023-11-13T21:00:52Z</time>
      </trkpt>
      <trkpt lat="47.27961" lon="-1.6728">
        <ele>62</ele>
        <time>2023-11-13T21:01:40Z</time>
      </trkpt>
      <trkpt lat="47.2793" lon="-1.67391">
        <ele>62</ele>
        <time>2023-11-13T21:03:29Z</time>
      </trkpt>
      <trkpt lat="47.2792" lon="-1.6742">
        <ele>62</ele>
        <time>2023-11-13T21:03:58Z</time>
      </trkpt>
      <trkpt lat="47.27922" lon="-1.67431">
        <ele>61</ele>
        <time>2023-11-13T21:04:09Z</time>
      </trkpt>
      <trkpt lat="47.27927" lon="-1.67433">
        <ele>61</ele>
        <time>2023-11-13T21:04:15Z</time>
      </trkpt>
      <trkpt lat="47.27937" lon="-1.67441">
        <ele>60</ele>
        <time>2023-11-13T21:04:31Z</time>
      </trkpt>
      <trkpt lat="47.27964" lon="-1.67447">
        <ele>60</ele>
        <time>2023-11-13T21:05:07Z</time>
      </trkpt>
      <trkpt lat="47.28007" lon="-1.67473">
        <ele>59</ele>
        <time>2023-11-13T21:06:09Z</time>
      </trkpt>
      <trkpt lat="47.28009" lon="-1.67516">
        <ele>58</ele>
        <time>2023-11-13T21:06:48Z</time>
      </trkpt>
      <trkpt lat="47.28006" lon="-1.67539">
        <ele>59</ele>
        <time>2023-11-13T21:07:09Z</time>
      </trkpt>
      <trkpt lat="47.27993" lon="-1.67713">
        <ele>58</ele>
        <time>2023-11-13T21:09:48Z</time>
      </trkpt>
      <trkpt lat="47.27977" lon="-1.67745">
        <ele>57</ele>
        <time>2023-11-13T21:10:24Z</time>
      </trkpt>
      <trkpt lat="47.27929" lon="-1.6775">
        <ele>57</ele>
        <time>2023-11-13T21:11:28Z</time>
      </trkpt>
      <trkpt lat="47.27873" lon="-1.67778">
        <ele>59</ele>
        <time>2023-11-13T21:12:47Z</time>
      </trkpt>
      <trkpt lat="47.27849" lon="-1.67771">
        <ele>60</ele>
        <time>2023-11-13T21:13:20Z</time>
      </trkpt>
      <trkpt lat="47.27824" lon="-1.67773">
        <ele>61</ele>
        <time>2023-11-13T21:13:53Z</time>
      </trkpt>
      <trkpt lat="47.2781" lon="-1.6778">
        <ele>61</ele>
        <time>2023-11-13T21:14:13Z</time>
      </trkpt>
      <trkpt lat="47.27791" lon="-1.67807">
        <ele>60</ele>
        <time>2023-11-13T21:14:48Z</time>
      </trkpt>
      <trkpt lat="47.27761" lon="-1.67836">
        <ele>60</ele>
        <time>2023-11-13T21:15:36Z</time>
      </trkpt>
      <trkpt lat="47.27707" lon="-1.67905">
        <ele>60</ele>
        <time>2023-11-13T21:17:11Z</time>
      </trkpt>
      <trkpt lat="47.27636" lon="-1.68017">
        <ele>62</ele>
        <time>2023-11-13T21:19:30Z</time>
      </trkpt>
      <trkpt lat="47.27625" lon="-1.68046">
        <ele>61</ele>
        <time>2023-11-13T21:20:00Z</time>
      </trkpt>
      <trkpt lat="47.27623" lon="-1.68029">
        <ele>62</ele>
        <time>2023-11-13T21:20:16Z</time>
      </trkpt>
      <trkpt lat="47.27576" lon="-1.68022">
        <ele>62</ele>
        <time>2023-11-13T21:21:19Z</time>
      </trkpt>
      <trkpt lat="47.27562" lon="-1.68023">
        <ele>62</ele>
        <time>2023-11-13T21:21:37Z</time>
      </trkpt>
      <trkpt lat="47.27552" lon="-1.68041">
        <ele>62</ele>
        <time>2023-11-13T21:21:58Z</time>
      </trkpt>
      <trkpt lat="47.27538" lon="-1.68043">
        <ele>62</ele>
        <time>2023-11-13T21:22:17Z</time>
      </trkpt>
      <trkpt lat="47.27529" lon="-1.68075">
        <ele>61</ele>
        <time>2023-11-13T21:22:49Z</time>
      </trkpt>
      <trkpt lat="47.27518" lon="-1.6814">
        <ele>60</ele>
        <time>2023-11-13T21:23:49Z</time>
      </trkpt>
      <trkpt lat="47.27509" lon="-1.68213">
        <ele>60</ele>
        <time>2023-11-13T21:24:56Z</time>
      </trkpt>
      <trkpt lat="47.27507" lon="-1.68247">
        <ele>59</ele>
        <time>2023-11-13T21:25:27Z</time>
      </trkpt>
      <trkpt lat="47.2751" lon="-1.68288">
        <ele>58</ele>
        <time>2023-11-13T21:26:05Z</time>
      </trkpt>
      <trkpt lat="47.27505" lon="-1.68347">
        <ele>57</ele>
        <time>2023-11-13T21:26:58Z</time>
      </trkpt>
      <trkpt lat="47.27498" lon="-1.68361">
        <ele>56</ele>
        <time>2023-11-13T21:27:14Z</time>
      </trkpt>
      <trkpt lat="47.27496" lon="-1.68368">
        <ele>55</ele>
        <time>2023-11-13T21:27:21Z</time>
      </trkpt>
      <trkpt lat="47.27489" lon="-1.68377">
        <ele>54</ele>
        <time>2023-11-13T21:27:33Z</time>
      </trkpt>
      <trkpt lat="47.27464" lon="-1.68413">
        <ele>49</ele>
        <time>2023-11-13T21:28:20Z</time>
      </trkpt>
      <trkpt lat="47.27472" lon="-1.68435">
        <ele>49</ele>
        <time>2023-11-13T21:28:43Z</time>
      </trkpt>
      <trkpt lat="47.2747" lon="-1.68457">
        <ele>48</ele>
        <time>2023-11-13T21:29:03Z</time>
      </trkpt>
      <trkpt lat="47.27471" lon="-1.68488">
        <ele>48</ele>
        <time>2023-11-13T21:29:31Z</time>
      </trkpt>
      <trkpt lat="47.27463" lon="-1.68503">
        <ele>47</ele>
        <time>2023-11-13T21:29:48Z</time>
      </trkpt>
      <trkpt lat="47.27454" lon="-1.68509">
        <ele>46</ele>
        <time>2023-11-13T21:30:01Z</time>
      </trkpt>
      <trkpt lat="47.27445" lon="-1.68522">
        <ele>46</ele>
        <time>2023-11-13T21:30:18Z</time>
      </trkpt>
      <trkpt lat="47.27454" lon="-1.68532">
        <ele>48</ele>
        <time>2023-11-13T21:30:33Z</time>
      </trkpt>
      <trkpt lat="47.27432" lon="-1.68555">
        <ele>49</ele>
        <time>2023-11-13T21:31:09Z</time>
      </trkpt>
      <trkpt lat="47.27423" lon="-1.68568">
        <ele>50</ele>
        <time>2023-11-13T21:31:26Z</time>
      </trkpt>
      <trkpt lat="47.2741" lon="-1.6857">
        <ele>50</ele>
        <time>2023-11-13T21:31:43Z</time>
      </trkpt>
      <trkpt lat="47.274" lon="-1.68582">
        <ele>51</ele>
        <time>2023-11-13T21:32:01Z</time>
      </trkpt>
      <trkpt lat="47.27396" lon="-1.68597">
        <ele>52</ele>
        <time>2023-11-13T21:32:15Z</time>
      </trkpt>
      <trkpt lat="47.27376" lon="-1.6862">
        <ele>53</ele>
        <time>2023-11-13T21:32:49Z</time>
      </trkpt>
      <trkpt lat="47.27337" lon="-1.6868">
        <ele>55</ele>
        <time>2023-11-13T21:34:04Z</time>
      </trkpt>
      <trkpt lat="47.27318" lon="-1.68701">
        <ele>57</ele>
        <time>2023-11-13T21:34:36Z</time>
      </trkpt>
      <trkpt lat="47.27297" lon="-1.68712">
        <ele>58</ele>
        <time>2023-11-13T21:35:06Z</time>
      </trkpt>
      <trkpt lat="47.27276" lon="-1.68725">
        <ele>59</ele>
        <time>2023-11-13T21:35:36Z</time>
      </trkpt>
      <trkpt lat="47.27258" lon="-1.68742">
        <ele>61</ele>
        <time>2023-11-13T21:36:05Z</time>
      </trkpt>
      <trkpt lat="47.2722" lon="-1.68791">
        <ele>64</ele>
        <time>2023-11-13T21:37:12Z</time>
      </trkpt>
      <trkpt lat="47.27202" lon="-1.68823">
        <ele>65</ele>
        <time>2023-11-13T21:37:50Z</time>
      </trkpt>
      <trkpt lat="47.27195" lon="-1.68828">
        <ele>66</ele>
        <time>2023-11-13T21:38:00Z</time>
      </trkpt>
      <trkpt lat="47.27182" lon="-1.68852">
        <ele>67</ele>
        <time>2023-11-13T21:38:28Z</time>
      </trkpt>
      <trkpt lat="47.27175" lon="-1.6887">
        <ele>67</ele>
        <time>2023-11-13T21:38:47Z</time>
      </trkpt>
      <trkpt lat="47.2716" lon="-1.6886">
        <ele>67</ele>
        <time>2023-11-13T21:39:09Z</time>
      </trkpt>
      <trkpt lat="47.27132" lon="-1.68824">
        <ele>67</ele>
        <time>2023-11-13T21:39:58Z</time>
      </trkpt>
      <trkpt lat="47.27081" lon="-1.68776">
        <ele>66</ele>
        <time>2023-11-13T21:41:19Z</time>
      </trkpt>
      <trkpt lat="47.27091" lon="-1.68751">
        <ele>66</ele>
        <time>2023-11-13T21:41:45Z</time>
      </trkpt>
      <trkpt lat="47.27107" lon="-1.68732">
        <ele>66</ele>
        <time>2023-11-13T21:42:13Z</time>
      </trkpt>
      <trkpt lat="47.27115" lon="-1.68699">
        <ele>65</ele>
        <time>2023-11-13T21:42:44Z</time>
      </trkpt>
      <trkpt lat="47.27099" lon="-1.68673">
        <ele>65</ele>
        <time>2023-11-13T21:43:16Z</time>
      </trkpt>
      <trkpt lat="47.27094" lon="-1.68658">
        <ele>65</ele>
        <time>2023-11-13T21:43:31Z</time>
      </trkpt>
      <trkpt lat="47.27085" lon="-1.68651">
        <ele>65</ele>
        <time>2023-11-13T21:43:45Z</time>
      </trkpt>
      <trkpt lat="47.27072" lon="-1.68631">
        <ele>65</ele>
        <time>2023-11-13T21:44:10Z</time>
      </trkpt>
      <trkpt lat="47.27079" lon="-1.68606">
        <ele>64</ele>
        <time>2023-11-13T21:44:35Z</time>
      </trkpt>
      <trkpt lat="47.27103" lon="-1.68556">
        <ele>61</ele>
        <time>2023-11-13T21:45:30Z</time>
      </trkpt>
      <trkpt lat="47.27101" lon="-1.68521">
        <ele>59</ele>
        <time>2023-11-13T21:46:02Z</time>
      </trkpt>
      <trkpt lat="47.27119" lon="-1.68509">
        <ele>58</ele>
        <time>2023-11-13T21:46:28Z</time>
      </trkpt>
      <trkpt lat="47.27135" lon="-1.68506">
        <ele>58</ele>
        <time>2023-11-13T21:46:50Z</time>
      </trkpt>
      <trkpt lat="47.27151" lon="-1.68499">
        <ele>57</ele>
        <time>2023-11-13T21:47:12Z</time>
      </trkpt>
      <trkpt lat="47.27162" lon="-1.685">
        <ele>57</ele>
        <time>2023-11-13T21:47:27Z</time>
      </trkpt>
      <trkpt lat="47.27176" lon="-1.68491">
        <ele>56</ele>
        <time>2023-11-13T21:47:47Z</time>
      </trkpt>
      <trkpt lat="47.27189" lon="-1.68477">
        <ele>56</ele>
        <time>2023-11-13T21:48:09Z</time>
      </trkpt>
      <trkpt lat="47.27217" lon="-1.6843">
        <ele>55</ele>
        <time>2023-11-13T21:49:05Z</time>
      </trkpt>
      <trkpt lat="47.27202" lon="-1.6841">
        <ele>54</ele>
        <time>2023-11-13T21:49:32Z</time>
      </trkpt>
      <trkpt lat="47.27197" lon="-1.68407">
        <ele>54</ele>
        <time>2023-11-13T21:49:39Z</time>
      </trkpt>
      <trkpt lat="47.27179" lon="-1.68362">
        <ele>52</ele>
        <time>2023-11-13T21:50:27Z</time>
      </trkpt>
      <trkpt lat="47.27177" lon="-1.68352">
        <ele>51</ele>
        <time>2023-11-13T21:50:36Z</time>
      </trkpt>
      <trkpt lat="47.2716" lon="-1.68313">
        <ele>49</ele>
        <time>2023-11-13T21:51:18Z</time>
      </trkpt>
      <trkpt lat="47.27146" lon="-1.68271">
        <ele>47</ele>
        <time>2023-11-13T21:52:00Z</time>
      </trkpt>
      <trkpt lat="47.27135" lon="-1.6825">
        <ele>46</ele>
        <time>2023-11-13T21:52:24Z</time>
      </trkpt>
      <trkpt lat="47.27131" lon="-1.68249">
        <ele>46</ele>
        <time>2023-11-13T21:52:30Z</time>
      </trkpt>
      <trkpt lat="47.2711" lon="-1.68221">
        <ele>46</ele>
        <time>2023-11-13T21:53:08Z</time>
      </trkpt>
      <trkpt lat="47.2709" lon="-1.68197">
        <ele>46</ele>
        <time>2023-11-13T21:53:42Z</time>
      </trkpt>
      <trkpt lat="47.27087" lon="-1.6819">
        <ele>46</ele>
        <time>2023-11-13T21:53:50Z</time>
      </trkpt>
      <trkpt lat="47.27076" lon="-1.68176">
        <ele>47</ele>
        <time>2023-11-13T21:54:09Z</time>
      </trkpt>
      <trkpt lat="47.27086" lon="-1.6815">
        <ele>45</ele>
        <time>2023-11-13T21:54:36Z</time>
      </trkpt>
      <trkpt lat="47.27089" lon="-1.6813">
        <ele>44</ele>
        <time>2023-11-13T21:54:55Z</time>
      </trkpt>
      <trkpt lat="47.27083" lon="-1.68112">
        <ele>43</ele>
        <time>2023-11-13T21:55:13Z</time>
      </trkpt>
      <trkpt lat="47.27076" lon="-1.68105">
        <ele>45</ele>
        <time>2023-11-13T21:55:24Z</time>
      </trkpt>
      <trkpt lat="47.27064" lon="-1.68084">
        <ele>46</ele>
        <time>2023-11-13T21:55:49Z</time>
      </trkpt>
      <trkpt lat="47.2704" lon="-1.68029">
        <ele>51</ele>
        <time>2023-11-13T21:56:48Z</time>
      </trkpt>
      <trkpt lat="47.27047" lon="-1.67976">
        <ele>49</ele>
        <time>2023-11-13T21:57:37Z</time>
      </trkpt>
      <trkpt lat="47.27046" lon="-1.67948">
        <ele>50</ele>
        <time>2023-11-13T21:58:02Z</time>
      </trkpt>
      <trkpt lat="47.27057" lon="-1.67926">
        <ele>48</ele>
        <time>2023-11-13T21:58:27Z</time>
      </trkpt>
      <trkpt lat="47.27068" lon="-1.67888">
        <ele>47</ele>
        <time>2023-11-13T21:59:05Z</time>
      </trkpt>
      <trkpt lat="47.2708" lon="-1.67862">
        <ele>45</ele>
        <time>2023-11-13T21:59:33Z</time>
      </trkpt>
      <trkpt lat="47.27084" lon="-1.67834">
        <ele>45</ele>
        <time>2023-11-13T21:59:59Z</time>
      </trkpt>
      <trkpt lat="47.27099" lon="-1.67787">
        <ele>47</ele>
        <time>2023-11-13T22:00:46Z</time>
      </trkpt>
      <trkpt lat="47.271" lon="-1.67762">
        <ele>48</ele>
        <time>2023-11-13T22:01:09Z</time>
      </trkpt>
      <trkpt lat="47.2712" lon="-1.67709">
        <ele>47</ele>
        <time>2023-11-13T22:02:04Z</time>
      </trkpt>
      <trkpt lat="47.27113" lon="-1.6764">
        <ele>47</ele>
        <time>2023-11-13T22:03:07Z</time>
      </trkpt>
      <trkpt lat="47.27106" lon="-1.67625">
        <ele>46</ele>
        <time>2023-11-13T22:03:23Z</time>
      </trkpt>
      <trkpt lat="47.27104" lon="-1.6761">
        <ele>45</ele>
        <time>2023-11-13T22:03:37Z</time>
      </trkpt>
      <trkpt lat="47.2708" lon="-1.6754">
        <ele>43</ele>
        <time>2023-11-13T22:04:48Z</time>
      </trkpt>
      <trkpt lat="47.27084" lon="-1.67524">
        <ele>42</ele>
        <time>2023-11-13T22:05:03Z</time>
      </trkpt>
      <trkpt lat="47.2708" lon="-1.67502">
        <ele>41</ele>
        <time>2023-11-13T22:05:24Z</time>
      </trkpt>
      <trkpt lat="47.2708" lon="-1.67477">
        <ele>41</ele>
        <time>2023-11-13T22:05:47Z</time>
      </trkpt>
      <trkpt lat="47.27082" lon="-1.67472">
        <ele>41</ele>
        <time>2023-11-13T22:05:52Z</time>
      </trkpt>
      <trkpt lat="47.27082" lon="-1.6744">
        <ele>41</ele>
        <time>2023-11-13T22:06:21Z</time>
      </trkpt>
      <trkpt lat="47.27078" lon="-1.67427">
        <ele>41</ele>
        <time>2023-11-13T22:06:34Z</time>
      </trkpt>
      <trkpt lat="47.2708" lon="-1.67365">
        <ele>39</ele>
        <time>2023-11-13T22:07:30Z</time>
      </trkpt>
      <trkpt lat="47.27083" lon="-1.67358">
        <ele>39</ele>
        <time>2023-11-13T22:07:38Z</time>
      </trkpt>
      <trkpt lat="47.27092" lon="-1.6735">
        <ele>39</ele>
        <time>2023-11-13T22:07:52Z</time>
      </trkpt>
      <trkpt lat="47.27115" lon="-1.6736">
        <ele>41</ele>
        <time>2023-11-13T22:08:24Z</time>
      </trkpt>
      <trkpt lat="47.27122" lon="-1.67354">
        <ele>41</ele>
        <time>2023-11-13T22:08:34Z</time>
      </trkpt>
      <trkpt lat="47.27128" lon="-1.6733">
        <ele>41</ele>
        <time>2023-11-13T22:08:58Z</time>
      </trkpt>
      <trkpt lat="47.27143" lon="-1.6729">
        <ele>43</ele>
        <time>2023-11-13T22:09:39Z</time>
      </trkpt>
      <trkpt lat="47.27142" lon="-1.67262">
        <ele>44</ele>
        <time>2023-11-13T22:10:04Z</time>
      </trkpt>
      <trkpt lat="47.27141" lon="-1.67259">
        <ele>44</ele>
        <time>2023-11-13T22:10:07Z</time>
      </trkpt>
      <trkpt lat="47.27134" lon="-1.67226">
        <ele>46</ele>
        <time>2023-11-13T22:10:39Z</time>
      </trkpt>
      <trkpt lat="47.27116" lon="-1.67197">
        <ele>47</ele>
        <time>2023-11-13T22:11:14Z</time>
      </trkpt>
      <trkpt lat="47.27101" lon="-1.67181">
        <ele>47</ele>
        <time>2023-11-13T22:11:39Z</time>
      </trkpt>
      <trkpt lat="47.27082" lon="-1.67179">
        <ele>45</ele>
        <time>2023-11-13T22:12:04Z</time>
      </trkpt>
      <trkpt lat="47.27067" lon="-1.67171">
        <ele>46</ele>
        <time>2023-11-13T22:12:26Z</time>
      </trkpt>
      <trkpt lat="47.27009" lon="-1.6717">
        <ele>42</ele>
        <time>2023-11-13T22:13:43Z</time>
      </trkpt>
      <trkpt lat="47.26995" lon="-1.67177">
        <ele>41</ele>
        <time>2023-11-13T22:14:03Z</time>
      </trkpt>
      <trkpt lat="47.26958" lon="-1.67184">
        <ele>41</ele>
        <time>2023-11-13T22:14:53Z</time>
      </trkpt>
      <trkpt lat="47.26928" lon="-1.67194">
        <ele>41</ele>
        <time>2023-11-13T22:15:34Z</time>
      </trkpt>
      <trkpt lat="47.26901" lon="-1.67193">
        <ele>41</ele>
        <time>2023-11-13T22:16:10Z</time>
      </trkpt>
      <trkpt lat="47.26868" lon="-1.67164">
        <ele>40</ele>
        <time>2023-11-13T22:17:01Z</time>
      </trkpt>
      <trkpt lat="47.26858" lon="-1.67148">
        <ele>40</ele>
        <time>2023-11-13T22:17:21Z</time>
      </trkpt>
      <trkpt lat="47.26833" lon="-1.67141">
        <ele>40</ele>
        <time>2023-11-13T22:17:55Z</time>
      </trkpt>
      <trkpt lat="47.26802" lon="-1.67141">
        <ele>42</ele>
        <time>2023-11-13T22:18:36Z</time>
      </trkpt>
      <trkpt lat="47.26793" lon="-1.67133">
        <ele>43</ele>
        <time>2023-11-13T22:18:50Z</time>
      </trkpt>
      <trkpt lat="47.26805" lon="-1.67124">
        <ele>43</ele>
        <time>2023-11-13T22:19:08Z</time>
      </trkpt>
    </trkseg>
  </trk>
  <trk>
    <name><![CDATA[Sautron_Manoirs_19.25km-14184746]]></name>
    <extensions>
      <line xmlns="http://www.topografix.com/GPX/gpx_style/0/2">
        <color>400040</color>
        <width>4</width>
      </line>
    </extensions>
    <trkseg>
      <trkpt lat="47.26024" lon="-1.65714">
        <ele>63</ele>
        <time>2023-11-13T18:59:46Z</time>
      </trkpt>
      <trkpt lat="47.26008" lon="-1.65772">
        <ele>63</ele>
        <time>2023-11-13T19:00:43Z</time>
      </trkpt>
      <trkpt lat="47.26026" lon="-1.65886">
        <ele>62</ele>
        <time>2023-11-13T19:02:29Z</time>
      </trkpt>
      <trkpt lat="47.26042" lon="-1.65904">
        <ele>62</ele>
        <time>2023-11-13T19:02:56Z</time>
      </trkpt>
      <trkpt lat="47.26062" lon="-1.65895">
        <ele>63</ele>
        <time>2023-11-13T19:03:23Z</time>
      </trkpt>
      <trkpt lat="47.26101" lon="-1.65884">
        <ele>63</ele>
        <time>2023-11-13T19:04:16Z</time>
      </trkpt>
      <trkpt lat="47.2612" lon="-1.65882">
        <ele>64</ele>
        <time>2023-11-13T19:04:42Z</time>
      </trkpt>
      <trkpt lat="47.26139" lon="-1.65887">
        <ele>64</ele>
        <time>2023-11-13T19:05:08Z</time>
      </trkpt>
      <trkpt lat="47.26158" lon="-1.65898">
        <ele>63</ele>
        <time>2023-11-13T19:05:35Z</time>
      </trkpt>
      <trkpt lat="47.26179" lon="-1.65902">
        <ele>63</ele>
        <time>2023-11-13T19:06:03Z</time>
      </trkpt>
      <trkpt lat="47.26241" lon="-1.65878">
        <ele>60</ele>
        <time>2023-11-13T19:07:29Z</time>
      </trkpt>
      <trkpt lat="47.26248" lon="-1.65817">
        <ele>60</ele>
        <time>2023-11-13T19:08:25Z</time>
      </trkpt>
      <trkpt lat="47.26258" lon="-1.65791">
        <ele>61</ele>
        <time>2023-11-13T19:08:52Z</time>
      </trkpt>
      <trkpt lat="47.26264" lon="-1.65764">
        <ele>61</ele>
        <time>2023-11-13T19:09:18Z</time>
      </trkpt>
      <trkpt lat="47.26275" lon="-1.65737">
        <ele>61</ele>
        <time>2023-11-13T19:09:46Z</time>
      </trkpt>
      <trkpt lat="47.26292" lon="-1.65715">
        <ele>59</ele>
        <time>2023-11-13T19:10:16Z</time>
      </trkpt>
      <trkpt lat="47.26314" lon="-1.65721">
        <ele>58</ele>
        <time>2023-11-13T19:10:46Z</time>
      </trkpt>
      <trkpt lat="47.26352" lon="-1.65715">
        <ele>55</ele>
        <time>2023-11-13T19:11:37Z</time>
      </trkpt>
      <trkpt lat="47.2637" lon="-1.65707">
        <ele>54</ele>
        <time>2023-11-13T19:12:02Z</time>
      </trkpt>
      <trkpt lat="47.26389" lon="-1.65704">
        <ele>52</ele>
        <time>2023-11-13T19:12:28Z</time>
      </trkpt>
      <trkpt lat="47.26409" lon="-1.65707">
        <ele>51</ele>
        <time>2023-11-13T19:12:54Z</time>
      </trkpt>
      <trkpt lat="47.26423" lon="-1.65729">
        <ele>50</ele>
        <time>2023-11-13T19:13:22Z</time>
      </trkpt>
      <trkpt lat="47.26458" lon="-1.65754">
        <ele>46</ele>
        <time>2023-11-13T19:14:14Z</time>
      </trkpt>
      <trkpt lat="47.26474" lon="-1.65769">
        <ele>44</ele>
        <time>2023-11-13T19:14:39Z</time>
      </trkpt>
      <trkpt lat="47.26489" lon="-1.65789">
        <ele>41</ele>
        <time>2023-11-13T19:15:06Z</time>
      </trkpt>
      <trkpt lat="47.26497" lon="-1.65814">
        <ele>39</ele>
        <time>2023-11-13T19:15:31Z</time>
      </trkpt>
      <trkpt lat="47.26515" lon="-1.65826">
        <ele>37</ele>
        <time>2023-11-13T19:15:57Z</time>
      </trkpt>
      <trkpt lat="47.2652" lon="-1.65854">
        <ele>36</ele>
        <time>2023-11-13T19:16:24Z</time>
      </trkpt>
      <trkpt lat="47.26521" lon="-1.65881">
        <ele>35</ele>
        <time>2023-11-13T19:16:48Z</time>
      </trkpt>
      <trkpt lat="47.26511" lon="-1.65907">
        <ele>33</ele>
        <time>2023-11-13T19:17:15Z</time>
      </trkpt>
      <trkpt lat="47.26514" lon="-1.65934">
        <ele>33</ele>
        <time>2023-11-13T19:17:40Z</time>
      </trkpt>
      <trkpt lat="47.26524" lon="-1.65958">
        <ele>34</ele>
        <time>2023-11-13T19:18:05Z</time>
      </trkpt>
      <trkpt lat="47.26543" lon="-1.65963">
        <ele>35</ele>
        <time>2023-11-13T19:18:31Z</time>
      </trkpt>
      <trkpt lat="47.266" lon="-1.65939">
        <ele>40</ele>
        <time>2023-11-13T19:19:50Z</time>
      </trkpt>
      <trkpt lat="47.2662" lon="-1.65938">
        <ele>43</ele>
        <time>2023-11-13T19:20:17Z</time>
      </trkpt>
      <trkpt lat="47.26639" lon="-1.65932">
        <ele>46</ele>
        <time>2023-11-13T19:20:43Z</time>
      </trkpt>
      <trkpt lat="47.26676" lon="-1.6591">
        <ele>49</ele>
        <time>2023-11-13T19:21:36Z</time>
      </trkpt>
      <trkpt lat="47.26696" lon="-1.65901">
        <ele>49</ele>
        <time>2023-11-13T19:22:04Z</time>
      </trkpt>
      <trkpt lat="47.26715" lon="-1.65896">
        <ele>48</ele>
        <time>2023-11-13T19:22:30Z</time>
      </trkpt>
      <trkpt lat="47.26754" lon="-1.65903">
        <ele>50</ele>
        <time>2023-11-13T19:23:22Z</time>
      </trkpt>
      <trkpt lat="47.26812" lon="-1.65893">
        <ele>48</ele>
        <time>2023-11-13T19:24:40Z</time>
      </trkpt>
      <trkpt lat="47.26832" lon="-1.65892">
        <ele>48</ele>
        <time>2023-11-13T19:25:07Z</time>
      </trkpt>
      <trkpt lat="47.26869" lon="-1.65878">
        <ele>49</ele>
        <time>2023-11-13T19:25:58Z</time>
      </trkpt>
      <trkpt lat="47.26886" lon="-1.65867">
        <ele>49</ele>
        <time>2023-11-13T19:26:23Z</time>
      </trkpt>
      <trkpt lat="47.26898" lon="-1.65844">
        <ele>49</ele>
        <time>2023-11-13T19:26:49Z</time>
      </trkpt>
      <trkpt lat="47.26898" lon="-1.65781">
        <ele>45</ele>
        <time>2023-11-13T19:27:46Z</time>
      </trkpt>
      <trkpt lat="47.26893" lon="-1.65752">
        <ele>43</ele>
        <time>2023-11-13T19:28:13Z</time>
      </trkpt>
      <trkpt lat="47.26878" lon="-1.6573">
        <ele>41</ele>
        <time>2023-11-13T19:28:41Z</time>
      </trkpt>
      <trkpt lat="47.26877" lon="-1.65701">
        <ele>39</ele>
        <time>2023-11-13T19:29:08Z</time>
      </trkpt>
      <trkpt lat="47.26901" lon="-1.65654">
        <ele>40</ele>
        <time>2023-11-13T19:30:01Z</time>
      </trkpt>
      <trkpt lat="47.26907" lon="-1.65626">
        <ele>40</ele>
        <time>2023-11-13T19:30:27Z</time>
      </trkpt>
      <trkpt lat="47.26925" lon="-1.65619">
        <ele>41</ele>
        <time>2023-11-13T19:30:52Z</time>
      </trkpt>
      <trkpt lat="47.26966" lon="-1.65636">
        <ele>44</ele>
        <time>2023-11-13T19:31:49Z</time>
      </trkpt>
      <trkpt lat="47.26985" lon="-1.65641">
        <ele>45</ele>
        <time>2023-11-13T19:32:15Z</time>
      </trkpt>
      <trkpt lat="47.27026" lon="-1.65646">
        <ele>47</ele>
        <time>2023-11-13T19:33:10Z</time>
      </trkpt>
      <trkpt lat="47.27045" lon="-1.65657">
        <ele>48</ele>
        <time>2023-11-13T19:33:37Z</time>
      </trkpt>
      <trkpt lat="47.27066" lon="-1.65657">
        <ele>49</ele>
        <time>2023-11-13T19:34:05Z</time>
      </trkpt>
      <trkpt lat="47.27087" lon="-1.65653">
        <ele>50</ele>
        <time>2023-11-13T19:34:33Z</time>
      </trkpt>
      <trkpt lat="47.27143" lon="-1.65634">
        <ele>51</ele>
        <time>2023-11-13T19:35:50Z</time>
      </trkpt>
      <trkpt lat="47.27161" lon="-1.65633">
        <ele>51</ele>
        <time>2023-11-13T19:36:14Z</time>
      </trkpt>
      <trkpt lat="47.27217" lon="-1.6564">
        <ele>53</ele>
        <time>2023-11-13T19:37:29Z</time>
      </trkpt>
      <trkpt lat="47.27237" lon="-1.65638">
        <ele>53</ele>
        <time>2023-11-13T19:37:56Z</time>
      </trkpt>
      <trkpt lat="47.27302" lon="-1.65719">
        <ele>55</ele>
        <time>2023-11-13T19:39:49Z</time>
      </trkpt>
      <trkpt lat="47.27331" lon="-1.65768">
        <ele>56</ele>
        <time>2023-11-13T19:40:48Z</time>
      </trkpt>
      <trkpt lat="47.27374" lon="-1.65826">
        <ele>58</ele>
        <time>2023-11-13T19:42:06Z</time>
      </trkpt>
      <trkpt lat="47.27419" lon="-1.65895">
        <ele>63</ele>
        <time>2023-11-13T19:43:33Z</time>
      </trkpt>
      <trkpt lat="47.27432" lon="-1.6592">
        <ele>64</ele>
        <time>2023-11-13T19:44:01Z</time>
      </trkpt>
      <trkpt lat="47.27448" lon="-1.65939">
        <ele>65</ele>
        <time>2023-11-13T19:44:29Z</time>
      </trkpt>
      <trkpt lat="47.27463" lon="-1.6592">
        <ele>65</ele>
        <time>2023-11-13T19:44:55Z</time>
      </trkpt>
      <trkpt lat="47.27481" lon="-1.65909">
        <ele>65</ele>
        <time>2023-11-13T19:45:21Z</time>
      </trkpt>
      <trkpt lat="47.275" lon="-1.65902">
        <ele>66</ele>
        <time>2023-11-13T19:45:47Z</time>
      </trkpt>
      <trkpt lat="47.27543" lon="-1.65878">
        <ele>66</ele>
        <time>2023-11-13T19:46:49Z</time>
      </trkpt>
      <trkpt lat="47.276" lon="-1.65852">
        <ele>65</ele>
        <time>2023-11-13T19:48:08Z</time>
      </trkpt>
      <trkpt lat="47.27621" lon="-1.65856">
        <ele>65</ele>
        <time>2023-11-13T19:48:36Z</time>
      </trkpt>
      <trkpt lat="47.27643" lon="-1.65864">
        <ele>65</ele>
        <time>2023-11-13T19:49:07Z</time>
      </trkpt>
      <trkpt lat="47.27678" lon="-1.65882">
        <ele>65</ele>
        <time>2023-11-13T19:49:56Z</time>
      </trkpt>
      <trkpt lat="47.27717" lon="-1.65896">
        <ele>65</ele>
        <time>2023-11-13T19:50:50Z</time>
      </trkpt>
      <trkpt lat="47.27735" lon="-1.65906">
        <ele>65</ele>
        <time>2023-11-13T19:51:15Z</time>
      </trkpt>
      <trkpt lat="47.2779" lon="-1.65944">
        <ele>65</ele>
        <time>2023-11-13T19:52:36Z</time>
      </trkpt>
      <trkpt lat="47.27826" lon="-1.65964">
        <ele>65</ele>
        <time>2023-11-13T19:53:28Z</time>
      </trkpt>
      <trkpt lat="47.27864" lon="-1.65982">
        <ele>65</ele>
        <time>2023-11-13T19:54:21Z</time>
      </trkpt>
      <trkpt lat="47.27904" lon="-1.65997">
        <ele>65</ele>
        <time>2023-11-13T19:55:16Z</time>
      </trkpt>
      <trkpt lat="47.27924" lon="-1.66011">
        <ele>65</ele>
        <time>2023-11-13T19:55:46Z</time>
      </trkpt>
      <trkpt lat="47.27938" lon="-1.66032">
        <ele>65</ele>
        <time>2023-11-13T19:56:12Z</time>
      </trkpt>
      <trkpt lat="47.27942" lon="-1.66061">
        <ele>65</ele>
        <time>2023-11-13T19:56:39Z</time>
      </trkpt>
      <trkpt lat="47.27951" lon="-1.66084">
        <ele>65</ele>
        <time>2023-11-13T19:57:03Z</time>
      </trkpt>
      <trkpt lat="47.2797" lon="-1.66094">
        <ele>64</ele>
        <time>2023-11-13T19:57:30Z</time>
      </trkpt>
      <trkpt lat="47.28009" lon="-1.66089">
        <ele>63</ele>
        <time>2023-11-13T19:58:22Z</time>
      </trkpt>
      <trkpt lat="47.28052" lon="-1.66087">
        <ele>63</ele>
        <time>2023-11-13T19:59:20Z</time>
      </trkpt>
      <trkpt lat="47.28129" lon="-1.66088">
        <ele>63</ele>
        <time>2023-11-13T20:01:02Z</time>
      </trkpt>
      <trkpt lat="47.28167" lon="-1.66092">
        <ele>64</ele>
        <time>2023-11-13T20:01:53Z</time>
      </trkpt>
      <trkpt lat="47.28224" lon="-1.66089">
        <ele>65</ele>
        <time>2023-11-13T20:03:09Z</time>
      </trkpt>
      <trkpt lat="47.28242" lon="-1.66085">
        <ele>65</ele>
        <time>2023-11-13T20:03:34Z</time>
      </trkpt>
      <trkpt lat="47.28327" lon="-1.66077">
        <ele>68</ele>
        <time>2023-11-13T20:05:27Z</time>
      </trkpt>
      <trkpt lat="47.28367" lon="-1.66081">
        <ele>68</ele>
        <time>2023-11-13T20:06:21Z</time>
      </trkpt>
      <trkpt lat="47.28451" lon="-1.66082">
        <ele>66</ele>
        <time>2023-11-13T20:08:13Z</time>
      </trkpt>
      <trkpt lat="47.28516" lon="-1.66075">
        <ele>65</ele>
        <time>2023-11-13T20:09:40Z</time>
      </trkpt>
      <trkpt lat="47.28535" lon="-1.66086">
        <ele>65</ele>
        <time>2023-11-13T20:10:07Z</time>
      </trkpt>
      <trkpt lat="47.28549" lon="-1.66105">
        <ele>65</ele>
        <time>2023-11-13T20:10:33Z</time>
      </trkpt>
      <trkpt lat="47.28565" lon="-1.66216">
        <ele>67</ele>
        <time>2023-11-13T20:12:15Z</time>
      </trkpt>
      <trkpt lat="47.28581" lon="-1.66367">
        <ele>69</ele>
        <time>2023-11-13T20:14:34Z</time>
      </trkpt>
      <trkpt lat="47.28596" lon="-1.66385">
        <ele>69</ele>
        <time>2023-11-13T20:14:59Z</time>
      </trkpt>
      <trkpt lat="47.28617" lon="-1.6638">
        <ele>69</ele>
        <time>2023-11-13T20:15:28Z</time>
      </trkpt>
      <trkpt lat="47.28638" lon="-1.66392">
        <ele>69</ele>
        <time>2023-11-13T20:15:58Z</time>
      </trkpt>
      <trkpt lat="47.28656" lon="-1.66384">
        <ele>70</ele>
        <time>2023-11-13T20:16:23Z</time>
      </trkpt>
      <trkpt lat="47.28669" lon="-1.66366">
        <ele>69</ele>
        <time>2023-11-13T20:16:47Z</time>
      </trkpt>
      <trkpt lat="47.2877" lon="-1.66219">
        <ele>68</ele>
        <time>2023-11-13T20:19:56Z</time>
      </trkpt>
      <trkpt lat="47.28795" lon="-1.66177">
        <ele>68</ele>
        <time>2023-11-13T20:20:47Z</time>
      </trkpt>
      <trkpt lat="47.28839" lon="-1.66115">
        <ele>67</ele>
        <time>2023-11-13T20:22:08Z</time>
      </trkpt>
      <trkpt lat="47.28869" lon="-1.66067">
        <ele>67</ele>
        <time>2023-11-13T20:23:07Z</time>
      </trkpt>
      <trkpt lat="47.28926" lon="-1.65984">
        <ele>67</ele>
        <time>2023-11-13T20:24:54Z</time>
      </trkpt>
      <trkpt lat="47.28948" lon="-1.65991">
        <ele>68</ele>
        <time>2023-11-13T20:25:24Z</time>
      </trkpt>
      <trkpt lat="47.28966" lon="-1.66011">
        <ele>68</ele>
        <time>2023-11-13T20:25:54Z</time>
      </trkpt>
      <trkpt lat="47.28996" lon="-1.66051">
        <ele>68</ele>
        <time>2023-11-13T20:26:48Z</time>
      </trkpt>
      <trkpt lat="47.29025" lon="-1.66095">
        <ele>68</ele>
        <time>2023-11-13T20:27:44Z</time>
      </trkpt>
      <trkpt lat="47.29043" lon="-1.66117">
        <ele>68</ele>
        <time>2023-11-13T20:28:15Z</time>
      </trkpt>
      <trkpt lat="47.29058" lon="-1.66143">
        <ele>68</ele>
        <time>2023-11-13T20:28:46Z</time>
      </trkpt>
      <trkpt lat="47.29114" lon="-1.66224">
        <ele>67</ele>
        <time>2023-11-13T20:30:30Z</time>
      </trkpt>
      <trkpt lat="47.29152" lon="-1.66211">
        <ele>67</ele>
        <time>2023-11-13T20:31:22Z</time>
      </trkpt>
      <trkpt lat="47.29172" lon="-1.66209">
        <ele>67</ele>
        <time>2023-11-13T20:31:49Z</time>
      </trkpt>
      <trkpt lat="47.29187" lon="-1.66228">
        <ele>67</ele>
        <time>2023-11-13T20:32:16Z</time>
      </trkpt>
      <trkpt lat="47.29199" lon="-1.6625">
        <ele>66</ele>
        <time>2023-11-13T20:32:41Z</time>
      </trkpt>
      <trkpt lat="47.29217" lon="-1.66269">
        <ele>66</ele>
        <time>2023-11-13T20:33:11Z</time>
      </trkpt>
      <trkpt lat="47.2923" lon="-1.66294">
        <ele>66</ele>
        <time>2023-11-13T20:33:39Z</time>
      </trkpt>
      <trkpt lat="47.29248" lon="-1.66378">
        <ele>66</ele>
        <time>2023-11-13T20:34:59Z</time>
      </trkpt>
      <trkpt lat="47.29259" lon="-1.66402">
        <ele>67</ele>
        <time>2023-11-13T20:35:25Z</time>
      </trkpt>
      <trkpt lat="47.29306" lon="-1.66468">
        <ele>68</ele>
        <time>2023-11-13T20:36:52Z</time>
      </trkpt>
      <trkpt lat="47.29343" lon="-1.66537">
        <ele>68</ele>
        <time>2023-11-13T20:38:11Z</time>
      </trkpt>
      <trkpt lat="47.29373" lon="-1.66611">
        <ele>68</ele>
        <time>2023-11-13T20:39:29Z</time>
      </trkpt>
      <trkpt lat="47.29388" lon="-1.66632">
        <ele>69</ele>
        <time>2023-11-13T20:39:57Z</time>
      </trkpt>
      <trkpt lat="47.29399" lon="-1.66657">
        <ele>69</ele>
        <time>2023-11-13T20:40:24Z</time>
      </trkpt>
      <trkpt lat="47.29405" lon="-1.66685">
        <ele>69</ele>
        <time>2023-11-13T20:40:51Z</time>
      </trkpt>
      <trkpt lat="47.29411" lon="-1.66837">
        <ele>70</ele>
        <time>2023-11-13T20:43:08Z</time>
      </trkpt>
      <trkpt lat="47.29412" lon="-1.66928">
        <ele>71</ele>
        <time>2023-11-13T20:44:31Z</time>
      </trkpt>
      <trkpt lat="47.29423" lon="-1.66958">
        <ele>72</ele>
        <time>2023-11-13T20:45:02Z</time>
      </trkpt>
      <trkpt lat="47.29449" lon="-1.67007">
        <ele>73</ele>
        <time>2023-11-13T20:45:58Z</time>
      </trkpt>
      <trkpt lat="47.29464" lon="-1.67103">
        <ele>74</ele>
        <time>2023-11-13T20:47:27Z</time>
      </trkpt>
      <trkpt lat="47.29473" lon="-1.67131">
        <ele>74</ele>
        <time>2023-11-13T20:47:55Z</time>
      </trkpt>
      <trkpt lat="47.29479" lon="-1.67162">
        <ele>73</ele>
        <time>2023-11-13T20:48:24Z</time>
      </trkpt>
      <trkpt lat="47.29491" lon="-1.67192">
        <ele>72</ele>
        <time>2023-11-13T20:48:56Z</time>
      </trkpt>
      <trkpt lat="47.29508" lon="-1.67254">
        <ele>70</ele>
        <time>2023-11-13T20:49:56Z</time>
      </trkpt>
      <trkpt lat="47.29534" lon="-1.67404">
        <ele>67</ele>
        <time>2023-11-13T20:52:16Z</time>
      </trkpt>
      <trkpt lat="47.29542" lon="-1.67435">
        <ele>66</ele>
        <time>2023-11-13T20:52:46Z</time>
      </trkpt>
      <trkpt lat="47.29574" lon="-1.67466">
        <ele>66</ele>
        <time>2023-11-13T20:53:38Z</time>
      </trkpt>
      <trkpt lat="47.29594" lon="-1.6748">
        <ele>65</ele>
        <time>2023-11-13T20:54:07Z</time>
      </trkpt>
      <trkpt lat="47.29612" lon="-1.67499">
        <ele>65</ele>
        <time>2023-11-13T20:54:37Z</time>
      </trkpt>
      <trkpt lat="47.29627" lon="-1.67525">
        <ele>64</ele>
        <time>2023-11-13T20:55:08Z</time>
      </trkpt>
      <trkpt lat="47.2966" lon="-1.67604">
        <ele>63</ele>
        <time>2023-11-13T20:56:32Z</time>
      </trkpt>
      <trkpt lat="47.29692" lon="-1.67638">
        <ele>62</ele>
        <time>2023-11-13T20:57:24Z</time>
      </trkpt>
      <trkpt lat="47.29712" lon="-1.67652">
        <ele>62</ele>
        <time>2023-11-13T20:57:54Z</time>
      </trkpt>
      <trkpt lat="47.29727" lon="-1.67667">
        <ele>62</ele>
        <time>2023-11-13T20:58:18Z</time>
      </trkpt>
      <trkpt lat="47.29755" lon="-1.67713">
        <ele>62</ele>
        <time>2023-11-13T20:59:14Z</time>
      </trkpt>
      <trkpt lat="47.29786" lon="-1.67785">
        <ele>64</ele>
        <time>2023-11-13T21:00:31Z</time>
      </trkpt>
      <trkpt lat="47.29813" lon="-1.67867">
        <ele>66</ele>
        <time>2023-11-13T21:01:53Z</time>
      </trkpt>
      <trkpt lat="47.29825" lon="-1.67892">
        <ele>67</ele>
        <time>2023-11-13T21:02:21Z</time>
      </trkpt>
      <trkpt lat="47.29833" lon="-1.67919">
        <ele>68</ele>
        <time>2023-11-13T21:02:48Z</time>
      </trkpt>
      <trkpt lat="47.29845" lon="-1.67945">
        <ele>68</ele>
        <time>2023-11-13T21:03:16Z</time>
      </trkpt>
      <trkpt lat="47.29886" lon="-1.68085">
        <ele>68</ele>
        <time>2023-11-13T21:05:34Z</time>
      </trkpt>
      <trkpt lat="47.29908" lon="-1.68131">
        <ele>68</ele>
        <time>2023-11-13T21:06:25Z</time>
      </trkpt>
      <trkpt lat="47.29927" lon="-1.68149">
        <ele>68</ele>
        <time>2023-11-13T21:06:55Z</time>
      </trkpt>
      <trkpt lat="47.29946" lon="-1.68162">
        <ele>69</ele>
        <time>2023-11-13T21:07:23Z</time>
      </trkpt>
      <trkpt lat="47.29966" lon="-1.68167">
        <ele>69</ele>
        <time>2023-11-13T21:07:50Z</time>
      </trkpt>
      <trkpt lat="47.29985" lon="-1.68165">
        <ele>70</ele>
        <time>2023-11-13T21:08:16Z</time>
      </trkpt>
      <trkpt lat="47.30005" lon="-1.68174">
        <ele>70</ele>
        <time>2023-11-13T21:08:44Z</time>
      </trkpt>
      <trkpt lat="47.30024" lon="-1.68188">
        <ele>70</ele>
        <time>2023-11-13T21:09:12Z</time>
      </trkpt>
      <trkpt lat="47.30055" lon="-1.68267">
        <ele>69</ele>
        <time>2023-11-13T21:10:35Z</time>
      </trkpt>
      <trkpt lat="47.3009" lon="-1.6828">
        <ele>69</ele>
        <time>2023-11-13T21:11:23Z</time>
      </trkpt>
      <trkpt lat="47.30105" lon="-1.68295">
        <ele>69</ele>
        <time>2023-11-13T21:11:47Z</time>
      </trkpt>
      <trkpt lat="47.30137" lon="-1.68373">
        <ele>69</ele>
        <time>2023-11-13T21:13:10Z</time>
      </trkpt>
      <trkpt lat="47.30149" lon="-1.68396">
        <ele>70</ele>
        <time>2023-11-13T21:13:36Z</time>
      </trkpt>
      <trkpt lat="47.30187" lon="-1.68408">
        <ele>71</ele>
        <time>2023-11-13T21:14:28Z</time>
      </trkpt>
      <trkpt lat="47.30242" lon="-1.68441">
        <ele>72</ele>
        <time>2023-11-13T21:15:47Z</time>
      </trkpt>
      <trkpt lat="47.30329" lon="-1.68561">
        <ele>73</ele>
        <time>2023-11-13T21:18:26Z</time>
      </trkpt>
      <trkpt lat="47.30341" lon="-1.68587">
        <ele>73</ele>
        <time>2023-11-13T21:18:54Z</time>
      </trkpt>
      <trkpt lat="47.30351" lon="-1.6865">
        <ele>73</ele>
        <time>2023-11-13T21:19:53Z</time>
      </trkpt>
      <trkpt lat="47.30369" lon="-1.68859">
        <ele>73</ele>
        <time>2023-11-13T21:23:04Z</time>
      </trkpt>
      <trkpt lat="47.30406" lon="-1.68957">
        <ele>73</ele>
        <time>2023-11-13T21:24:45Z</time>
      </trkpt>
      <trkpt lat="47.30395" lon="-1.68985">
        <ele>72</ele>
        <time>2023-11-13T21:25:14Z</time>
      </trkpt>
      <trkpt lat="47.30306" lon="-1.6914">
        <ele>72</ele>
        <time>2023-11-13T21:28:18Z</time>
      </trkpt>
      <trkpt lat="47.30249" lon="-1.69184">
        <ele>70</ele>
        <time>2023-11-13T21:29:44Z</time>
      </trkpt>
      <trkpt lat="47.30231" lon="-1.69187">
        <ele>69</ele>
        <time>2023-11-13T21:30:08Z</time>
      </trkpt>
      <trkpt lat="47.30214" lon="-1.69177">
        <ele>69</ele>
        <time>2023-11-13T21:30:33Z</time>
      </trkpt>
      <trkpt lat="47.30199" lon="-1.69124">
        <ele>69</ele>
        <time>2023-11-13T21:31:25Z</time>
      </trkpt>
      <trkpt lat="47.30197" lon="-1.69058">
        <ele>68</ele>
        <time>2023-11-13T21:32:24Z</time>
      </trkpt>
      <trkpt lat="47.30187" lon="-1.69004">
        <ele>67</ele>
        <time>2023-11-13T21:33:15Z</time>
      </trkpt>
      <trkpt lat="47.30181" lon="-1.68933">
        <ele>66</ele>
        <time>2023-11-13T21:34:20Z</time>
      </trkpt>
      <trkpt lat="47.30163" lon="-1.6893">
        <ele>65</ele>
        <time>2023-11-13T21:34:44Z</time>
      </trkpt>
      <trkpt lat="47.30155" lon="-1.68906">
        <ele>65</ele>
        <time>2023-11-13T21:35:08Z</time>
      </trkpt>
      <trkpt lat="47.30141" lon="-1.68883">
        <ele>65</ele>
        <time>2023-11-13T21:35:36Z</time>
      </trkpt>
      <trkpt lat="47.30082" lon="-1.68802">
        <ele>64</ele>
        <time>2023-11-13T21:37:24Z</time>
      </trkpt>
      <trkpt lat="47.30069" lon="-1.68778">
        <ele>65</ele>
        <time>2023-11-13T21:37:51Z</time>
      </trkpt>
      <trkpt lat="47.3005" lon="-1.68726">
        <ele>65</ele>
        <time>2023-11-13T21:38:45Z</time>
      </trkpt>
      <trkpt lat="47.30034" lon="-1.68671">
        <ele>65</ele>
        <time>2023-11-13T21:39:39Z</time>
      </trkpt>
      <trkpt lat="47.30007" lon="-1.68592">
        <ele>64</ele>
        <time>2023-11-13T21:40:59Z</time>
      </trkpt>
      <trkpt lat="47.29994" lon="-1.68564">
        <ele>64</ele>
        <time>2023-11-13T21:41:30Z</time>
      </trkpt>
      <trkpt lat="47.29953" lon="-1.68499">
        <ele>66</ele>
        <time>2023-11-13T21:42:50Z</time>
      </trkpt>
      <trkpt lat="47.29931" lon="-1.68444">
        <ele>66</ele>
        <time>2023-11-13T21:43:48Z</time>
      </trkpt>
      <trkpt lat="47.29918" lon="-1.6842">
        <ele>66</ele>
        <time>2023-11-13T21:44:16Z</time>
      </trkpt>
      <trkpt lat="47.29876" lon="-1.68355">
        <ele>67</ele>
        <time>2023-11-13T21:45:37Z</time>
      </trkpt>
      <trkpt lat="47.29859" lon="-1.6834">
        <ele>67</ele>
        <time>2023-11-13T21:46:03Z</time>
      </trkpt>
      <trkpt lat="47.2984" lon="-1.68343">
        <ele>67</ele>
        <time>2023-11-13T21:46:29Z</time>
      </trkpt>
      <trkpt lat="47.29794" lon="-1.684">
        <ele>67</ele>
        <time>2023-11-13T21:47:49Z</time>
      </trkpt>
      <trkpt lat="47.29775" lon="-1.68417">
        <ele>67</ele>
        <time>2023-11-13T21:48:19Z</time>
      </trkpt>
      <trkpt lat="47.29754" lon="-1.68428">
        <ele>67</ele>
        <time>2023-11-13T21:48:49Z</time>
      </trkpt>
      <trkpt lat="47.29719" lon="-1.68458">
        <ele>67</ele>
        <time>2023-11-13T21:49:43Z</time>
      </trkpt>
      <trkpt lat="47.29702" lon="-1.68477">
        <ele>67</ele>
        <time>2023-11-13T21:50:11Z</time>
      </trkpt>
      <trkpt lat="47.29646" lon="-1.68562">
        <ele>67</ele>
        <time>2023-11-13T21:51:58Z</time>
      </trkpt>
      <trkpt lat="47.29613" lon="-1.68604">
        <ele>66</ele>
        <time>2023-11-13T21:52:56Z</time>
      </trkpt>
      <trkpt lat="47.29565" lon="-1.68654">
        <ele>66</ele>
        <time>2023-11-13T21:54:15Z</time>
      </trkpt>
      <trkpt lat="47.29549" lon="-1.68678">
        <ele>66</ele>
        <time>2023-11-13T21:54:45Z</time>
      </trkpt>
      <trkpt lat="47.2954" lon="-1.68706">
        <ele>66</ele>
        <time>2023-11-13T21:55:13Z</time>
      </trkpt>
      <trkpt lat="47.2952" lon="-1.68721">
        <ele>65</ele>
        <time>2023-11-13T21:55:43Z</time>
      </trkpt>
      <trkpt lat="47.29474" lon="-1.68774">
        <ele>65</ele>
        <time>2023-11-13T21:57:01Z</time>
      </trkpt>
      <trkpt lat="47.29441" lon="-1.68803">
        <ele>66</ele>
        <time>2023-11-13T21:57:52Z</time>
      </trkpt>
      <trkpt lat="47.29425" lon="-1.68821">
        <ele>67</ele>
        <time>2023-11-13T21:58:19Z</time>
      </trkpt>
      <trkpt lat="47.29407" lon="-1.68833">
        <ele>68</ele>
        <time>2023-11-13T21:58:46Z</time>
      </trkpt>
      <trkpt lat="47.29375" lon="-1.68869">
        <ele>68</ele>
        <time>2023-11-13T21:59:39Z</time>
      </trkpt>
      <trkpt lat="47.29361" lon="-1.68891">
        <ele>69</ele>
        <time>2023-11-13T22:00:07Z</time>
      </trkpt>
      <trkpt lat="47.29278" lon="-1.68972">
        <ele>65</ele>
        <time>2023-11-13T22:02:20Z</time>
      </trkpt>
      <trkpt lat="47.29198" lon="-1.69018">
        <ele>63</ele>
        <time>2023-11-13T22:04:14Z</time>
      </trkpt>
      <trkpt lat="47.29178" lon="-1.69025">
        <ele>62</ele>
        <time>2023-11-13T22:04:42Z</time>
      </trkpt>
      <trkpt lat="47.29155" lon="-1.69021">
        <ele>61</ele>
        <time>2023-11-13T22:05:12Z</time>
      </trkpt>
      <trkpt lat="47.29095" lon="-1.69003">
        <ele>62</ele>
        <time>2023-11-13T22:06:34Z</time>
      </trkpt>
      <trkpt lat="47.29072" lon="-1.69001">
        <ele>61</ele>
        <time>2023-11-13T22:07:05Z</time>
      </trkpt>
      <trkpt lat="47.2903" lon="-1.69001">
        <ele>59</ele>
        <time>2023-11-13T22:08:01Z</time>
      </trkpt>
      <trkpt lat="47.28945" lon="-1.69011">
        <ele>54</ele>
        <time>2023-11-13T22:09:55Z</time>
      </trkpt>
      <trkpt lat="47.28927" lon="-1.68995">
        <ele>53</ele>
        <time>2023-11-13T22:10:23Z</time>
      </trkpt>
      <trkpt lat="47.28917" lon="-1.69018">
        <ele>52</ele>
        <time>2023-11-13T22:10:48Z</time>
      </trkpt>
      <trkpt lat="47.289" lon="-1.6904">
        <ele>53</ele>
        <time>2023-11-13T22:11:18Z</time>
      </trkpt>
      <trkpt lat="47.28881" lon="-1.6904">
        <ele>54</ele>
        <time>2023-11-13T22:11:43Z</time>
      </trkpt>
      <trkpt lat="47.28863" lon="-1.69022">
        <ele>54</ele>
        <time>2023-11-13T22:12:12Z</time>
      </trkpt>
      <trkpt lat="47.28844" lon="-1.69026">
        <ele>55</ele>
        <time>2023-11-13T22:12:38Z</time>
      </trkpt>
      <trkpt lat="47.28827" lon="-1.69043">
        <ele>55</ele>
        <time>2023-11-13T22:13:05Z</time>
      </trkpt>
      <trkpt lat="47.28814" lon="-1.69067">
        <ele>56</ele>
        <time>2023-11-13T22:13:33Z</time>
      </trkpt>
      <trkpt lat="47.288" lon="-1.69083">
        <ele>57</ele>
        <time>2023-11-13T22:13:57Z</time>
      </trkpt>
      <trkpt lat="47.28788" lon="-1.69108">
        <ele>58</ele>
        <time>2023-11-13T22:14:24Z</time>
      </trkpt>
      <trkpt lat="47.28757" lon="-1.69152">
        <ele>61</ele>
        <time>2023-11-13T22:15:22Z</time>
      </trkpt>
      <trkpt lat="47.28747" lon="-1.69174">
        <ele>62</ele>
        <time>2023-11-13T22:15:46Z</time>
      </trkpt>
      <trkpt lat="47.28724" lon="-1.69177">
        <ele>62</ele>
        <time>2023-11-13T22:16:17Z</time>
      </trkpt>
      <trkpt lat="47.28648" lon="-1.6922">
        <ele>60</ele>
        <time>2023-11-13T22:18:05Z</time>
      </trkpt>
      <trkpt lat="47.28642" lon="-1.69247">
        <ele>61</ele>
        <time>2023-11-13T22:18:31Z</time>
      </trkpt>
      <trkpt lat="47.28626" lon="-1.69261">
        <ele>61</ele>
        <time>2023-11-13T22:18:56Z</time>
      </trkpt>
      <trkpt lat="47.28589" lon="-1.69276">
        <ele>61</ele>
        <time>2023-11-13T22:19:47Z</time>
      </trkpt>
      <trkpt lat="47.28549" lon="-1.69283">
        <ele>60</ele>
        <time>2023-11-13T22:20:41Z</time>
      </trkpt>
      <trkpt lat="47.2853" lon="-1.69282">
        <ele>60</ele>
        <time>2023-11-13T22:21:06Z</time>
      </trkpt>
      <trkpt lat="47.28508" lon="-1.69274">
        <ele>59</ele>
        <time>2023-11-13T22:21:36Z</time>
      </trkpt>
      <trkpt lat="47.28447" lon="-1.69262">
        <ele>56</ele>
        <time>2023-11-13T22:22:58Z</time>
      </trkpt>
      <trkpt lat="47.28427" lon="-1.69276">
        <ele>55</ele>
        <time>2023-11-13T22:23:28Z</time>
      </trkpt>
      <trkpt lat="47.28402" lon="-1.69453">
        <ele>56</ele>
        <time>2023-11-13T22:26:12Z</time>
      </trkpt>
      <trkpt lat="47.28388" lon="-1.69534">
        <ele>58</ele>
        <time>2023-11-13T22:27:27Z</time>
      </trkpt>
      <trkpt lat="47.28386" lon="-1.69564">
        <ele>58</ele>
        <time>2023-11-13T22:27:55Z</time>
      </trkpt>
      <trkpt lat="47.28388" lon="-1.69624">
        <ele>59</ele>
        <time>2023-11-13T22:28:49Z</time>
      </trkpt>
      <trkpt lat="47.28383" lon="-1.69654">
        <ele>59</ele>
        <time>2023-11-13T22:29:17Z</time>
      </trkpt>
      <trkpt lat="47.2834" lon="-1.69758">
        <ele>61</ele>
        <time>2023-11-13T22:31:07Z</time>
      </trkpt>
      <trkpt lat="47.28319" lon="-1.69839">
        <ele>64</ele>
        <time>2023-11-13T22:32:26Z</time>
      </trkpt>
      <trkpt lat="47.283" lon="-1.69894">
        <ele>65</ele>
        <time>2023-11-13T22:33:22Z</time>
      </trkpt>
      <trkpt lat="47.28289" lon="-1.69921">
        <ele>65</ele>
        <time>2023-11-13T22:33:50Z</time>
      </trkpt>
      <trkpt lat="47.28276" lon="-1.69945">
        <ele>66</ele>
        <time>2023-11-13T22:34:18Z</time>
      </trkpt>
      <trkpt lat="47.28267" lon="-1.6997">
        <ele>66</ele>
        <time>2023-11-13T22:34:43Z</time>
      </trkpt>
      <trkpt lat="47.2825" lon="-1.7002">
        <ele>66</ele>
        <time>2023-11-13T22:35:34Z</time>
      </trkpt>
      <trkpt lat="47.28227" lon="-1.70104">
        <ele>66</ele>
        <time>2023-11-13T22:36:56Z</time>
      </trkpt>
      <trkpt lat="47.28208" lon="-1.70107">
        <ele>66</ele>
        <time>2023-11-13T22:37:22Z</time>
      </trkpt>
      <trkpt lat="47.28135" lon="-1.70081">
        <ele>66</ele>
        <time>2023-11-13T22:39:02Z</time>
      </trkpt>
      <trkpt lat="47.28111" lon="-1.70075">
        <ele>66</ele>
        <time>2023-11-13T22:39:34Z</time>
      </trkpt>
      <trkpt lat="47.28088" lon="-1.70073">
        <ele>67</ele>
        <time>2023-11-13T22:40:05Z</time>
      </trkpt>
      <trkpt lat="47.28066" lon="-1.70117">
        <ele>68</ele>
        <time>2023-11-13T22:40:55Z</time>
      </trkpt>
      <trkpt lat="47.28002" lon="-1.70274">
        <ele>68</ele>
        <time>2023-11-13T22:43:40Z</time>
      </trkpt>
      <trkpt lat="47.27986" lon="-1.70293">
        <ele>68</ele>
        <time>2023-11-13T22:44:08Z</time>
      </trkpt>
      <trkpt lat="47.27918" lon="-1.70189">
        <ele>67</ele>
        <time>2023-11-13T22:46:19Z</time>
      </trkpt>
      <trkpt lat="47.27886" lon="-1.70157">
        <ele>69</ele>
        <time>2023-11-13T22:47:10Z</time>
      </trkpt>
      <trkpt lat="47.27875" lon="-1.7013">
        <ele>70</ele>
        <time>2023-11-13T22:47:39Z</time>
      </trkpt>
      <trkpt lat="47.27862" lon="-1.70071">
        <ele>70</ele>
        <time>2023-11-13T22:48:35Z</time>
      </trkpt>
      <trkpt lat="47.27863" lon="-1.70042">
        <ele>69</ele>
        <time>2023-11-13T22:49:01Z</time>
      </trkpt>
      <trkpt lat="47.27853" lon="-1.70015">
        <ele>68</ele>
        <time>2023-11-13T22:49:29Z</time>
      </trkpt>
      <trkpt lat="47.27847" lon="-1.69987">
        <ele>67</ele>
        <time>2023-11-13T22:49:56Z</time>
      </trkpt>
      <trkpt lat="47.27844" lon="-1.69956">
        <ele>66</ele>
        <time>2023-11-13T22:50:24Z</time>
      </trkpt>
      <trkpt lat="47.2783" lon="-1.69895">
        <ele>64</ele>
        <time>2023-11-13T22:51:22Z</time>
      </trkpt>
      <trkpt lat="47.27811" lon="-1.69705">
        <ele>60</ele>
        <time>2023-11-13T22:54:16Z</time>
      </trkpt>
      <trkpt lat="47.2782" lon="-1.69681">
        <ele>60</ele>
        <time>2023-11-13T22:54:41Z</time>
      </trkpt>
      <trkpt lat="47.27813" lon="-1.6965">
        <ele>59</ele>
        <time>2023-11-13T22:55:10Z</time>
      </trkpt>
      <trkpt lat="47.27812" lon="-1.69678">
        <ele>60</ele>
        <time>2023-11-13T22:55:36Z</time>
      </trkpt>
      <trkpt lat="47.27797" lon="-1.69629">
        <ele>58</ele>
        <time>2023-11-13T22:56:25Z</time>
      </trkpt>
      <trkpt lat="47.27785" lon="-1.69602">
        <ele>58</ele>
        <time>2023-11-13T22:56:54Z</time>
      </trkpt>
      <trkpt lat="47.27779" lon="-1.69573">
        <ele>57</ele>
        <time>2023-11-13T22:57:21Z</time>
      </trkpt>
      <trkpt lat="47.27774" lon="-1.69513">
        <ele>55</ele>
        <time>2023-11-13T22:58:16Z</time>
      </trkpt>
      <trkpt lat="47.27774" lon="-1.69451">
        <ele>54</ele>
        <time>2023-11-13T22:59:12Z</time>
      </trkpt>
      <trkpt lat="47.2778" lon="-1.6939">
        <ele>52</ele>
        <time>2023-11-13T23:00:08Z</time>
      </trkpt>
      <trkpt lat="47.27779" lon="-1.69363">
        <ele>51</ele>
        <time>2023-11-13T23:00:32Z</time>
      </trkpt>
      <trkpt lat="47.27775" lon="-1.69336">
        <ele>50</ele>
        <time>2023-11-13T23:00:57Z</time>
      </trkpt>
      <trkpt lat="47.27767" lon="-1.69307">
        <ele>50</ele>
        <time>2023-11-13T23:01:26Z</time>
      </trkpt>
      <trkpt lat="47.27751" lon="-1.69285">
        <ele>49</ele>
        <time>2023-11-13T23:01:55Z</time>
      </trkpt>
      <trkpt lat="47.27731" lon="-1.69272">
        <ele>50</ele>
        <time>2023-11-13T23:02:24Z</time>
      </trkpt>
      <trkpt lat="47.27713" lon="-1.69274">
        <ele>50</ele>
        <time>2023-11-13T23:02:48Z</time>
      </trkpt>
      <trkpt lat="47.27693" lon="-1.69273">
        <ele>50</ele>
        <time>2023-11-13T23:03:15Z</time>
      </trkpt>
      <trkpt lat="47.27676" lon="-1.69266">
        <ele>51</ele>
        <time>2023-11-13T23:03:38Z</time>
      </trkpt>
      <trkpt lat="47.27658" lon="-1.69254">
        <ele>51</ele>
        <time>2023-11-13T23:04:05Z</time>
      </trkpt>
      <trkpt lat="47.27598" lon="-1.69198">
        <ele>55</ele>
        <time>2023-11-13T23:05:40Z</time>
      </trkpt>
      <trkpt lat="47.27579" lon="-1.69185">
        <ele>56</ele>
        <time>2023-11-13T23:06:08Z</time>
      </trkpt>
      <trkpt lat="47.2756" lon="-1.69178">
        <ele>56</ele>
        <time>2023-11-13T23:06:34Z</time>
      </trkpt>
      <trkpt lat="47.27543" lon="-1.69128">
        <ele>59</ele>
        <time>2023-11-13T23:07:24Z</time>
      </trkpt>
      <trkpt lat="47.27524" lon="-1.69122">
        <ele>60</ele>
        <time>2023-11-13T23:07:50Z</time>
      </trkpt>
      <trkpt lat="47.27432" lon="-1.69024">
        <ele>63</ele>
        <time>2023-11-13T23:10:22Z</time>
      </trkpt>
      <trkpt lat="47.27374" lon="-1.68988">
        <ele>64</ele>
        <time>2023-11-13T23:11:46Z</time>
      </trkpt>
      <trkpt lat="47.27317" lon="-1.68957">
        <ele>64</ele>
        <time>2023-11-13T23:13:07Z</time>
      </trkpt>
      <trkpt lat="47.27302" lon="-1.68943">
        <ele>65</ele>
        <time>2023-11-13T23:13:30Z</time>
      </trkpt>
      <trkpt lat="47.27328" lon="-1.68899">
        <ele>64</ele>
        <time>2023-11-13T23:14:23Z</time>
      </trkpt>
      <trkpt lat="47.27378" lon="-1.6884">
        <ele>62</ele>
        <time>2023-11-13T23:15:49Z</time>
      </trkpt>
      <trkpt lat="47.27406" lon="-1.68797">
        <ele>59</ele>
        <time>2023-11-13T23:16:43Z</time>
      </trkpt>
      <trkpt lat="47.27421" lon="-1.6878">
        <ele>59</ele>
        <time>2023-11-13T23:17:08Z</time>
      </trkpt>
      <trkpt lat="47.27438" lon="-1.68787">
        <ele>59</ele>
        <time>2023-11-13T23:17:32Z</time>
      </trkpt>
      <trkpt lat="47.27477" lon="-1.6881">
        <ele>60</ele>
        <time>2023-11-13T23:18:28Z</time>
      </trkpt>
      <trkpt lat="47.27495" lon="-1.68818">
        <ele>61</ele>
        <time>2023-11-13T23:18:53Z</time>
      </trkpt>
      <trkpt lat="47.27518" lon="-1.68824">
        <ele>61</ele>
        <time>2023-11-13T23:19:24Z</time>
      </trkpt>
      <trkpt lat="47.27542" lon="-1.68819">
        <ele>61</ele>
        <time>2023-11-13T23:19:56Z</time>
      </trkpt>
      <trkpt lat="47.27563" lon="-1.68807">
        <ele>61</ele>
        <time>2023-11-13T23:20:26Z</time>
      </trkpt>
      <trkpt lat="47.27581" lon="-1.68792">
        <ele>60</ele>
        <time>2023-11-13T23:20:54Z</time>
      </trkpt>
      <trkpt lat="47.27601" lon="-1.68784">
        <ele>59</ele>
        <time>2023-11-13T23:21:21Z</time>
      </trkpt>
      <trkpt lat="47.27638" lon="-1.68796">
        <ele>58</ele>
        <time>2023-11-13T23:22:12Z</time>
      </trkpt>
      <trkpt lat="47.27655" lon="-1.68806">
        <ele>58</ele>
        <time>2023-11-13T23:22:36Z</time>
      </trkpt>
      <trkpt lat="47.2769" lon="-1.68775">
        <ele>55</ele>
        <time>2023-11-13T23:23:31Z</time>
      </trkpt>
      <trkpt lat="47.27708" lon="-1.68768">
        <ele>55</ele>
        <time>2023-11-13T23:23:56Z</time>
      </trkpt>
      <trkpt lat="47.2775" lon="-1.68778">
        <ele>56</ele>
        <time>2023-11-13T23:24:53Z</time>
      </trkpt>
      <trkpt lat="47.27768" lon="-1.68785">
        <ele>55</ele>
        <time>2023-11-13T23:25:17Z</time>
      </trkpt>
      <trkpt lat="47.27783" lon="-1.68767">
        <ele>53</ele>
        <time>2023-11-13T23:25:43Z</time>
      </trkpt>
      <trkpt lat="47.27772" lon="-1.68745">
        <ele>52</ele>
        <time>2023-11-13T23:26:08Z</time>
      </trkpt>
      <trkpt lat="47.2777" lon="-1.68718">
        <ele>50</ele>
        <time>2023-11-13T23:26:33Z</time>
      </trkpt>
      <trkpt lat="47.27758" lon="-1.68697">
        <ele>48</ele>
        <time>2023-11-13T23:26:57Z</time>
      </trkpt>
      <trkpt lat="47.27737" lon="-1.68689">
        <ele>48</ele>
        <time>2023-11-13T23:27:26Z</time>
      </trkpt>
      <trkpt lat="47.27699" lon="-1.68684">
        <ele>50</ele>
        <time>2023-11-13T23:28:17Z</time>
      </trkpt>
      <trkpt lat="47.27678" lon="-1.68638">
        <ele>53</ele>
        <time>2023-11-13T23:29:07Z</time>
      </trkpt>
      <trkpt lat="47.27695" lon="-1.68617">
        <ele>54</ele>
        <time>2023-11-13T23:29:37Z</time>
      </trkpt>
      <trkpt lat="47.27732" lon="-1.68596">
        <ele>52</ele>
        <time>2023-11-13T23:30:30Z</time>
      </trkpt>
      <trkpt lat="47.27746" lon="-1.68571">
        <ele>53</ele>
        <time>2023-11-13T23:30:59Z</time>
      </trkpt>
      <trkpt lat="47.27751" lon="-1.68544">
        <ele>54</ele>
        <time>2023-11-13T23:31:25Z</time>
      </trkpt>
      <trkpt lat="47.27744" lon="-1.68514">
        <ele>57</ele>
        <time>2023-11-13T23:31:53Z</time>
      </trkpt>
      <trkpt lat="47.27727" lon="-1.685">
        <ele>58</ele>
        <time>2023-11-13T23:32:19Z</time>
      </trkpt>
      <trkpt lat="47.27696" lon="-1.68461">
        <ele>60</ele>
        <time>2023-11-13T23:33:14Z</time>
      </trkpt>
      <trkpt lat="47.27674" lon="-1.68408">
        <ele>60</ele>
        <time>2023-11-13T23:34:10Z</time>
      </trkpt>
      <trkpt lat="47.27669" lon="-1.68347">
        <ele>62</ele>
        <time>2023-11-13T23:35:06Z</time>
      </trkpt>
      <trkpt lat="47.27663" lon="-1.6832">
        <ele>62</ele>
        <time>2023-11-13T23:35:31Z</time>
      </trkpt>
      <trkpt lat="47.27652" lon="-1.68234">
        <ele>63</ele>
        <time>2023-11-13T23:36:51Z</time>
      </trkpt>
      <trkpt lat="47.2763" lon="-1.68181">
        <ele>62</ele>
        <time>2023-11-13T23:37:47Z</time>
      </trkpt>
      <trkpt lat="47.27625" lon="-1.68149">
        <ele>62</ele>
        <time>2023-11-13T23:38:17Z</time>
      </trkpt>
      <trkpt lat="47.27633" lon="-1.68123">
        <ele>61</ele>
        <time>2023-11-13T23:38:42Z</time>
      </trkpt>
      <trkpt lat="47.27635" lon="-1.68096">
        <ele>61</ele>
        <time>2023-11-13T23:39:07Z</time>
      </trkpt>
      <trkpt lat="47.27627" lon="-1.68036">
        <ele>62</ele>
        <time>2023-11-13T23:40:02Z</time>
      </trkpt>
      <trkpt lat="47.27613" lon="-1.68018">
        <ele>62</ele>
        <time>2023-11-13T23:40:27Z</time>
      </trkpt>
      <trkpt lat="47.27595" lon="-1.68019">
        <ele>62</ele>
        <time>2023-11-13T23:40:51Z</time>
      </trkpt>
      <trkpt lat="47.27575" lon="-1.68016">
        <ele>63</ele>
        <time>2023-11-13T23:41:18Z</time>
      </trkpt>
      <trkpt lat="47.27555" lon="-1.68">
        <ele>63</ele>
        <time>2023-11-13T23:41:48Z</time>
      </trkpt>
      <trkpt lat="47.27531" lon="-1.6795">
        <ele>63</ele>
        <time>2023-11-13T23:42:44Z</time>
      </trkpt>
      <trkpt lat="47.27518" lon="-1.67929">
        <ele>64</ele>
        <time>2023-11-13T23:43:10Z</time>
      </trkpt>
      <trkpt lat="47.27509" lon="-1.67901">
        <ele>64</ele>
        <time>2023-11-13T23:43:38Z</time>
      </trkpt>
      <trkpt lat="47.275" lon="-1.67816">
        <ele>66</ele>
        <time>2023-11-13T23:44:56Z</time>
      </trkpt>
      <trkpt lat="47.27495" lon="-1.67786">
        <ele>66</ele>
        <time>2023-11-13T23:45:24Z</time>
      </trkpt>
      <trkpt lat="47.27486" lon="-1.67759">
        <ele>65</ele>
        <time>2023-11-13T23:45:51Z</time>
      </trkpt>
      <trkpt lat="47.27457" lon="-1.67722">
        <ele>64</ele>
        <time>2023-11-13T23:46:42Z</time>
      </trkpt>
      <trkpt lat="47.27444" lon="-1.67695">
        <ele>64</ele>
        <time>2023-11-13T23:47:12Z</time>
      </trkpt>
      <trkpt lat="47.2744" lon="-1.67637">
        <ele>65</ele>
        <time>2023-11-13T23:48:05Z</time>
      </trkpt>
      <trkpt lat="47.27424" lon="-1.67583">
        <ele>65</ele>
        <time>2023-11-13T23:48:58Z</time>
      </trkpt>
      <trkpt lat="47.27436" lon="-1.67562">
        <ele>65</ele>
        <time>2023-11-13T23:49:23Z</time>
      </trkpt>
      <trkpt lat="47.27469" lon="-1.67527">
        <ele>66</ele>
        <time>2023-11-13T23:50:17Z</time>
      </trkpt>
      <trkpt lat="47.27483" lon="-1.67507">
        <ele>66</ele>
        <time>2023-11-13T23:50:43Z</time>
      </trkpt>
      <trkpt lat="47.27467" lon="-1.67524">
        <ele>66</ele>
        <time>2023-11-13T23:51:10Z</time>
      </trkpt>
      <trkpt lat="47.27433" lon="-1.67568">
        <ele>65</ele>
        <time>2023-11-13T23:52:10Z</time>
      </trkpt>
      <trkpt lat="47.27414" lon="-1.67574">
        <ele>65</ele>
        <time>2023-11-13T23:52:36Z</time>
      </trkpt>
      <trkpt lat="47.27404" lon="-1.6755">
        <ele>65</ele>
        <time>2023-11-13T23:53:01Z</time>
      </trkpt>
      <trkpt lat="47.2739" lon="-1.6753">
        <ele>64</ele>
        <time>2023-11-13T23:53:27Z</time>
      </trkpt>
      <trkpt lat="47.27371" lon="-1.67474">
        <ele>63</ele>
        <time>2023-11-13T23:54:24Z</time>
      </trkpt>
      <trkpt lat="47.2736" lon="-1.6745">
        <ele>62</ele>
        <time>2023-11-13T23:54:50Z</time>
      </trkpt>
      <trkpt lat="47.27352" lon="-1.67418">
        <ele>61</ele>
        <time>2023-11-13T23:55:21Z</time>
      </trkpt>
      <trkpt lat="47.27348" lon="-1.67387">
        <ele>61</ele>
        <time>2023-11-13T23:55:50Z</time>
      </trkpt>
      <trkpt lat="47.27347" lon="-1.67326">
        <ele>60</ele>
        <time>2023-11-13T23:56:45Z</time>
      </trkpt>
      <trkpt lat="47.27331" lon="-1.67231">
        <ele>63</ele>
        <time>2023-11-13T23:58:14Z</time>
      </trkpt>
      <trkpt lat="47.27344" lon="-1.67208">
        <ele>65</ele>
        <time>2023-11-13T23:58:41Z</time>
      </trkpt>
      <trkpt lat="47.27361" lon="-1.67199">
        <ele>66</ele>
        <time>2023-11-13T23:59:05Z</time>
      </trkpt>
      <trkpt lat="47.27374" lon="-1.67177">
        <ele>67</ele>
        <time>2023-11-13T23:59:31Z</time>
      </trkpt>
      <trkpt lat="47.27394" lon="-1.67177">
        <ele>68</ele>
        <time>2023-11-13T23:59:58Z</time>
      </trkpt>
      <trkpt lat="47.27413" lon="-1.67158">
        <ele>68</ele>
        <time>2023-11-14T00:00:29Z</time>
      </trkpt>
      <trkpt lat="47.27452" lon="-1.6713">
        <ele>66</ele>
        <time>2023-11-14T00:01:26Z</time>
      </trkpt>
      <trkpt lat="47.27503" lon="-1.6708">
        <ele>65</ele>
        <time>2023-11-14T00:02:48Z</time>
      </trkpt>
      <trkpt lat="47.27516" lon="-1.67058">
        <ele>66</ele>
        <time>2023-11-14T00:03:15Z</time>
      </trkpt>
      <trkpt lat="47.27496" lon="-1.66981">
        <ele>67</ele>
        <time>2023-11-14T00:04:29Z</time>
      </trkpt>
      <trkpt lat="47.27457" lon="-1.66877">
        <ele>65</ele>
        <time>2023-11-14T00:06:17Z</time>
      </trkpt>
      <trkpt lat="47.27445" lon="-1.66854">
        <ele>65</ele>
        <time>2023-11-14T00:06:43Z</time>
      </trkpt>
      <trkpt lat="47.27418" lon="-1.66808">
        <ele>65</ele>
        <time>2023-11-14T00:07:38Z</time>
      </trkpt>
      <trkpt lat="47.27404" lon="-1.6679">
        <ele>64</ele>
        <time>2023-11-14T00:08:03Z</time>
      </trkpt>
      <trkpt lat="47.27374" lon="-1.66742">
        <ele>63</ele>
        <time>2023-11-14T00:09:02Z</time>
      </trkpt>
      <trkpt lat="47.27344" lon="-1.66704">
        <ele>62</ele>
        <time>2023-11-14T00:09:55Z</time>
      </trkpt>
      <trkpt lat="47.27316" lon="-1.66657">
        <ele>61</ele>
        <time>2023-11-14T00:10:51Z</time>
      </trkpt>
      <trkpt lat="47.273" lon="-1.66639">
        <ele>61</ele>
        <time>2023-11-14T00:11:18Z</time>
      </trkpt>
      <trkpt lat="47.27278" lon="-1.66638">
        <ele>62</ele>
        <time>2023-11-14T00:11:48Z</time>
      </trkpt>
      <trkpt lat="47.27259" lon="-1.66632">
        <ele>62</ele>
        <time>2023-11-14T00:12:14Z</time>
      </trkpt>
      <trkpt lat="47.272" lon="-1.66622">
        <ele>61</ele>
        <time>2023-11-14T00:13:33Z</time>
      </trkpt>
      <trkpt lat="47.27182" lon="-1.66616">
        <ele>60</ele>
        <time>2023-11-14T00:13:57Z</time>
      </trkpt>
      <trkpt lat="47.27164" lon="-1.66606">
        <ele>60</ele>
        <time>2023-11-14T00:14:23Z</time>
      </trkpt>
      <trkpt lat="47.27112" lon="-1.66565">
        <ele>58</ele>
        <time>2023-11-14T00:15:42Z</time>
      </trkpt>
      <trkpt lat="47.27077" lon="-1.66541">
        <ele>57</ele>
        <time>2023-11-14T00:16:33Z</time>
      </trkpt>
      <trkpt lat="47.27018" lon="-1.66511">
        <ele>57</ele>
        <time>2023-11-14T00:17:57Z</time>
      </trkpt>
      <trkpt lat="47.26996" lon="-1.66508">
        <ele>57</ele>
        <time>2023-11-14T00:18:26Z</time>
      </trkpt>
      <trkpt lat="47.26936" lon="-1.66513">
        <ele>55</ele>
        <time>2023-11-14T00:19:46Z</time>
      </trkpt>
      <trkpt lat="47.26917" lon="-1.66509">
        <ele>54</ele>
        <time>2023-11-14T00:20:12Z</time>
      </trkpt>
      <trkpt lat="47.26906" lon="-1.66482">
        <ele>55</ele>
        <time>2023-11-14T00:20:40Z</time>
      </trkpt>
      <trkpt lat="47.269" lon="-1.66425">
        <ele>55</ele>
        <time>2023-11-14T00:21:33Z</time>
      </trkpt>
      <trkpt lat="47.26874" lon="-1.66379">
        <ele>55</ele>
        <time>2023-11-14T00:22:27Z</time>
      </trkpt>
      <trkpt lat="47.26835" lon="-1.66359">
        <ele>54</ele>
        <time>2023-11-14T00:23:22Z</time>
      </trkpt>
      <trkpt lat="47.26817" lon="-1.66353">
        <ele>53</ele>
        <time>2023-11-14T00:23:47Z</time>
      </trkpt>
      <trkpt lat="47.26799" lon="-1.66375">
        <ele>52</ele>
        <time>2023-11-14T00:24:18Z</time>
      </trkpt>
      <trkpt lat="47.26759" lon="-1.6639">
        <ele>49</ele>
        <time>2023-11-14T00:25:13Z</time>
      </trkpt>
      <trkpt lat="47.26747" lon="-1.66412">
        <ele>46</ele>
        <time>2023-11-14T00:25:38Z</time>
      </trkpt>
      <trkpt lat="47.26749" lon="-1.66445">
        <ele>45</ele>
        <time>2023-11-14T00:26:08Z</time>
      </trkpt>
      <trkpt lat="47.26757" lon="-1.66472">
        <ele>44</ele>
        <time>2023-11-14T00:26:35Z</time>
      </trkpt>
      <trkpt lat="47.26752" lon="-1.66498">
        <ele>42</ele>
        <time>2023-11-14T00:27:00Z</time>
      </trkpt>
      <trkpt lat="47.26759" lon="-1.66589">
        <ele>42</ele>
        <time>2023-11-14T00:28:23Z</time>
      </trkpt>
      <trkpt lat="47.26741" lon="-1.66607">
        <ele>43</ele>
        <time>2023-11-14T00:28:52Z</time>
      </trkpt>
      <trkpt lat="47.26723" lon="-1.66606">
        <ele>44</ele>
        <time>2023-11-14T00:29:16Z</time>
      </trkpt>
      <trkpt lat="47.26703" lon="-1.66615">
        <ele>46</ele>
        <time>2023-11-14T00:29:44Z</time>
      </trkpt>
      <trkpt lat="47.26698" lon="-1.66587">
        <ele>46</ele>
        <time>2023-11-14T00:30:10Z</time>
      </trkpt>
      <trkpt lat="47.26683" lon="-1.66563">
        <ele>46</ele>
        <time>2023-11-14T00:30:39Z</time>
      </trkpt>
      <trkpt lat="47.26681" lon="-1.66536">
        <ele>45</ele>
        <time>2023-11-14T00:31:04Z</time>
      </trkpt>
      <trkpt lat="47.26669" lon="-1.66479">
        <ele>43</ele>
        <time>2023-11-14T00:31:58Z</time>
      </trkpt>
      <trkpt lat="47.26653" lon="-1.66427">
        <ele>40</ele>
        <time>2023-11-14T00:32:50Z</time>
      </trkpt>
      <trkpt lat="47.26632" lon="-1.6634">
        <ele>40</ele>
        <time>2023-11-14T00:34:13Z</time>
      </trkpt>
      <trkpt lat="47.26621" lon="-1.66315">
        <ele>40</ele>
        <time>2023-11-14T00:34:40Z</time>
      </trkpt>
      <trkpt lat="47.26614" lon="-1.66288">
        <ele>40</ele>
        <time>2023-11-14T00:35:06Z</time>
      </trkpt>
      <trkpt lat="47.26616" lon="-1.66255">
        <ele>41</ele>
        <time>2023-11-14T00:35:36Z</time>
      </trkpt>
      <trkpt lat="47.26626" lon="-1.6623">
        <ele>42</ele>
        <time>2023-11-14T00:36:03Z</time>
      </trkpt>
      <trkpt lat="47.26625" lon="-1.66202">
        <ele>41</ele>
        <time>2023-11-14T00:36:28Z</time>
      </trkpt>
      <trkpt lat="47.26634" lon="-1.66175">
        <ele>42</ele>
        <time>2023-11-14T00:36:55Z</time>
      </trkpt>
      <trkpt lat="47.26639" lon="-1.66146">
        <ele>43</ele>
        <time>2023-11-14T00:37:22Z</time>
      </trkpt>
      <trkpt lat="47.26638" lon="-1.66118">
        <ele>44</ele>
        <time>2023-11-14T00:37:48Z</time>
      </trkpt>
      <trkpt lat="47.2663" lon="-1.66091">
        <ele>43</ele>
        <time>2023-11-14T00:38:15Z</time>
      </trkpt>
      <trkpt lat="47.26613" lon="-1.66071">
        <ele>42</ele>
        <time>2023-11-14T00:38:44Z</time>
      </trkpt>
      <trkpt lat="47.26574" lon="-1.66052">
        <ele>38</ele>
        <time>2023-11-14T00:39:38Z</time>
      </trkpt>
      <trkpt lat="47.26555" lon="-1.66051">
        <ele>37</ele>
        <time>2023-11-14T00:40:04Z</time>
      </trkpt>
      <trkpt lat="47.26537" lon="-1.66034">
        <ele>36</ele>
        <time>2023-11-14T00:40:32Z</time>
      </trkpt>
      <trkpt lat="47.26529" lon="-1.6601">
        <ele>35</ele>
        <time>2023-11-14T00:40:56Z</time>
      </trkpt>
      <trkpt lat="47.26528" lon="-1.65983">
        <ele>34</ele>
        <time>2023-11-14T00:41:21Z</time>
      </trkpt>
      <trkpt lat="47.26539" lon="-1.65958">
        <ele>35</ele>
        <time>2023-11-14T00:41:48Z</time>
      </trkpt>
      <trkpt lat="47.26555" lon="-1.65946">
        <ele>36</ele>
        <time>2023-11-14T00:42:12Z</time>
      </trkpt>
      <trkpt lat="47.26584" lon="-1.65951">
        <ele>38</ele>
        <time>2023-11-14T00:42:51Z</time>
      </trkpt>
      <trkpt lat="47.2661" lon="-1.65951">
        <ele>42</ele>
        <time>2023-11-14T00:43:26Z</time>
      </trkpt>
      <trkpt lat="47.26628" lon="-1.65942">
        <ele>44</ele>
        <time>2023-11-14T00:43:51Z</time>
      </trkpt>
      <trkpt lat="47.26683" lon="-1.65906">
        <ele>49</ele>
        <time>2023-11-14T00:45:11Z</time>
      </trkpt>
      <trkpt lat="47.26704" lon="-1.65897">
        <ele>48</ele>
        <time>2023-11-14T00:45:40Z</time>
      </trkpt>
      <trkpt lat="47.26723" lon="-1.65894">
        <ele>48</ele>
        <time>2023-11-14T00:46:06Z</time>
      </trkpt>
      <trkpt lat="47.26741" lon="-1.65896">
        <ele>49</ele>
        <time>2023-11-14T00:46:30Z</time>
      </trkpt>
      <trkpt lat="47.26762" lon="-1.65903">
        <ele>50</ele>
        <time>2023-11-14T00:46:59Z</time>
      </trkpt>
      <trkpt lat="47.26798" lon="-1.65879">
        <ele>47</ele>
        <time>2023-11-14T00:47:51Z</time>
      </trkpt>
      <trkpt lat="47.26819" lon="-1.65882">
        <ele>48</ele>
        <time>2023-11-14T00:48:20Z</time>
      </trkpt>
      <trkpt lat="47.26825" lon="-1.65855">
        <ele>46</ele>
        <time>2023-11-14T00:48:45Z</time>
      </trkpt>
      <trkpt lat="47.26842" lon="-1.65833">
        <ele>46</ele>
        <time>2023-11-14T00:49:16Z</time>
      </trkpt>
      <trkpt lat="47.26859" lon="-1.65817">
        <ele>46</ele>
        <time>2023-11-14T00:49:42Z</time>
      </trkpt>
      <trkpt lat="47.26861" lon="-1.65761">
        <ele>42</ele>
        <time>2023-11-14T00:50:33Z</time>
      </trkpt>
      <trkpt lat="47.26867" lon="-1.65734">
        <ele>41</ele>
        <time>2023-11-14T00:50:59Z</time>
      </trkpt>
      <trkpt lat="47.26878" lon="-1.65712">
        <ele>40</ele>
        <time>2023-11-14T00:51:24Z</time>
      </trkpt>
      <trkpt lat="47.26886" lon="-1.65687">
        <ele>39</ele>
        <time>2023-11-14T00:51:49Z</time>
      </trkpt>
      <trkpt lat="47.26919" lon="-1.65713">
        <ele>43</ele>
        <time>2023-11-14T00:52:39Z</time>
      </trkpt>
      <trkpt lat="47.26937" lon="-1.65709">
        <ele>44</ele>
        <time>2023-11-14T00:53:03Z</time>
      </trkpt>
      <trkpt lat="47.26979" lon="-1.65721">
        <ele>46</ele>
        <time>2023-11-14T00:54:00Z</time>
      </trkpt>
      <trkpt lat="47.26996" lon="-1.65732">
        <ele>47</ele>
        <time>2023-11-14T00:54:25Z</time>
      </trkpt>
      <trkpt lat="47.27015" lon="-1.65739">
        <ele>47</ele>
        <time>2023-11-14T00:54:51Z</time>
      </trkpt>
      <trkpt lat="47.27035" lon="-1.65737">
        <ele>48</ele>
        <time>2023-11-14T00:55:18Z</time>
      </trkpt>
      <trkpt lat="47.27043" lon="-1.65709">
        <ele>48</ele>
        <time>2023-11-14T00:55:45Z</time>
      </trkpt>
      <trkpt lat="47.27046" lon="-1.65681">
        <ele>48</ele>
        <time>2023-11-14T00:56:11Z</time>
      </trkpt>
      <trkpt lat="47.27042" lon="-1.65654">
        <ele>48</ele>
        <time>2023-11-14T00:56:36Z</time>
      </trkpt>
      <trkpt lat="47.27024" lon="-1.65645">
        <ele>47</ele>
        <time>2023-11-14T00:57:01Z</time>
      </trkpt>
      <trkpt lat="47.27002" lon="-1.65643">
        <ele>46</ele>
        <time>2023-11-14T00:57:31Z</time>
      </trkpt>
      <trkpt lat="47.26964" lon="-1.65632">
        <ele>44</ele>
        <time>2023-11-14T00:58:22Z</time>
      </trkpt>
      <trkpt lat="47.26943" lon="-1.65622">
        <ele>43</ele>
        <time>2023-11-14T00:58:52Z</time>
      </trkpt>
      <trkpt lat="47.26923" lon="-1.65616">
        <ele>41</ele>
        <time>2023-11-14T00:59:19Z</time>
      </trkpt>
      <trkpt lat="47.26887" lon="-1.65591">
        <ele>37</ele>
        <time>2023-11-14T01:00:12Z</time>
      </trkpt>
      <trkpt lat="47.26873" lon="-1.65573">
        <ele>35</ele>
        <time>2023-11-14T01:00:37Z</time>
      </trkpt>
      <trkpt lat="47.26862" lon="-1.65551">
        <ele>34</ele>
        <time>2023-11-14T01:01:02Z</time>
      </trkpt>
      <trkpt lat="47.26857" lon="-1.65579">
        <ele>34</ele>
        <time>2023-11-14T01:01:28Z</time>
      </trkpt>
      <trkpt lat="47.26865" lon="-1.6561">
        <ele>35</ele>
        <time>2023-11-14T01:01:58Z</time>
      </trkpt>
      <trkpt lat="47.26859" lon="-1.65668">
        <ele>35</ele>
        <time>2023-11-14T01:02:51Z</time>
      </trkpt>
      <trkpt lat="47.26855" lon="-1.65698">
        <ele>37</ele>
        <time>2023-11-14T01:03:19Z</time>
      </trkpt>
      <trkpt lat="47.26843" lon="-1.65718">
        <ele>38</ele>
        <time>2023-11-14T01:03:43Z</time>
      </trkpt>
      <trkpt lat="47.26837" lon="-1.65744">
        <ele>40</ele>
        <time>2023-11-14T01:04:08Z</time>
      </trkpt>
      <trkpt lat="47.26788" lon="-1.65786">
        <ele>39</ele>
        <time>2023-11-14T01:05:23Z</time>
      </trkpt>
      <trkpt lat="47.26777" lon="-1.65809">
        <ele>40</ele>
        <time>2023-11-14T01:05:49Z</time>
      </trkpt>
      <trkpt lat="47.26763" lon="-1.65829">
        <ele>41</ele>
        <time>2023-11-14T01:06:15Z</time>
      </trkpt>
      <trkpt lat="47.2674" lon="-1.6584">
        <ele>41</ele>
        <time>2023-11-14T01:06:47Z</time>
      </trkpt>
      <trkpt lat="47.2672" lon="-1.65839">
        <ele>41</ele>
        <time>2023-11-14T01:07:14Z</time>
      </trkpt>
      <trkpt lat="47.26703" lon="-1.65853">
        <ele>43</ele>
        <time>2023-11-14T01:07:40Z</time>
      </trkpt>
      <trkpt lat="47.26681" lon="-1.65859">
        <ele>43</ele>
        <time>2023-11-14T01:08:10Z</time>
      </trkpt>
      <trkpt lat="47.26662" lon="-1.6585">
        <ele>42</ele>
        <time>2023-11-14T01:08:36Z</time>
      </trkpt>
      <trkpt lat="47.2664" lon="-1.65852">
        <ele>40</ele>
        <time>2023-11-14T01:09:06Z</time>
      </trkpt>
      <trkpt lat="47.26621" lon="-1.65843">
        <ele>38</ele>
        <time>2023-11-14T01:09:32Z</time>
      </trkpt>
      <trkpt lat="47.26603" lon="-1.65838">
        <ele>37</ele>
        <time>2023-11-14T01:09:57Z</time>
      </trkpt>
      <trkpt lat="47.26585" lon="-1.65853">
        <ele>36</ele>
        <time>2023-11-14T01:10:24Z</time>
      </trkpt>
      <trkpt lat="47.26569" lon="-1.65905">
        <ele>36</ele>
        <time>2023-11-14T01:11:16Z</time>
      </trkpt>
      <trkpt lat="47.26549" lon="-1.65903">
        <ele>35</ele>
        <time>2023-11-14T01:11:43Z</time>
      </trkpt>
      <trkpt lat="47.26526" lon="-1.65853">
        <ele>36</ele>
        <time>2023-11-14T01:12:38Z</time>
      </trkpt>
      <trkpt lat="47.26512" lon="-1.65833">
        <ele>37</ele>
        <time>2023-11-14T01:13:04Z</time>
      </trkpt>
      <trkpt lat="47.26495" lon="-1.65815">
        <ele>39</ele>
        <time>2023-11-14T01:13:32Z</time>
      </trkpt>
      <trkpt lat="47.26488" lon="-1.65786">
        <ele>42</ele>
        <time>2023-11-14T01:13:59Z</time>
      </trkpt>
      <trkpt lat="47.26436" lon="-1.65744">
        <ele>48</ele>
        <time>2023-11-14T01:15:19Z</time>
      </trkpt>
      <trkpt lat="47.26421" lon="-1.65724">
        <ele>50</ele>
        <time>2023-11-14T01:15:46Z</time>
      </trkpt>
      <trkpt lat="47.26402" lon="-1.65715">
        <ele>51</ele>
        <time>2023-11-14T01:16:12Z</time>
      </trkpt>
      <trkpt lat="47.26384" lon="-1.65712">
        <ele>53</ele>
        <time>2023-11-14T01:16:36Z</time>
      </trkpt>
      <trkpt lat="47.26345" lon="-1.65722">
        <ele>56</ele>
        <time>2023-11-14T01:17:29Z</time>
      </trkpt>
      <trkpt lat="47.26323" lon="-1.65723">
        <ele>57</ele>
        <time>2023-11-14T01:17:59Z</time>
      </trkpt>
      <trkpt lat="47.26305" lon="-1.65717">
        <ele>59</ele>
        <time>2023-11-14T01:18:23Z</time>
      </trkpt>
      <trkpt lat="47.26285" lon="-1.65724">
        <ele>60</ele>
        <time>2023-11-14T01:18:51Z</time>
      </trkpt>
      <trkpt lat="47.26273" lon="-1.65746">
        <ele>61</ele>
        <time>2023-11-14T01:19:16Z</time>
      </trkpt>
      <trkpt lat="47.26255" lon="-1.65757">
        <ele>62</ele>
        <time>2023-11-14T01:19:42Z</time>
      </trkpt>
      <trkpt lat="47.26236" lon="-1.65751">
        <ele>62</ele>
        <time>2023-11-14T01:20:08Z</time>
      </trkpt>
      <trkpt lat="47.26157" lon="-1.65742">
        <ele>64</ele>
        <time>2023-11-14T01:21:54Z</time>
      </trkpt>
      <trkpt lat="47.26114" lon="-1.65729">
        <ele>64</ele>
        <time>2023-11-14T01:22:52Z</time>
      </trkpt>
      <trkpt lat="47.26099" lon="-1.65708">
        <ele>63</ele>
        <time>2023-11-14T01:23:20Z</time>
      </trkpt>
      <trkpt lat="47.26081" lon="-1.65691">
        <ele>63</ele>
        <time>2023-11-14T01:23:49Z</time>
      </trkpt>
      <trkpt lat="47.26068" lon="-1.65671">
        <ele>63</ele>
        <time>2023-11-14T01:24:14Z</time>
      </trkpt>
      <trkpt lat="47.26062" lon="-1.65644">
        <ele>64</ele>
        <time>2023-11-14T01:24:39Z</time>
      </trkpt>
    </trkseg>
  </trk>
</gpx>